GFSSGP_850_thetae_000.txt.gz
Theta_e
345 347 353 353 343 340 344 346 345 347 349 347 348 348 352 351 353 357 349 353 353 352 350 346 345 344 345 345 344 343 343 342 341 340 338 335 337 342 341 340 336 335 336 338 339 337 336 336 335
352 351 354 348 338 342 348 343 344 344 348 349 349 349 349 352 349 349 351 353 354 353 352 351 348 348 347 346 345 344 342 342 340 340 338 336 335 341 341 340 339 338 338 338 335 333 335 336 336
347 353 353 339 340 340 346 346 348 347 345 342 348 348 347 350 349 350 351 353 354 354 354 349 348 347 346 344 344 344 342 339 335 337 339 336 336 340 340 337 336 336 336 335 335 337 338 338 338
353 353 349 341 343 344 346 347 346 344 342 343 344 349 350 350 351 350 352 354 354 355 356 348 348 346 341 339 341 343 343 340 337 340 339 338 338 337 338 336 335 336 337 337 338 338 339 339 339
353 350 340 341 346 346 345 342 341 341 340 342 342 346 350 352 350 351 352 354 354 355 354 348 347 346 342 340 343 342 343 342 339 338 339 337 337 337 338 335 334 335 335 335 335 337 337 337 338
349 345 340 341 347 347 347 345 340 342 344 344 345 348 353 351 349 350 351 351 352 353 354 350 346 345 345 344 342 339 337 339 340 337 337 336 337 337 335 333 333 333 335 336 336 336 337 337 337
346 340 339 341 348 349 348 346 342 341 342 344 345 349 352 350 349 350 350 351 351 352 353 354 350 344 342 343 343 340 338 338 337 337 337 336 336 335 334 334 333 334 336 336 336 337 338 338 338
345 341 339 339 341 348 348 345 344 343 346 346 346 347 353 350 349 349 349 350 352 352 351 352 352 351 349 342 341 339 338 337 337 337 336 337 337 337 337 336 336 336 336 335 336 337 340 339 339
341 337 337 338 340 347 347 347 348 346 350 353 351 346 349 349 348 348 349 349 351 350 351 352 354 354 354 351 345 341 340 339 338 338 338 339 347 349 349 347 342 336 335 335 335 334 336 337 337
338 335 336 339 340 345 346 347 349 349 353 354 352 352 350 348 348 348 348 348 350 350 350 350 351 352 352 351 350 348 348 347 346 348 349 347 349 349 348 346 340 337 336 335 337 338 337 339 345
334 336 342 345 344 345 347 348 347 347 349 353 353 352 350 348 348 348 348 348 348 350 350 351 352 352 351 351 351 350 350 349 349 349 349 350 350 349 349 348 348 348 345 346 346 346 346 345 345
336 344 344 347 346 345 345 345 350 351 351 353 351 351 350 349 347 346 347 347 348 349 350 351 352 352 352 351 351 350 349 349 348 349 348 349 349 348 348 347 347 346 345 346 345 346 346 346 345
341 346 348 347 345 344 342 345 352 354 353 353 353 353 352 350 348 347 347 347 348 349 350 351 353 352 353 349 350 349 349 347 347 348 348 349 348 348 348 346 347 346 346 348 348 348 347 347 345
342 346 346 344 340 340 342 344 343 355 354 353 353 353 353 352 351 349 347 347 348 348 349 352 353 354 352 350 349 348 349 348 348 348 348 348 348 348 347 347 347 347 346 345 345 346 347 347 346
345 348 348 344 345 341 339 344 349 354 355 353 353 354 354 354 354 353 352 352 352 352 352 353 355 355 352 349 349 349 350 349 348 348 348 347 347 348 347 344 347 345 344 340 344 346 347 346 346
342 343 345 345 345 343 348 346 349 350 351 353 353 354 354 354 354 354 354 355 355 355 355 355 355 352 356 352 349 346 350 349 348 346 346 348 347 344 343 342 343 345 345 345 345 346 345 343 345
340 340 339 345 346 346 346 346 347 347 347 349 351 353 353 353 354 354 354 355 355 353 355 356 355 353 352 351 350 350 350 350 350 349 348 348 345 343 344 345 344 342 342 342 342 345 346 345 345
335 337 338 340 344 346 345 348 346 346 345 346 348 350 351 351 352 353 354 355 356 356 356 355 355 353 351 352 351 350 350 350 350 349 348 346 345 345 345 345 345 344 344 344 344 342 346 346 346
331 333 337 338 341 344 345 350 346 344 345 344 344 348 348 349 349 352 353 354 354 355 355 355 354 353 352 352 352 351 351 350 350 349 349 349 347 346 345 345 344 344 345 347 347 346 344 344 345
330 331 333 339 342 344 350 351 349 346 342 344 344 346 347 348 349 352 352 353 354 355 355 354 353 353 351 354 351 347 345 347 348 345 343 344 345 343 340 340 343 344 343 343 343 343 344 346 345
332 332 332 337 345 345 350 352 355 349 348 345 347 346 349 349 350 350 351 352 353 354 355 352 349 350 352 347 346 345 341 340 341 342 341 342 342 337 335 338 340 341 340 341 343 342 342 344 344
333 333 333 335 347 343 347 342 356 353 352 349 346 349 349 350 351 350 349 350 351 353 355 352 353 345 340 336 339 339 333 337 338 338 338 334 339 332 333 336 339 339 339 339 339 340 341 342 342
334 337 338 340 346 345 351 346 341 351 353 351 349 347 347 349 350 349 346 348 350 354 356 353 333 333 333 328 326 332 337 335 336 336 335 331 334 330 333 336 338 337 339 339 337 336 338 340 342
338 341 341 341 339 341 337 342 335 341 349 348 348 348 349 348 349 350 348 349 353 352 351 339 332 332 330 326 326 325 326 326 332 334 335 334 335 336 337 334 332 334 335 336 336 336 335 336 337
335 335 335 335 335 335 337 338 335 336 345 345 346 349 349 348 348 349 350 352 351 351 345 338 332 332 330 328 326 326 325 327 333 334 332 332 333 333 332 324 328 330 329 329 333 334 334 334 335
332 332 331 333 332 331 339 334 336 342 341 340 344 347 349 348 346 348 351 350 350 348 341 333 330 331 328 326 327 327 326 332 333 334 331 332 332 332 327 330 330 331 330 331 332 332 334 335 334
332 332 332 332 331 331 332 336 338 341 342 341 345 347 349 346 346 348 349 349 348 342 335 327 327 326 323 329 328 332 335 335 332 328 329 332 330 331 330 326 329 330 332 332 333 333 333 333 332
334 333 332 332 334 334 332 331 333 336 337 342 343 346 350 345 345 347 347 347 344 341 335 326 322 324 329 330 330 333 333 334 333 331 329 329 328 327 324 328 332 331 332 331 330 331 331 332 331
333 333 334 334 334 334 334 333 335 334 335 337 343 346 349 345 343 345 347 347 341 340 337 323 323 327 330 331 332 330 332 333 331 329 332 333 331 327 327 328 326 331 332 331 330 330 329 330 330
333 333 334 335 339 335 334 332 335 334 335 336 338 345 346 347 340 339 345 346 340 339 335 333 334 335 335 335 333 332 332 330 329 329 331 331 331 329 324 325 330 332 332 332 331 331 330 329 329

GFSSGP_850_thetae_003.txt.gz
Theta_e
346 352 353 353 343 341 344 344 343 345 347 345 347 348 352 352 350 358 350 351 351 352 348 346 341 342 340 340 340 340 341 341 342 335 339 342 342 341 338 334 334 334 336 338 339 337 336 335 333
354 353 355 353 342 342 342 340 343 345 347 346 346 347 350 353 350 352 352 352 352 351 352 348 345 345 344 343 342 342 340 340 340 336 339 339 342 340 340 337 336 337 337 338 334 332 335 336 336
350 353 355 340 339 342 343 344 345 344 341 345 344 345 349 351 350 353 353 354 353 353 354 348 348 347 346 345 344 342 340 339 340 338 338 336 340 341 341 340 339 339 338 335 334 337 338 338 338
355 354 341 341 340 340 343 344 341 340 340 342 344 349 349 350 351 352 355 355 356 354 356 348 347 346 345 345 344 341 338 337 340 341 338 337 340 340 337 337 337 337 337 337 338 339 339 339 338
355 351 342 343 341 341 342 340 339 341 341 341 343 349 350 350 351 353 354 355 356 355 354 348 346 342 340 342 343 343 340 337 339 340 339 338 338 337 338 334 336 337 336 335 336 337 337 337 337
355 341 342 344 344 344 342 339 340 342 341 342 345 349 350 350 350 352 352 354 353 355 355 349 346 343 341 342 341 342 342 340 339 340 338 337 337 336 335 333 333 333 335 336 337 337 337 338 338
354 341 340 341 344 346 345 341 341 342 343 343 345 351 349 349 349 349 351 352 353 353 354 353 350 346 345 344 343 341 341 342 339 337 337 337 337 336 335 334 333 334 336 336 336 336 338 338 339
343 341 338 342 342 345 344 342 342 344 344 344 345 347 350 348 348 348 350 350 353 354 353 352 352 353 351 345 345 345 339 338 338 337 337 336 337 337 336 337 342 338 336 335 335 336 336 335 335
341 341 337 340 340 344 343 346 347 347 346 347 347 344 347 348 348 348 350 352 352 352 353 354 354 353 354 354 346 341 339 338 338 338 337 339 347 350 349 351 346 340 336 335 335 334 335 335 337
339 338 337 339 341 343 344 346 348 351 353 349 349 347 348 348 348 348 348 351 349 351 351 352 351 353 351 352 349 351 350 348 348 348 349 346 349 348 348 348 343 342 340 338 340 344 340 344 346
337 336 338 339 340 341 342 342 343 343 354 350 350 348 348 348 348 347 348 348 349 350 349 349 352 351 350 352 350 351 350 349 349 348 348 349 348 351 350 349 348 350 348 348 347 347 348 348 345
338 338 340 339 339 342 341 342 346 352 352 351 348 347 347 348 348 347 347 348 349 350 349 350 352 352 351 351 349 349 348 347 349 350 347 345 347 348 345 346 346 346 346 347 345 345 347 343 346
340 341 340 340 341 340 340 345 351 352 350 349 348 348 347 347 347 347 347 347 348 349 349 350 352 354 353 350 349 350 347 348 346 348 349 347 348 347 346 349 346 347 344 344 346 346 345 346 346
339 341 340 340 339 339 343 344 350 352 350 350 350 350 350 348 347 347 347 347 347 348 349 350 351 352 351 349 350 348 347 349 348 346 347 348 347 348 346 346 348 347 346 350 347 347 348 347 346
339 341 340 340 340 339 339 343 350 353 351 352 352 352 352 352 351 349 347 346 347 348 350 351 352 353 351 349 350 348 349 347 346 346 348 346 347 348 345 345 346 349 348 344 345 347 348 347 347
339 339 342 342 340 341 341 348 349 350 352 352 353 353 353 353 352 352 351 351 351 350 351 351 352 354 352 351 350 351 351 348 347 347 347 348 349 345 344 343 343 342 342 348 347 347 348 348 348
339 340 341 342 340 345 342 347 347 346 347 349 350 351 350 350 350 352 352 353 353 353 355 354 353 353 355 351 353 352 351 349 349 348 347 347 346 347 344 343 343 343 343 345 346 346 344 347 347
339 340 340 342 341 340 343 344 347 345 344 347 348 348 348 349 350 349 350 352 352 353 355 355 354 355 354 352 352 352 349 348 352 353 351 351 349 348 348 348 349 348 348 348 348 347 347 344 345
337 336 339 338 340 340 341 344 347 346 344 344 346 347 347 347 346 348 349 351 352 353 355 355 356 355 356 353 353 353 351 350 349 347 348 350 348 347 346 346 346 344 342 341 341 343 346 345 345
332 333 337 337 339 339 341 346 344 345 345 343 343 345 344 345 345 348 350 351 351 352 353 354 355 358 357 354 352 348 351 348 346 348 348 348 347 345 346 344 343 341 341 339 341 341 342 343 344
332 332 333 336 337 337 343 344 347 344 343 343 342 343 343 344 344 345 348 349 349 352 355 355 355 356 358 352 350 349 345 345 342 340 343 343 344 342 342 342 341 339 339 339 341 340 342 341 342
332 332 333 333 337 340 338 341 349 349 344 342 343 343 343 343 342 342 343 345 346 349 353 356 357 357 354 346 343 341 334 336 340 338 337 337 337 340 340 340 341 341 340 338 338 339 339 340 341
334 333 333 333 335 337 340 341 348 342 350 346 342 343 344 344 344 343 341 343 344 349 351 355 357 347 335 342 328 335 334 334 333 335 335 337 336 339 339 340 340 339 341 339 338 338 337 337 338
335 336 335 336 336 338 341 343 340 350 352 350 345 341 342 344 344 345 343 344 346 349 352 354 348 330 332 339 339 337 335 335 333 334 334 335 334 336 337 338 332 335 337 338 337 337 336 335 335
334 334 336 337 338 339 337 336 340 336 340 339 344 344 343 342 344 345 345 347 349 349 351 348 344 325 326 337 335 332 334 336 337 338 335 334 334 334 335 333 336 335 335 335 335 336 335 335 335
333 334 336 337 337 336 336 336 334 333 336 340 341 342 344 345 345 345 346 348 352 349 349 343 335 321 334 337 337 332 335 334 334 335 336 333 334 333 334 335 335 335 335 335 335 336 336 334 335
334 333 334 333 334 335 335 335 334 338 337 339 339 341 346 346 347 346 347 351 350 349 346 343 323 329 339 337 342 340 339 338 336 330 333 334 333 334 333 334 334 334 334 334 333 334 334 333 330
334 333 333 333 334 337 335 334 334 338 336 336 338 340 343 347 348 346 346 351 349 349 344 341 334 334 339 338 339 335 334 336 337 336 336 335 335 335 335 334 333 334 334 333 334 333 332 332 332
333 334 335 335 337 337 336 336 336 335 334 335 336 337 342 346 349 346 346 349 349 347 343 339 339 340 339 339 339 336 334 335 335 334 334 334 335 335 335 334 333 334 335 334 334 332 333 332 331
333 333 334 336 338 336 336 336 335 334 334 335 335 337 340 347 350 346 347 348 348 344 342 339 337 338 339 338 338 336 335 335 335 334 333 334 333 334 334 333 333 333 334 333 334 333 333 332 330

GFSSGP_850_thetae_006.txt.gz
Theta_e
346 355 355 354 355 343 344 343 344 345 346 345 349 352 344 350 350 356 350 352 352 350 341 339 338 340 341 342 342 342 344 340 335 335 335 336 334 331 331 331 331 333 336 338 336 334 334 334 335
347 357 354 355 344 341 343 343 344 344 343 346 348 350 352 353 351 352 352 352 351 351 345 342 341 341 341 342 342 342 342 338 338 341 341 339 340 337 335 334 335 337 338 335 332 335 337 337 337
352 356 354 347 342 342 343 342 342 342 343 344 347 349 350 352 352 353 352 352 352 353 344 344 344 343 343 342 341 341 340 338 336 338 339 341 340 339 338 338 338 338 336 334 337 338 339 338 338
354 349 353 339 339 340 340 340 340 342 343 345 347 348 350 353 353 353 352 353 352 354 348 347 346 344 344 342 341 339 339 339 337 338 336 340 339 337 337 337 336 336 336 337 337 336 337 337 336
344 350 345 341 341 341 339 338 339 341 341 344 347 349 350 355 354 354 355 354 354 353 347 346 344 342 343 342 341 339 338 340 341 338 338 338 338 338 335 334 335 335 334 335 335 336 336 337 337
344 348 343 344 342 342 337 337 339 341 343 345 347 348 349 352 352 354 353 355 354 354 350 345 341 341 343 343 342 340 336 339 340 340 337 336 337 337 335 333 332 332 334 335 336 336 336 337 337
343 346 344 345 346 342 342 337 340 341 343 347 346 349 348 349 349 354 354 355 355 355 352 346 343 342 342 342 342 342 340 339 339 338 336 336 337 336 335 334 334 335 336 336 335 335 336 335 335
344 348 341 343 348 344 341 339 340 342 344 345 346 348 348 347 350 351 353 354 354 354 353 352 346 345 344 343 341 339 340 340 338 337 336 336 336 338 337 341 344 344 341 336 335 334 333 334 334
348 344 342 341 343 345 344 344 342 342 345 346 347 346 348 347 349 351 354 354 355 353 354 352 352 351 351 345 344 340 338 338 337 337 337 337 348 349 347 338 341 342 339 337 335 343 340 339 340
339 339 340 340 341 345 340 343 345 346 347 346 344 347 347 347 347 352 349 351 352 352 352 353 352 352 351 352 344 342 340 338 338 341 347 344 349 350 347 345 346 348 347 345 347 345 344 347 346
337 337 338 341 342 344 340 348 345 350 348 347 346 347 347 348 348 347 352 349 351 350 351 352 352 349 353 353 346 348 347 348 349 346 345 347 349 346 350 349 349 347 344 347 346 344 345 350 346
338 340 339 339 342 341 342 346 345 341 346 349 345 347 347 347 347 347 348 347 350 348 351 351 350 351 349 352 348 350 351 349 347 348 349 345 345 348 347 346 344 347 346 346 344 344 345 347 340
339 340 339 341 341 341 343 346 347 341 348 346 345 346 347 347 347 346 346 347 350 348 350 351 351 348 351 350 348 350 350 348 347 348 349 350 345 346 346 345 346 344 347 345 348 343 345 345 345
339 339 338 339 338 341 343 346 347 349 348 347 346 347 347 347 347 347 347 347 348 349 349 350 349 348 348 348 349 349 348 348 346 346 347 344 347 346 346 345 347 348 347 346 345 344 342 343 346
339 339 340 338 341 341 340 346 349 349 349 349 349 349 348 348 347 347 347 347 348 348 349 349 348 350 349 347 345 344 346 347 345 346 343 344 345 344 348 344 343 343 345 345 343 344 347 346 345
339 340 340 341 342 340 342 350 349 348 350 351 350 350 350 350 350 349 348 347 346 347 348 349 349 350 350 349 347 344 343 349 351 347 347 346 348 348 346 342 343 343 343 343 342 345 347 347 346
339 340 342 343 341 341 342 347 348 348 347 347 349 349 350 351 353 352 352 348 348 349 349 350 350 350 354 353 347 348 352 348 349 350 347 348 347 347 345 346 344 346 346 346 347 347 347 346 344
339 341 343 344 342 344 344 346 347 345 346 347 347 347 348 349 348 351 352 350 353 352 353 352 352 351 354 353 351 352 353 351 350 351 349 349 350 348 346 346 345 345 345 344 342 341 341 341 343
339 339 342 341 344 346 344 345 346 343 344 347 347 346 346 345 349 350 352 354 352 351 352 353 353 355 353 352 347 349 349 348 344 345 346 347 345 344 344 343 342 342 343 344 342 340 339 342 341
336 336 337 340 340 342 346 346 346 344 343 345 347 347 346 346 346 346 347 347 348 353 352 350 351 350 351 349 347 345 344 349 346 347 346 345 345 345 344 341 340 342 340 339 342 337 336 335 336
335 333 334 339 339 339 339 347 345 344 343 343 344 346 346 345 346 347 348 348 349 350 352 350 352 351 351 352 349 348 347 346 343 346 346 347 344 343 342 342 342 338 336 337 341 341 338 338 337
333 333 333 334 337 338 339 342 348 346 344 344 343 343 345 344 345 347 348 349 349 351 352 353 353 354 353 351 345 343 340 333 338 338 338 337 337 331 331 333 338 340 339 335 339 337 337 336 337
332 333 332 333 333 334 336 339 348 346 345 343 342 342 343 344 344 345 345 346 347 350 352 356 356 353 350 327 325 333 333 336 333 334 335 332 336 336 337 339 340 333 336 336 336 336 337 335 335
332 335 334 333 333 336 335 340 345 347 351 344 342 341 342 343 344 343 344 344 344 349 351 355 356 338 321 319 326 328 333 331 326 333 335 337 336 334 336 337 336 328 331 333 333 332 334 336 333
333 335 338 337 337 337 336 338 345 345 343 346 347 341 342 343 344 344 343 344 344 349 351 355 349 327 318 323 334 334 334 334 334 337 337 336 333 334 335 335 332 332 333 333 332 333 333 335 336
333 335 336 342 339 338 339 341 344 340 343 345 347 346 342 341 345 345 346 344 347 349 351 353 346 321 320 329 333 330 325 335 337 336 337 334 332 334 333 333 336 333 333 333 333 330 334 333 330
334 335 334 336 335 335 337 338 336 336 336 334 337 336 344 342 342 345 346 347 348 350 351 350 345 324 322 335 335 333 337 328 325 333 331 326 336 335 334 335 333 331 332 332 331 332 331 333 333
334 334 334 334 339 339 336 336 337 343 338 336 335 335 339 344 344 344 345 349 351 351 350 348 344 330 328 338 336 339 336 335 333 330 324 326 327 329 331 331 332 332 332 331 331 331 332 330 329
333 334 334 334 335 337 338 338 341 344 340 336 335 335 336 337 344 347 346 349 352 351 350 348 344 339 338 338 340 339 333 334 336 335 333 334 335 335 334 332 333 331 331 330 333 332 331 331 333
333 334 336 337 340 339 341 337 337 337 335 334 335 335 337 340 341 349 348 351 353 350 350 347 343 342 341 340 339 338 334 331 335 335 335 335 334 333 333 332 332 331 331 332 331 332 330 331 329

GFSSGP_850_thetae_012.txt.gz
Theta_e
346 352 355 357 355 342 349 352 345 349 347 347 347 348 351 351 348 351 348 344 341 341 343 344 343 340 340 342 344 343 341 336 336 337 334 332 333 333 333 334 335 335 333 331 335 336 336 337 338
346 352 355 357 352 340 343 347 351 347 346 346 350 351 351 352 350 349 346 339 339 340 340 339 339 339 341 344 344 342 339 334 332 331 332 332 330 330 332 333 335 334 331 334 337 337 336 335 336
350 354 356 355 341 343 352 348 349 346 347 349 350 350 350 351 351 350 349 340 337 339 339 340 340 341 343 341 336 336 336 337 338 335 331 331 331 332 334 335 335 334 335 336 335 336 336 336 336
345 349 353 341 336 345 349 351 350 348 347 351 353 352 352 351 351 351 349 341 339 340 341 341 342 342 343 336 338 341 340 340 338 337 334 334 336 336 335 335 335 335 334 334 335 335 336 337 337
344 344 342 334 337 344 347 349 348 351 352 352 352 353 352 351 350 350 349 343 342 341 342 342 343 343 343 339 336 338 337 336 338 338 336 335 335 334 333 333 332 332 334 334 335 335 335 336 337
342 342 345 339 337 340 345 346 351 354 353 352 352 352 352 352 350 351 350 347 344 343 343 343 342 344 343 340 337 336 337 337 337 338 337 336 335 334 332 332 332 333 335 336 335 335 334 333 334
343 342 345 345 341 345 347 347 353 354 353 353 351 351 352 351 350 349 349 346 345 344 342 343 343 341 341 338 338 339 339 338 337 336 336 335 335 334 334 334 336 340 340 337 335 336 335 334 334
342 341 342 341 340 340 344 345 349 353 354 352 348 353 352 350 351 351 349 345 344 342 340 341 341 342 341 338 335 337 338 339 336 335 335 335 335 339 339 339 341 340 340 340 336 342 341 343 340
343 341 344 343 343 341 341 345 346 349 353 351 351 351 352 354 354 353 352 351 346 343 340 341 341 339 339 339 339 338 338 337 335 334 335 338 340 344 338 344 346 344 344 343 344 343 343 345 342
344 344 344 341 341 343 343 345 346 348 350 349 349 352 354 354 354 353 353 352 350 346 344 344 343 342 340 338 337 337 336 335 335 335 337 338 343 346 347 347 347 345 344 344 344 343 342 345 345
344 345 341 341 342 346 346 346 346 347 348 348 350 354 354 354 354 353 352 348 346 345 343 344 346 345 342 343 341 339 339 338 340 343 343 342 344 346 344 346 346 345 345 346 345 345 343 342 345
340 341 341 342 344 345 343 343 342 346 347 347 351 354 354 353 353 353 351 349 348 345 348 347 346 346 350 348 346 347 347 345 346 347 345 346 345 343 345 346 344 343 347 346 346 345 345 343 344
340 340 343 345 344 344 343 340 342 345 347 346 351 352 353 351 352 352 347 350 348 347 349 349 349 348 349 348 349 349 346 348 349 346 346 345 346 344 344 344 343 343 344 343 344 344 344 343 343
341 341 342 345 344 342 339 340 344 347 347 346 346 349 351 351 352 351 349 351 349 348 351 348 349 346 346 349 350 348 348 349 348 347 346 346 346 343 344 344 344 343 345 343 343 344 344 342 344
340 340 343 345 346 345 345 347 345 346 347 346 346 347 347 348 350 348 349 348 347 348 350 348 348 347 346 347 349 349 349 348 349 348 345 345 343 343 345 345 344 343 343 344 343 343 343 343 342
335 336 339 340 346 346 347 352 345 346 346 346 347 346 347 346 346 347 348 348 346 345 349 347 348 346 346 346 344 344 345 348 347 345 346 346 346 347 346 345 347 346 344 343 342 344 343 343 343
330 333 340 341 341 344 345 350 345 345 346 346 346 346 346 346 346 345 346 346 346 344 346 346 346 346 347 347 349 346 343 345 344 345 348 345 348 346 346 345 346 346 344 343 342 341 340 339 338
333 337 341 341 339 342 347 348 346 345 345 345 346 346 346 347 346 346 346 347 347 346 345 347 346 346 346 348 350 349 344 343 342 342 346 346 345 344 348 348 344 343 340 338 341 340 340 338 335
331 338 339 339 338 346 348 348 348 347 346 346 346 346 347 347 347 347 347 347 347 345 346 346 346 348 348 349 349 347 345 347 347 346 346 348 348 347 342 342 337 334 336 335 338 338 337 338 340
328 336 340 339 338 338 347 349 347 347 348 348 348 349 348 348 347 348 347 347 346 346 346 347 347 348 344 347 345 344 344 341 344 346 345 345 344 344 341 341 340 340 340 334 332 334 335 337 336
329 337 339 339 339 339 346 346 346 346 347 346 348 349 349 350 350 349 349 347 347 347 347 346 345 347 346 348 343 343 343 336 341 342 341 343 344 341 340 334 329 329 331 331 331 334 334 334 333
326 330 338 341 342 344 341 349 344 344 343 341 344 348 349 350 351 351 351 347 347 349 346 347 346 342 341 340 343 337 342 343 337 342 342 339 338 335 328 327 329 330 333 332 327 331 332 332 330
328 328 328 340 341 337 344 344 346 340 341 340 341 344 346 348 349 350 351 350 350 349 350 349 332 335 335 335 326 327 343 340 335 337 337 336 334 326 333 334 336 334 334 326 330 329 330 330 330
329 328 325 324 324 333 339 340 334 344 341 339 338 344 344 347 349 349 349 348 349 350 351 350 337 330 333 325 322 328 339 334 332 336 333 332 329 324 332 334 334 334 330 325 327 329 328 332 332
327 322 324 327 326 325 321 342 341 341 341 339 338 344 345 346 349 349 349 349 349 349 350 346 333 330 330 326 336 323 324 320 320 325 328 324 319 330 334 334 333 330 326 322 329 330 330 330 330
323 322 324 329 331 328 326 329 329 337 341 339 339 345 345 346 346 348 346 345 344 348 348 348 343 330 328 325 335 322 320 317 318 318 321 324 332 332 329 331 329 330 331 324 330 331 331 329 330
325 325 324 327 329 329 329 331 334 336 339 338 339 344 344 345 345 346 345 345 345 348 347 348 347 335 329 327 323 323 322 317 318 321 327 334 336 332 330 331 333 332 328 325 326 329 330 330 331
324 324 327 322 329 331 329 333 334 340 339 338 338 339 340 344 345 345 345 346 346 347 348 347 348 344 335 328 321 324 325 320 317 318 325 327 325 323 330 331 328 326 329 326 325 328 330 330 329
327 326 324 324 324 327 328 333 331 334 339 339 340 340 339 341 344 345 346 346 345 347 348 349 348 349 342 327 322 324 328 325 321 322 321 320 321 323 324 326 327 326 328 329 328 327 328 328 330
324 325 324 326 327 327 328 332 332 332 334 338 340 342 341 339 342 344 345 345 346 347 348 349 349 351 347 333 324 324 330 326 322 322 322 321 321 322 322 326 326 328 328 328 326 327 328 329 328

GFSSGP_850_thetae_015.txt.gz
Theta_e
345 348 350 353 353 344 352 350 345 348 347 348 348 350 350 349 347 348 345 343 347 348 348 347 346 343 342 343 342 341 342 343 334 333 333 333 333 333 332 333 334 334 331 334 335 336 337 338 338
347 350 353 355 337 349 350 347 349 346 347 350 351 350 350 350 348 346 344 342 347 347 347 344 342 340 342 342 341 339 339 340 333 334 332 331 331 332 334 334 333 331 332 336 336 336 335 335 336
345 351 355 352 336 347 350 347 346 346 348 350 350 350 350 349 346 343 341 341 341 343 342 341 340 342 344 343 341 336 334 335 333 332 331 330 330 331 334 335 334 333 335 335 335 335 336 336 336
349 352 350 332 342 345 348 346 345 347 349 351 350 351 351 349 349 341 338 340 340 340 339 339 341 343 342 340 338 336 334 333 332 331 330 331 331 334 335 334 335 335 334 334 335 335 336 336 337
348 345 332 337 345 349 348 347 345 347 350 351 350 351 352 351 349 345 338 339 339 340 340 341 342 342 335 336 337 338 338 338 337 334 333 334 335 335 335 334 333 333 334 335 335 335 335 336 336
341 340 339 337 345 349 348 347 347 352 352 351 351 351 352 350 348 343 339 339 340 341 342 342 342 340 334 340 339 338 338 339 338 337 336 335 334 333 332 332 332 334 336 336 335 334 334 334 334
340 337 343 339 345 348 348 350 352 351 350 351 350 351 352 350 349 347 342 341 341 341 342 343 343 341 337 336 337 337 336 337 338 337 336 335 334 332 333 335 338 340 339 337 335 340 336 337 335
342 334 339 339 347 348 349 351 350 351 352 350 347 351 352 350 350 350 348 344 343 342 342 341 342 341 339 337 337 338 337 337 335 335 335 335 335 337 338 340 339 341 340 341 339 341 343 340 339
344 336 341 340 340 342 345 349 351 352 351 346 350 348 348 350 351 351 347 345 345 343 342 342 341 341 339 337 337 338 338 338 335 335 335 335 337 342 337 343 347 344 342 343 342 342 343 343 341
341 340 341 338 338 341 342 349 350 347 350 350 350 348 350 350 351 348 346 345 343 340 340 340 342 341 340 338 336 337 338 337 335 335 336 338 342 345 346 347 346 345 345 343 343 343 342 344 343
342 343 340 340 341 341 344 346 348 350 349 350 351 349 351 351 352 350 348 344 344 342 340 342 342 340 338 338 337 337 337 336 335 336 340 342 342 345 343 344 345 344 345 346 345 344 344 343 342
343 340 340 341 344 343 343 346 347 348 347 348 347 350 353 353 352 351 349 348 346 344 343 343 344 342 341 343 340 339 339 340 341 343 344 344 344 342 343 344 344 343 343 344 344 345 344 344 342
335 338 340 341 344 344 343 341 346 346 348 349 351 352 353 352 351 351 348 347 346 345 345 342 345 343 347 346 344 346 345 346 347 346 345 345 345 343 344 344 343 344 344 343 343 343 344 345 342
339 339 341 343 342 341 341 343 346 347 349 352 354 353 353 353 352 352 351 348 347 344 346 348 346 347 350 348 347 346 347 347 346 347 345 345 344 343 343 344 345 345 344 345 343 343 342 342 342
340 341 343 342 341 337 343 345 347 346 350 353 354 354 352 352 352 352 349 348 347 347 348 347 348 346 345 345 346 347 345 347 346 344 345 343 344 342 344 345 346 344 346 344 343 343 343 343 343
338 338 347 344 343 342 345 350 346 346 348 350 351 352 352 352 352 351 347 349 348 346 348 347 348 347 346 346 346 347 348 348 348 348 346 343 344 343 344 344 343 344 344 345 343 341 342 342 340
331 346 342 346 343 344 345 347 345 346 345 345 346 349 350 350 352 350 348 347 347 346 349 348 347 347 345 346 347 346 346 345 346 347 346 344 346 346 349 345 344 344 346 343 342 341 340 339 338
340 340 344 346 346 343 346 346 344 346 345 345 345 346 346 346 346 348 347 347 346 345 345 346 346 346 346 347 348 348 348 345 344 345 344 345 347 345 343 345 346 342 338 334 330 332 337 336 336
329 336 344 344 341 346 346 346 345 345 345 344 345 345 345 346 346 345 346 347 347 346 345 346 346 345 347 347 347 350 348 346 344 344 347 347 347 345 347 341 340 336 336 334 329 329 329 331 335
327 336 340 338 341 345 345 348 344 343 344 344 345 345 345 346 346 345 346 346 346 346 345 345 346 346 346 347 347 347 345 342 344 346 344 344 344 345 342 341 340 339 337 336 330 332 335 332 333
327 329 336 337 340 343 346 348 347 345 344 344 344 345 345 346 346 346 345 346 346 346 345 345 345 346 346 342 346 344 342 339 335 342 339 339 341 342 342 339 336 329 329 329 327 325 329 333 332
330 327 333 338 340 344 345 352 344 345 346 345 346 345 346 346 346 346 346 346 347 346 345 345 346 347 343 346 346 344 338 341 338 338 337 341 340 338 338 331 327 329 330 332 326 327 328 328 329
329 326 328 337 338 341 343 343 343 343 344 346 345 346 347 347 347 347 347 348 348 346 346 346 344 343 345 343 339 337 337 338 342 339 337 339 338 335 329 327 330 333 334 330 327 328 329 329 330
328 326 322 323 331 340 344 341 338 344 346 344 343 342 347 348 348 347 348 349 348 346 345 347 346 341 335 331 330 326 325 328 335 333 336 336 333 331 327 330 334 334 333 326 323 326 328 330 331
324 321 323 328 336 339 331 341 340 339 343 343 342 340 345 348 349 349 349 350 349 346 341 345 347 329 326 325 325 323 321 325 330 332 334 333 332 329 323 326 331 333 329 326 323 328 330 329 329
322 321 322 324 326 330 324 340 341 337 338 343 342 340 342 345 348 350 349 349 349 347 345 342 341 332 327 327 325 323 323 321 320 319 320 322 321 321 324 328 330 330 330 329 323 322 327 329 329
324 322 321 321 323 326 325 328 328 334 332 339 341 338 340 343 346 348 348 348 349 348 344 341 342 340 329 326 326 326 326 321 317 317 317 317 320 324 332 325 326 328 329 326 325 322 325 328 329
323 321 324 320 326 330 326 330 329 331 336 336 338 336 340 343 345 347 348 348 348 347 343 341 344 346 336 329 327 326 325 322 318 319 320 320 327 332 327 323 328 328 324 324 325 326 328 329 330
324 321 321 320 321 325 327 327 326 330 333 336 336 338 340 343 344 345 346 347 346 347 345 341 344 346 346 340 333 328 324 324 320 317 318 319 320 319 320 323 326 326 325 328 329 328 328 328 327
320 322 321 324 323 322 324 326 328 330 333 336 336 338 340 341 343 344 345 346 347 347 346 345 343 344 346 347 343 331 323 324 325 319 319 319 319 320 322 324 324 326 327 327 326 326 327 329 328

GFSSGP_850_thetae_018.txt.gz
Theta_e
350 347 349 351 347 345 350 348 345 347 347 348 348 348 349 348 347 346 345 346 346 348 346 345 346 344 345 346 347 347 346 344 339 339 335 331 331 331 331 332 333 332 333 335 335 335 336 337 337
349 349 350 354 343 349 348 346 347 346 346 350 350 350 349 349 346 344 344 347 348 347 346 345 343 344 344 343 342 343 343 335 332 332 332 332 332 332 332 333 332 330 335 336 335 335 335 336 336
346 351 354 346 339 348 348 346 346 348 349 350 350 349 348 348 345 343 343 347 347 347 346 343 342 344 341 340 339 341 336 333 334 332 332 332 332 333 334 334 332 334 335 335 335 335 336 336 337
347 352 349 333 344 346 346 345 346 348 350 350 348 350 349 344 343 341 343 346 347 345 342 341 342 343 341 340 337 340 336 334 333 332 332 331 331 333 335 334 334 334 334 334 335 335 336 336 336
349 346 333 340 347 349 346 345 347 347 351 350 349 351 351 349 340 339 340 341 342 344 342 341 343 343 342 339 334 333 333 332 332 331 330 331 333 335 334 334 333 333 334 335 334 334 334 334 335
343 338 339 344 350 349 347 345 348 352 351 350 350 350 351 349 339 338 339 339 339 339 341 342 343 341 340 337 336 336 337 336 333 332 333 335 334 333 332 331 332 334 336 336 335 335 334 333 334
340 335 340 342 349 351 348 346 351 351 350 350 349 350 350 350 341 337 339 339 340 341 341 342 341 335 337 338 339 338 338 337 336 335 335 334 333 332 333 334 337 340 338 336 335 340 339 340 338
341 331 338 340 349 349 348 351 351 349 350 349 348 349 349 348 341 339 339 341 341 341 341 340 340 334 339 339 337 336 336 338 337 336 335 335 334 335 340 339 338 340 341 340 341 341 343 340 341
343 334 338 341 344 344 349 351 349 351 349 348 349 348 348 347 344 342 341 340 341 341 341 341 340 338 335 335 336 337 337 337 335 335 335 335 336 339 337 343 346 344 342 342 341 341 341 342 343
338 335 337 336 337 343 346 350 351 349 348 349 349 347 348 348 348 348 344 342 342 342 341 340 341 340 338 337 337 338 337 337 335 334 335 337 341 345 345 345 344 343 343 343 342 342 341 343 342
341 340 339 338 339 345 344 349 347 347 350 349 348 347 348 349 350 348 345 343 341 340 340 340 341 340 338 336 335 336 337 337 335 334 336 340 342 344 343 343 344 344 342 344 344 343 343 341 341
340 341 340 339 341 343 346 347 347 349 347 348 344 346 348 350 349 346 344 343 341 339 339 340 340 338 338 338 337 337 337 336 335 335 342 343 344 343 343 344 343 343 343 343 343 343 342 343 343
334 336 339 343 341 343 345 344 347 348 347 346 345 347 348 348 349 346 344 344 343 342 341 342 342 341 340 340 339 338 338 339 343 340 345 344 344 343 343 343 343 344 344 344 344 343 343 342 342
335 338 341 342 342 341 342 344 347 347 346 349 347 348 347 347 349 350 349 347 345 343 343 342 342 342 342 345 342 344 345 344 346 345 344 344 344 343 342 342 345 345 345 344 344 344 343 343 342
340 342 341 340 340 340 343 345 345 347 346 350 350 350 349 349 351 350 348 347 345 342 343 343 345 343 347 349 346 346 345 346 346 345 345 343 343 343 344 342 344 345 344 345 344 344 342 342 343
339 339 343 342 337 341 343 347 345 349 349 352 352 351 351 349 349 350 349 347 346 344 346 345 346 345 345 344 345 346 347 346 345 347 346 345 343 341 343 344 343 343 342 343 345 343 341 341 341
333 343 343 346 340 340 344 345 345 351 351 353 353 353 353 352 351 350 350 347 347 346 346 346 346 345 345 344 345 346 345 347 347 347 346 347 345 345 344 346 345 344 343 344 337 331 331 336 336
340 344 341 346 343 343 345 345 345 347 350 351 352 352 352 352 350 350 350 348 348 348 346 348 347 347 346 345 346 347 348 348 347 346 346 347 344 345 345 344 343 346 338 335 333 330 325 328 329
334 342 344 342 343 344 345 345 346 344 345 346 346 348 351 350 349 350 350 349 348 348 347 348 348 346 345 346 346 347 348 349 348 346 346 345 343 345 344 345 341 340 336 337 333 324 326 329 330
336 339 343 340 340 344 345 346 343 344 344 344 344 344 346 349 349 347 349 350 348 347 345 346 346 346 345 345 346 347 349 350 346 346 345 347 347 345 344 340 339 338 337 333 324 326 327 331 330
329 338 335 343 342 343 345 347 344 344 344 344 344 344 344 345 345 345 346 347 347 347 346 345 344 346 346 345 346 349 350 345 339 339 342 342 337 337 337 339 338 337 328 324 325 323 323 329 329
326 326 335 339 343 346 342 345 344 343 344 342 344 343 344 344 344 345 345 345 346 346 346 346 344 344 345 345 346 344 346 340 336 333 336 338 336 341 336 335 335 324 326 328 328 326 327 326 327
328 326 330 337 341 342 346 342 340 343 345 344 342 342 343 344 345 345 345 345 345 345 346 346 345 344 345 346 345 345 345 345 339 338 337 332 340 336 338 334 325 326 329 332 326 326 326 328 330
325 322 322 324 332 340 342 344 340 344 347 345 344 344 344 344 344 345 346 345 346 345 346 346 345 345 345 345 345 341 339 336 331 334 337 333 334 336 334 329 327 331 332 330 325 324 328 328 329
321 322 323 331 335 338 333 343 342 336 341 343 343 344 345 345 345 345 345 346 346 346 347 346 342 343 339 338 337 336 331 331 326 329 329 330 335 334 331 328 327 331 332 327 325 322 326 328 328
322 322 323 326 329 335 331 344 343 339 337 340 342 342 344 344 346 347 347 347 347 347 348 345 341 342 336 337 334 330 329 331 325 327 327 328 332 331 327 324 325 327 328 327 328 324 323 327 329
321 322 320 319 321 323 325 326 328 328 330 334 337 342 343 343 345 347 347 348 348 348 348 346 340 335 337 333 328 327 326 325 323 322 319 318 321 321 321 325 326 327 328 329 326 325 322 325 326
321 319 323 317 324 327 325 326 328 330 331 330 332 339 341 341 343 346 347 347 348 348 348 348 341 331 332 331 327 326 329 325 323 320 317 317 317 320 323 328 327 326 328 324 324 324 327 328 327
320 320 317 318 318 322 323 324 322 326 326 330 331 336 339 340 342 343 345 345 346 348 348 349 347 339 332 334 332 329 330 329 326 321 318 318 319 321 325 329 324 326 327 325 327 328 327 326 326
319 319 319 323 320 319 321 323 325 325 326 331 333 336 338 338 340 342 343 344 346 348 348 348 348 346 340 337 339 337 333 332 331 323 319 318 319 320 321 320 322 325 326 327 326 324 326 327 328

GFSSGP_850_thetae_021.txt.gz
Theta_e
346 345 347 350 349 347 350 349 346 348 349 349 348 347 349 349 347 350 344 343 343 345 346 344 344 344 346 346 345 345 343 342 341 341 338 332 331 330 331 333 332 332 335 335 335 335 335 335 336
349 348 349 354 348 350 352 347 349 347 350 350 350 350 349 349 347 345 345 345 344 344 345 345 346 346 346 346 346 344 342 339 338 335 332 332 332 331 331 332 330 333 336 336 335 336 336 336 336
349 348 355 346 348 351 351 348 348 348 350 350 349 348 347 348 347 347 346 346 348 346 345 343 344 344 343 343 344 343 338 335 335 333 332 333 332 332 333 332 332 335 334 335 335 335 336 336 336
348 352 347 345 349 350 349 347 350 351 351 350 346 348 347 347 347 345 347 348 347 346 345 344 344 344 343 343 343 335 333 333 333 332 332 332 333 334 335 333 335 333 334 335 335 334 335 335 335
349 345 342 348 351 350 347 346 348 351 351 349 348 348 346 348 342 346 347 347 346 344 344 344 343 343 341 342 340 333 334 333 332 332 331 331 332 335 334 334 333 334 334 335 335 334 334 334 334
347 339 346 346 351 350 346 347 351 352 351 349 348 347 349 344 341 344 346 347 344 343 345 344 343 342 337 335 336 335 333 332 332 330 331 332 334 334 332 331 332 335 338 337 334 338 337 336 336
344 342 345 349 351 350 348 347 351 352 350 349 348 347 349 347 339 340 341 342 345 345 345 344 345 345 338 334 334 335 335 333 332 332 334 334 332 332 333 334 338 339 338 338 337 341 341 339 340
341 339 347 348 347 347 348 350 351 351 350 349 347 348 349 348 338 339 340 343 344 343 347 346 345 339 336 337 338 338 337 336 335 335 334 334 333 335 339 339 338 340 342 341 342 341 342 340 341
341 341 347 348 348 346 349 350 351 351 349 348 350 348 347 347 338 341 343 344 343 342 343 342 335 336 338 338 337 336 337 338 337 336 335 334 335 338 337 342 345 344 343 342 341 341 341 341 343
343 341 343 343 345 346 349 350 350 351 348 349 351 350 345 345 342 343 346 346 345 342 341 340 338 335 339 338 337 337 336 336 335 335 335 335 337 343 341 344 344 341 341 342 342 342 341 342 342
343 342 340 340 344 346 349 350 349 347 348 348 351 350 348 348 346 345 344 344 341 340 340 340 340 338 336 335 336 338 337 337 335 334 335 336 340 344 344 343 344 344 343 343 343 343 343 342 342
341 342 340 340 344 346 349 349 347 345 346 347 350 349 349 349 348 346 345 340 340 340 340 340 340 339 338 337 336 337 337 337 335 334 336 341 342 344 343 343 343 343 343 343 342 342 342 343 343
335 338 340 341 342 345 347 347 345 345 349 349 350 350 349 349 349 349 347 345 341 339 339 339 339 340 339 338 336 336 337 336 335 335 342 344 344 343 343 341 343 342 345 343 342 342 342 342 342
335 339 343 342 343 345 345 347 346 346 349 349 350 349 349 350 350 350 348 343 342 340 339 340 341 340 338 338 338 338 337 338 341 342 344 343 344 345 344 342 341 344 344 344 345 344 343 342 342
339 344 344 343 343 345 344 348 349 347 349 349 349 349 350 350 351 348 343 344 343 343 342 342 342 342 341 342 342 342 343 343 344 346 346 346 345 344 343 343 342 342 343 343 342 344 344 342 341
342 342 345 344 343 344 344 347 347 349 349 348 348 349 349 350 350 350 345 346 345 343 343 341 342 343 341 345 346 345 345 345 346 344 345 343 343 343 340 342 342 344 343 343 343 342 337 335 338
342 344 345 347 343 345 346 347 345 349 349 350 349 348 350 352 351 351 348 347 345 342 345 344 345 344 345 344 345 345 347 347 348 347 345 345 346 345 344 343 342 345 345 343 337 333 331 326 326
343 345 345 348 345 345 347 348 347 349 350 350 350 349 351 352 352 351 348 348 347 346 344 345 345 345 345 344 344 345 346 347 347 346 346 345 344 344 343 343 343 343 344 337 335 335 326 323 324
341 343 344 346 345 346 347 348 347 349 350 350 351 351 351 351 352 352 348 349 349 348 347 346 346 345 346 345 345 346 346 347 347 348 346 345 344 344 343 344 344 342 339 336 336 328 323 335 329
342 343 344 344 345 345 346 346 347 347 350 350 350 351 351 352 352 353 351 350 350 348 348 347 346 347 346 346 345 345 346 347 349 349 347 345 344 344 345 345 340 339 337 336 330 322 328 324 327
340 343 345 344 345 346 346 347 348 347 347 347 348 348 348 350 350 350 350 350 349 350 348 348 345 347 347 345 345 346 346 347 349 348 343 344 345 344 337 334 338 338 337 330 322 322 323 332 327
333 339 343 344 346 349 346 349 348 349 349 348 346 346 346 346 348 347 347 347 347 348 348 347 346 345 345 345 345 346 346 348 347 341 337 338 340 332 338 340 337 334 329 323 325 323 324 323 327
332 334 339 343 346 346 348 349 346 348 351 349 347 346 345 345 345 345 346 345 344 345 346 346 346 345 343 344 345 345 346 346 348 344 335 336 338 334 341 333 336 330 323 327 328 323 320 323 326
329 332 334 340 342 347 344 348 343 348 350 348 346 345 345 345 345 345 345 344 344 344 345 346 346 346 344 343 344 345 345 346 346 344 335 338 334 334 341 337 333 326 329 331 327 323 323 326 327
330 333 336 339 344 340 339 348 346 342 345 346 346 345 345 345 345 345 346 346 345 345 345 345 345 346 345 343 344 344 345 344 344 339 330 333 330 331 334 334 331 327 332 331 326 324 324 326 327
329 331 334 338 338 337 336 345 344 343 341 341 343 345 345 345 345 345 345 344 346 346 346 346 345 346 344 341 342 343 343 342 341 333 327 331 328 332 335 332 328 330 331 330 328 327 324 321 324
329 330 332 332 328 335 337 339 336 338 339 339 341 341 344 345 345 345 346 345 346 346 347 346 346 346 342 338 340 340 340 342 338 327 326 326 326 329 330 328 325 328 329 328 328 326 325 323 324
327 328 328 329 337 334 333 334 333 338 339 341 341 340 342 344 346 346 346 345 345 346 347 347 347 347 341 333 336 341 337 339 338 337 326 323 318 323 323 322 327 329 327 327 325 322 324 326 329
325 326 327 330 331 336 335 333 335 338 339 339 339 338 339 342 344 345 346 346 345 345 346 347 347 347 347 335 331 337 338 342 337 328 329 321 319 319 322 325 328 330 325 327 324 324 327 328 326
325 326 328 332 333 330 332 333 332 334 336 337 336 335 337 340 342 344 347 348 345 345 346 347 347 347 347 347 334 333 341 343 334 330 327 321 321 323 325 327 328 323 324 326 325 327 328 326 327

GFSSGP_850_thetae_024.txt.gz
Theta_e
346 347 354 357 359 348 353 351 349 351 351 348 346 346 349 350 353 355 349 348 345 346 345 342 342 343 343 341 342 344 342 339 339 336 335 333 332 332 333 333 332 335 335 335 335 336 336 336 336
355 352 354 355 351 349 352 349 350 350 349 349 349 349 349 351 349 348 349 349 351 349 348 346 344 344 343 344 344 343 342 342 340 338 332 331 331 331 333 332 331 335 335 335 335 336 336 336 337
353 353 356 347 346 347 348 348 350 350 349 348 350 349 349 349 348 349 349 349 350 352 350 346 346 346 346 345 344 342 339 337 336 333 331 332 332 332 333 331 334 335 334 335 335 335 336 335 336
352 355 351 343 344 346 345 348 349 351 351 349 348 350 348 348 349 350 350 351 351 351 353 344 345 345 345 345 344 337 334 334 332 332 332 332 333 334 334 333 334 334 334 335 334 334 334 334 334
353 348 341 340 345 345 346 347 349 351 350 348 348 349 350 350 349 351 352 351 350 350 352 345 343 342 342 342 334 332 332 332 332 332 332 333 333 335 334 333 332 334 335 337 335 337 335 334 334
351 344 337 338 344 345 345 346 349 350 351 349 348 350 352 349 351 352 351 350 350 351 350 345 342 342 343 338 333 333 333 332 332 331 331 331 334 334 332 331 333 336 338 337 336 340 340 340 338
347 345 341 339 343 345 345 347 349 350 350 348 346 351 351 350 351 351 350 350 349 352 350 350 348 344 340 342 334 334 332 332 331 331 331 334 333 332 332 334 338 339 340 340 341 342 340 340 342
346 344 344 340 342 344 345 346 348 348 350 347 346 349 351 349 350 349 349 349 350 350 352 352 351 349 345 337 334 334 334 332 332 333 335 333 332 334 339 340 342 343 342 342 341 341 342 340 340
343 344 344 343 341 345 345 348 348 348 350 348 348 345 347 347 348 347 348 349 350 351 351 353 354 349 349 349 344 338 337 335 334 335 334 335 346 347 347 346 344 343 343 342 341 341 340 342 344
344 345 342 342 342 344 345 346 349 349 348 348 350 346 347 347 347 348 348 349 349 350 353 349 349 349 350 349 346 347 347 346 347 348 346 347 347 346 344 345 343 342 342 343 342 342 343 346 347
345 346 342 342 343 343 346 346 346 345 347 347 350 349 348 347 347 348 348 349 349 350 349 349 348 350 350 349 349 348 348 348 347 337 339 348 348 349 350 349 350 350 348 348 349 349 348 348 348
345 341 339 341 344 343 346 345 345 344 343 345 348 349 347 346 346 346 347 348 349 350 350 350 350 349 349 349 348 348 348 348 347 346 335 343 347 349 350 349 350 346 350 346 349 349 349 350 350
342 339 340 339 343 344 345 346 343 345 348 345 348 348 347 346 346 345 345 346 348 349 350 350 351 351 351 349 349 348 349 347 347 347 345 347 349 350 350 350 346 348 348 350 349 349 349 350 349
339 338 340 340 342 345 346 347 343 344 349 347 348 348 347 347 347 347 347 347 347 348 349 350 351 349 348 349 348 348 348 347 347 347 347 344 347 350 345 346 349 348 349 350 348 345 347 348 351
336 340 343 342 344 347 345 349 349 346 349 348 348 348 347 347 347 349 349 349 349 349 349 349 351 351 349 349 348 347 348 348 348 349 350 345 344 344 344 347 346 348 350 344 346 346 349 347 346
338 338 343 346 346 347 346 350 348 348 349 349 348 347 347 347 348 349 349 349 349 349 350 350 350 351 350 348 346 349 350 351 350 351 350 349 346 344 344 343 345 347 348 350 348 347 344 341 339
339 341 341 348 345 347 348 347 348 349 349 350 348 346 347 348 349 350 348 350 350 350 351 351 350 350 351 344 350 351 352 349 352 352 349 350 349 346 347 345 349 346 348 347 348 343 343 338 335
341 341 340 344 347 348 348 348 348 349 349 349 349 347 347 348 349 350 350 350 351 352 351 352 350 352 351 352 349 350 349 349 351 352 350 350 347 349 350 349 348 343 349 348 345 341 338 334 336
339 340 340 342 347 348 348 348 348 349 349 348 349 349 348 348 348 350 351 351 352 353 353 353 353 351 352 353 353 352 352 351 353 353 352 351 350 345 350 349 348 344 346 346 342 339 333 332 337
337 339 340 343 347 347 347 348 347 347 350 348 348 349 349 348 349 350 351 351 352 354 354 354 353 350 348 354 354 353 353 352 351 353 353 350 351 350 348 348 350 345 343 341 343 338 331 334 337
337 340 340 344 347 347 346 348 348 345 346 350 348 347 348 349 348 349 350 351 352 353 355 355 349 348 347 350 354 354 354 353 353 351 350 350 349 349 346 346 345 341 340 339 338 336 335 333 335
338 338 340 343 347 349 347 347 345 346 348 349 350 347 347 349 350 349 349 350 352 352 355 355 349 347 347 347 353 355 352 350 347 348 347 346 348 349 346 335 338 340 340 337 334 334 328 328 333
335 336 338 341 345 345 348 350 346 346 348 349 349 348 345 345 345 346 347 347 349 351 352 355 351 347 347 349 350 354 352 350 350 349 350 340 346 344 344 341 336 332 336 334 324 325 326 333 334
332 334 337 339 342 346 345 347 346 346 349 347 347 348 345 343 343 343 343 344 346 348 349 352 353 346 346 346 344 346 352 352 349 351 351 345 343 343 338 341 338 337 333 330 331 324 322 323 329
330 334 341 343 343 345 344 344 344 342 341 344 343 346 347 345 343 343 343 342 344 346 348 351 353 346 346 346 344 341 344 350 354 354 351 343 341 341 338 339 336 336 329 327 330 327 334 331 334
329 334 339 342 341 342 341 342 342 342 341 339 339 341 345 346 345 344 345 345 346 347 349 351 350 345 345 346 345 341 342 353 354 354 350 345 340 340 341 333 335 332 327 327 328 333 335 335 334
329 334 335 338 338 340 339 340 339 338 340 339 339 340 342 346 346 346 346 347 347 349 350 346 345 344 345 345 345 343 341 345 353 354 350 345 337 339 334 333 333 330 329 328 329 333 336 335 334
330 331 335 337 341 341 338 339 340 339 339 338 338 338 340 342 345 346 347 347 348 349 351 351 345 344 345 345 345 342 342 342 347 344 342 342 326 326 324 328 325 324 327 327 326 335 335 334 332
327 331 334 335 336 339 339 338 337 336 337 336 336 335 336 338 343 346 347 347 349 350 351 353 350 345 345 346 346 340 339 343 342 340 339 333 327 322 320 319 320 324 328 328 326 328 332 335 334
328 329 333 337 339 337 337 338 336 337 336 335 335 334 334 336 340 343 346 348 348 351 351 353 354 354 345 345 346 345 338 339 336 338 336 331 326 321 319 321 323 321 324 332 335 331 334 335 334

GFSSGP_850_thetae_027.txt.gz
Theta_e
345 350 358 358 364 352 353 352 349 352 351 348 347 349 351 351 352 351 345 344 348 348 345 343 340 339 339 338 337 336 335 333 334 333 333 333 331 333 333 332 335 336 335 335 335 336 335 336 337
353 356 357 357 358 355 354 350 351 351 349 347 349 350 350 352 350 349 348 350 349 348 348 344 341 341 341 342 343 338 337 334 334 333 333 331 331 333 332 331 335 335 335 335 335 335 335 336 336
358 356 356 360 353 349 351 349 351 349 349 349 349 349 350 349 350 351 350 349 350 350 349 343 342 342 343 343 342 341 341 339 337 332 331 331 332 334 332 333 335 334 334 334 334 334 334 334 334
356 355 356 349 345 347 350 349 349 349 348 348 349 350 348 349 350 350 351 351 351 351 351 345 346 345 344 342 338 339 339 336 332 331 332 332 334 334 333 335 333 334 335 335 334 335 333 334 334
353 354 350 341 344 347 348 347 348 349 348 348 349 351 349 350 350 351 350 350 352 352 351 346 346 345 344 343 338 337 334 331 331 332 332 334 335 334 334 332 333 334 338 336 336 339 338 337 337
352 348 340 339 341 344 347 347 347 348 348 348 349 351 351 350 350 350 351 350 352 349 351 347 343 343 343 341 333 332 332 331 331 332 332 332 335 334 332 332 334 338 337 338 340 342 339 339 339
351 347 340 340 341 342 344 344 346 347 346 348 349 352 351 350 350 350 350 350 349 349 350 350 347 342 339 333 333 333 332 331 331 331 331 334 334 332 335 336 339 339 341 340 341 342 338 341 342
348 347 341 342 341 341 342 344 343 345 347 345 349 352 351 350 349 349 350 351 349 350 350 350 349 350 347 333 333 332 332 332 331 331 334 333 332 335 341 347 344 343 342 342 340 340 340 339 340
346 347 347 341 343 342 341 343 344 345 346 345 346 348 349 349 348 349 349 349 353 351 351 351 349 348 349 348 340 334 334 332 332 335 334 334 349 349 348 349 343 342 340 340 340 340 340 346 348
347 345 344 342 342 344 341 341 344 345 345 346 345 348 349 349 348 347 347 350 349 350 352 350 351 349 349 348 346 349 348 347 345 348 350 343 350 349 346 347 343 344 343 347 347 345 348 348 349
344 348 344 341 342 342 342 340 343 344 345 345 346 348 349 349 348 347 347 347 348 351 350 351 351 349 349 350 348 349 349 349 349 350 351 349 350 349 350 350 349 350 350 351 348 349 348 348 348
346 344 339 342 340 342 343 340 340 341 342 343 345 347 347 348 348 347 347 348 349 349 348 348 349 350 350 350 348 348 347 347 347 349 348 350 349 348 349 349 349 348 346 349 350 348 350 349 348
345 342 339 339 340 342 343 341 339 341 341 342 345 347 346 347 346 346 347 348 349 349 348 349 350 351 351 353 349 348 347 347 347 348 349 348 350 349 348 351 349 346 347 349 349 348 348 348 350
341 341 340 340 341 342 342 343 341 343 343 343 346 346 346 345 345 345 346 347 349 350 350 350 351 353 352 351 353 350 350 349 347 348 347 348 349 350 350 350 348 350 347 349 350 349 349 348 346
340 341 341 340 341 342 343 345 342 344 344 344 345 345 344 344 345 345 346 347 348 349 350 351 352 352 353 352 352 351 350 348 348 347 350 350 352 350 347 349 350 347 348 349 347 349 348 345 346
339 341 343 342 341 344 344 347 346 347 345 344 345 345 345 345 345 346 346 347 347 348 349 351 351 351 353 353 353 352 350 350 349 349 350 352 348 350 350 350 350 348 349 349 350 348 345 343 341
339 342 341 343 341 346 345 353 346 347 346 344 344 345 345 345 346 346 347 348 348 350 350 351 351 351 353 354 353 352 350 351 353 351 349 351 349 352 351 349 349 350 350 350 348 346 343 340 334
342 342 342 347 342 346 346 349 348 347 347 345 344 344 345 345 346 347 347 347 349 350 351 352 352 351 352 353 353 354 354 354 353 350 350 349 352 352 350 348 350 349 348 350 347 344 342 336 337
341 342 342 343 341 346 346 346 347 348 348 346 345 344 344 344 346 347 348 347 349 350 352 353 353 351 353 353 354 352 352 351 352 350 351 352 349 349 350 348 349 348 347 346 346 342 333 335 336
338 342 342 340 343 344 346 347 346 349 349 347 346 345 344 343 344 347 349 348 350 351 353 354 355 354 354 353 352 351 349 350 353 353 348 355 352 353 348 350 348 348 348 344 343 340 336 333 339
337 340 341 340 346 345 346 347 346 346 347 348 347 346 345 344 344 347 349 350 350 351 354 355 355 355 354 353 352 353 354 351 351 347 347 347 350 347 347 353 348 351 340 343 343 338 336 334 334
336 338 339 339 347 348 344 349 347 346 346 348 348 348 345 345 344 345 348 350 350 351 354 355 356 355 355 352 355 352 352 349 347 346 347 347 348 347 351 351 347 345 346 341 337 337 329 330 334
335 337 339 340 343 347 344 345 345 344 346 345 348 349 347 346 345 344 345 348 350 350 352 355 356 356 355 355 352 355 352 348 349 348 351 348 349 347 346 345 348 347 340 339 330 338 335 336 334
334 336 339 339 341 346 346 348 346 346 346 345 346 347 348 346 346 346 345 346 349 350 351 353 356 357 353 353 351 352 354 350 350 349 352 348 345 347 346 347 346 345 342 339 339 339 336 331 336
332 336 339 340 342 343 345 347 350 344 344 344 343 344 347 347 345 346 346 345 347 348 350 351 354 355 353 350 356 349 349 355 351 355 351 349 344 343 345 346 342 340 336 341 339 333 334 337 337
331 334 338 342 341 340 341 346 344 344 342 342 340 341 343 347 346 345 345 344 345 346 348 350 351 353 350 351 350 351 346 355 354 351 351 349 344 342 341 336 333 337 343 337 336 335 336 338 337
330 334 334 337 338 340 341 341 341 342 342 342 341 340 339 344 346 346 345 345 343 344 347 348 349 354 349 355 350 347 347 345 351 351 350 352 346 342 341 335 335 329 337 334 337 327 338 337 337
328 332 334 337 343 344 340 341 343 343 341 341 341 338 337 339 343 346 346 345 345 344 344 348 349 354 347 347 348 348 347 345 344 352 354 351 348 341 342 333 322 325 324 330 320 333 338 336 337
327 330 332 334 337 341 341 342 340 342 341 340 339 337 337 337 339 344 346 347 347 346 346 348 351 353 352 348 348 349 349 349 345 350 352 348 351 343 332 324 321 319 327 326 324 319 330 338 337
329 328 330 340 339 337 340 339 339 338 339 338 338 337 336 336 337 339 344 346 348 349 348 348 350 354 357 356 348 347 347 346 345 340 350 348 350 340 330 323 319 320 332 324 323 323 336 336 337

GFSSGP_850_thetae_030.txt.gz
Theta_e
347 354 356 354 360 359 357 353 353 353 351 349 350 351 352 351 348 355 345 346 346 346 345 342 341 339 335 334 331 331 331 332 333 333 332 332 333 332 331 335 336 335 335 335 335 335 336 336 339
346 356 352 348 360 360 356 353 355 350 348 350 350 350 348 349 347 348 349 348 349 347 345 341 339 338 337 335 332 332 333 334 333 333 331 332 333 331 331 335 335 335 335 334 334 335 334 335 335
353 356 345 353 355 357 356 353 351 350 350 350 350 349 348 348 348 349 349 349 348 347 346 339 339 339 339 338 336 334 333 333 333 331 331 331 333 332 333 335 334 334 335 335 334 333 333 333 334
356 357 357 361 350 351 353 351 349 349 349 348 348 351 351 350 349 350 349 348 349 349 342 340 341 342 343 342 340 340 338 336 331 331 332 332 334 333 335 333 333 335 337 335 338 338 335 334 339
359 359 361 347 349 350 348 348 348 348 349 349 348 352 350 349 350 350 350 350 350 351 343 343 344 343 340 339 339 339 337 332 331 332 332 334 334 334 333 332 333 337 336 335 341 340 339 338 337
358 354 359 340 342 348 348 348 346 347 349 349 349 350 351 351 350 351 351 350 349 351 349 346 344 343 341 337 336 334 332 331 332 332 332 334 334 332 332 333 338 339 340 338 341 337 340 338 340
354 355 354 339 340 343 344 347 346 345 348 348 350 351 349 351 351 351 350 351 350 352 350 345 344 343 341 334 333 332 331 331 331 331 331 334 332 334 339 338 340 342 340 341 339 338 338 339 339
351 351 350 343 340 340 341 344 346 345 348 349 348 350 351 349 350 351 350 350 349 351 349 348 346 341 335 333 332 331 331 331 330 331 334 332 337 342 347 348 342 341 340 340 339 339 339 344 342
351 349 348 344 342 340 342 341 346 345 344 349 348 348 349 347 351 348 349 350 351 349 349 351 349 346 341 333 333 332 331 331 331 333 334 339 349 349 351 350 343 341 340 345 342 340 346 348 349
345 348 347 344 343 341 341 341 343 344 343 347 348 348 347 348 347 348 351 352 350 349 350 349 349 350 348 348 334 334 334 333 335 339 343 344 351 351 344 346 345 348 349 348 348 347 347 343 348
341 347 343 344 343 341 340 342 341 343 344 343 348 348 347 347 348 351 350 349 352 352 352 350 349 345 347 351 345 345 346 349 346 350 349 348 351 349 350 350 353 348 340 345 352 342 348 351 349
345 340 341 343 343 341 340 339 343 341 343 344 347 348 348 346 345 345 350 348 352 350 348 350 351 345 349 352 346 349 349 348 349 349 344 348 344 346 347 350 348 349 350 349 346 350 348 346 346
348 345 345 340 339 341 341 339 338 342 342 344 347 349 348 347 345 345 345 346 352 348 350 352 352 348 349 352 346 349 348 347 347 348 348 343 351 350 347 346 346 349 348 346 348 349 345 346 347
337 344 343 340 340 342 343 340 337 340 341 345 347 347 347 347 346 345 346 347 349 349 348 349 349 349 345 351 350 347 349 350 347 349 348 347 345 352 350 351 347 348 348 350 349 347 344 345 346
335 341 342 341 340 342 341 342 340 340 340 344 346 346 345 346 345 346 346 347 349 349 348 350 351 351 346 346 350 348 350 348 350 345 347 349 347 346 346 346 347 350 349 348 347 347 345 342 345
334 338 344 341 339 341 340 350 341 343 339 343 344 345 344 345 345 346 346 348 349 350 350 350 351 354 353 351 353 347 347 350 347 348 349 349 349 347 346 346 349 350 348 349 348 347 345 343 342
334 339 342 342 341 342 343 350 346 345 340 342 343 344 344 344 345 345 346 347 348 349 350 351 351 351 353 349 350 352 353 348 351 348 351 349 349 348 348 348 349 347 346 348 350 346 345 343 334
334 339 340 344 343 341 348 347 343 341 343 341 342 343 344 344 344 345 346 347 348 348 349 351 351 351 352 352 349 353 349 350 349 353 353 349 350 348 349 348 348 349 349 348 348 346 341 335 335
334 339 340 344 342 342 349 348 347 341 345 342 341 342 343 344 344 346 347 348 348 349 350 350 352 351 354 353 353 349 351 349 347 344 352 351 348 348 347 346 345 349 347 347 344 344 333 334 336
335 338 342 344 345 346 344 351 349 346 345 344 343 342 342 342 344 345 347 348 348 349 350 351 352 352 351 353 350 350 349 350 351 351 349 349 350 348 347 342 350 348 347 346 345 341 329 334 339
334 337 340 343 345 343 343 344 346 348 347 345 345 344 343 342 342 346 347 348 348 349 351 351 352 353 352 351 351 353 355 351 355 355 352 351 349 346 350 347 345 349 345 346 344 339 334 334 335
334 335 338 342 344 346 343 346 349 347 351 347 345 344 345 343 343 343 347 349 349 349 351 352 352 352 352 349 355 351 350 353 349 346 346 347 350 348 347 343 348 347 340 344 338 335 328 328 336
334 335 337 338 342 346 348 348 348 349 349 350 346 345 345 346 344 343 346 348 349 350 353 353 354 353 351 346 356 355 353 347 350 347 348 348 347 343 350 350 347 344 345 339 337 337 325 336 334
333 335 336 337 339 345 347 344 348 349 349 346 346 343 347 345 346 344 344 347 350 350 353 354 355 354 352 351 348 356 357 351 350 349 348 350 346 343 347 346 345 346 337 339 333 328 321 330 334
331 334 338 340 342 341 343 349 349 346 346 345 344 344 347 348 346 346 345 346 350 351 351 355 357 355 354 353 350 348 353 356 349 352 351 353 347 346 343 345 345 341 333 336 327 321 335 323 327
330 332 338 342 343 342 341 344 349 347 344 342 342 343 345 347 347 348 347 346 349 350 351 352 356 356 355 351 352 349 347 351 350 348 355 351 349 345 345 344 340 337 331 330 320 317 320 324 332
329 331 332 335 337 340 341 341 343 345 344 345 344 342 341 344 347 347 348 348 348 350 351 351 354 356 355 353 349 350 345 346 346 346 352 354 348 346 343 343 341 326 326 324 325 324 327 327 334
329 330 331 333 340 343 341 343 345 349 346 344 343 343 341 341 346 347 346 348 348 348 350 351 351 353 355 353 348 346 346 344 345 345 350 349 353 347 344 342 340 328 325 325 326 324 327 328 329
328 328 329 332 336 340 342 343 343 345 348 347 344 342 341 339 344 347 346 346 347 346 349 350 351 352 354 354 348 345 346 346 344 348 349 351 350 351 343 342 340 325 323 324 329 325 326 336 331
329 330 329 331 340 336 338 341 339 346 346 346 343 341 340 338 338 340 346 347 347 346 347 349 351 352 353 353 351 343 345 348 347 343 348 348 350 350 350 342 334 328 322 323 331 324 327 335 328

GFSSGP_850_thetae_033.txt.gz
Theta_e
350 351 351 350 356 357 357 352 352 353 353 351 351 350 349 349 348 350 346 345 344 344 344 343 341 339 338 337 330 329 331 332 333 331 331 332 331 333 335 334 334 334 334 334 335 334 335 336 339
351 353 351 348 359 360 357 352 354 350 351 349 348 348 348 349 347 345 347 346 345 343 342 341 340 335 333 333 329 329 331 332 332 331 331 332 330 332 334 333 334 334 334 333 333 333 333 333 335
346 355 342 352 356 358 359 352 351 349 350 350 348 347 347 347 348 347 346 345 344 342 341 339 336 334 331 331 331 331 332 332 332 330 330 332 331 333 334 333 334 335 335 335 336 332 333 335 336
352 353 355 360 355 353 352 351 350 350 350 350 350 349 348 348 347 346 348 349 345 341 339 338 337 337 335 333 333 333 332 333 331 329 330 332 333 334 332 332 334 337 336 337 340 338 336 337 337
354 353 358 361 352 351 349 349 349 350 351 350 350 350 350 347 348 348 349 348 343 340 339 339 340 341 339 337 337 335 335 331 330 330 332 334 333 332 331 333 338 338 338 340 340 338 338 337 340
356 351 362 359 349 350 347 348 350 349 351 350 351 350 350 348 348 348 347 347 344 340 339 341 342 341 341 340 340 337 331 330 331 332 333 334 332 335 336 336 338 341 339 339 337 339 340 341 341
357 356 358 353 346 348 348 347 349 349 350 350 350 350 351 350 349 349 347 347 346 342 343 343 341 339 338 336 334 331 330 331 331 331 333 332 334 343 346 343 342 341 340 339 339 336 340 340 339
350 348 353 344 341 349 346 345 347 349 350 350 349 352 351 350 348 350 350 349 347 344 345 344 341 338 334 333 332 331 330 330 330 331 333 334 347 346 348 344 340 340 342 341 339 340 345 345 345
339 349 352 346 340 340 344 345 348 349 349 349 349 351 350 350 348 350 351 352 351 344 341 342 340 336 332 331 330 330 330 330 331 333 334 347 348 347 344 347 345 347 345 345 344 346 346 342 347
343 347 346 343 343 338 345 346 346 349 348 348 349 350 351 349 345 349 351 351 350 347 343 341 340 333 332 332 331 331 331 331 332 334 337 348 349 348 348 346 348 348 343 346 347 343 347 345 345
343 348 343 340 342 341 340 342 343 347 350 348 349 349 351 351 349 350 350 350 349 348 350 344 342 337 336 333 335 333 336 338 340 340 339 347 349 350 350 345 337 346 347 347 346 347 344 347 347
344 343 342 341 342 343 338 341 342 342 347 349 348 349 350 348 347 344 347 350 348 348 350 349 344 345 345 346 346 340 346 345 345 348 347 340 347 347 349 347 345 350 348 346 345 347 344 347 345
342 339 339 340 340 340 339 341 342 343 348 348 346 346 349 347 346 350 347 348 350 348 350 348 346 346 348 350 347 347 348 347 348 348 348 346 343 347 346 346 347 347 348 348 347 346 345 344 345
344 342 342 341 343 341 338 337 342 344 348 348 347 346 347 347 349 351 349 351 351 347 351 350 348 345 348 351 348 350 350 348 350 349 349 348 346 343 348 346 345 346 347 349 346 345 345 343 344
334 342 343 341 341 340 339 337 340 345 347 349 348 348 347 345 345 346 349 350 350 348 349 350 351 350 345 352 349 346 348 350 347 348 346 347 348 344 342 345 345 349 349 348 347 346 344 342 342
329 329 330 340 336 340 340 345 339 342 347 348 348 348 348 347 345 345 347 347 348 346 350 350 350 349 347 347 350 346 347 349 347 348 348 349 348 347 347 346 344 345 347 346 346 345 344 343 342
326 328 329 340 339 340 343 345 342 341 345 346 347 347 347 347 346 345 346 347 348 348 348 350 350 350 349 344 344 346 344 345 349 348 348 350 348 347 347 346 347 345 346 344 344 346 345 343 331
326 328 329 340 340 343 343 344 341 343 342 344 346 345 345 345 346 346 346 347 348 348 349 349 350 351 351 351 348 344 346 349 351 350 351 348 349 347 347 346 346 346 347 348 347 347 345 330 333
328 329 330 338 342 344 346 343 340 339 339 340 344 344 345 344 344 345 345 347 348 348 349 350 350 351 352 352 351 346 346 347 348 345 348 352 350 350 348 345 347 344 349 345 342 341 339 333 334
327 329 330 343 342 341 345 345 341 341 340 340 342 343 343 344 344 345 345 346 347 347 348 348 349 350 351 353 352 350 345 348 345 345 348 347 349 347 345 344 345 345 347 346 343 342 327 336 337
327 328 331 344 343 342 342 346 343 339 341 342 341 343 343 344 344 344 345 346 346 347 348 348 349 350 350 353 353 351 348 348 349 351 351 349 348 349 346 345 343 345 345 345 343 342 328 335 335
326 329 332 342 342 346 343 353 347 343 344 343 343 341 342 343 343 344 346 346 348 348 348 349 350 351 351 351 351 350 349 356 353 354 351 349 347 349 344 346 343 343 344 343 343 340 318 330 336
327 330 332 332 341 343 343 346 348 347 349 345 343 341 341 342 343 344 345 346 347 348 348 348 350 350 350 350 351 347 349 352 351 350 345 348 352 350 346 346 342 344 342 339 340 335 318 324 335
326 328 329 331 333 343 342 346 343 341 349 346 343 344 342 342 342 342 345 345 347 348 348 348 349 350 350 350 347 348 349 349 348 346 348 347 348 347 344 345 347 345 338 345 337 333 320 317 329
324 323 328 331 333 334 341 343 344 340 342 347 345 344 344 343 342 342 345 347 348 348 348 348 349 350 351 351 344 346 353 352 347 351 350 349 348 349 342 343 349 338 341 337 327 321 318 319 321
323 323 326 331 334 334 334 345 343 342 342 344 345 345 344 345 344 343 343 346 348 348 349 350 351 351 351 352 348 343 352 353 351 352 353 352 351 350 343 342 340 340 341 326 323 321 319 320 320
324 324 324 325 329 332 334 334 339 342 341 341 341 342 342 342 346 345 344 344 347 348 349 350 352 352 352 352 353 346 342 351 350 349 350 352 353 350 347 345 343 336 328 326 322 320 320 324 328
324 325 324 325 327 332 333 334 339 343 342 342 341 342 342 342 345 347 345 344 345 347 348 350 350 351 352 352 353 352 344 344 345 346 348 348 353 351 349 347 344 342 339 324 322 322 323 325 325
323 324 322 324 327 328 332 333 334 340 342 343 342 342 343 343 343 346 347 346 345 346 349 349 350 351 353 353 352 352 351 341 345 345 345 344 353 352 348 347 344 342 341 332 321 326 325 324 328
326 323 321 324 327 328 327 329 332 339 342 342 342 341 342 342 343 343 347 348 347 346 349 349 350 351 351 352 352 351 351 347 342 344 345 342 342 351 353 352 347 343 341 330 321 327 328 324 330

GFSSGP_850_thetae_036.txt.gz
Theta_e
350 349 351 348 355 355 358 354 352 353 352 351 350 350 349 348 347 348 345 345 343 344 344 343 342 341 334 332 330 331 333 332 330 332 330 331 334 334 334 334 334 334 333 334 333 334 335 339 339
352 351 347 347 358 358 356 351 352 352 349 347 347 347 347 347 346 345 345 343 343 343 343 342 342 340 333 330 330 332 332 331 331 331 330 329 333 333 333 333 334 334 333 333 332 333 333 335 339
352 350 344 352 355 356 356 351 352 349 348 347 346 346 346 346 346 346 343 343 343 343 342 340 337 338 333 329 329 331 332 331 330 330 330 330 333 332 333 333 336 335 335 338 334 333 336 336 339
352 348 351 357 358 353 352 351 350 350 349 347 347 348 348 348 346 345 344 343 342 341 341 336 333 334 331 329 330 331 332 331 329 329 331 332 333 331 332 335 337 336 338 339 338 337 337 339 341
353 345 356 359 356 350 349 350 349 350 350 348 347 349 348 345 344 345 344 341 341 340 336 335 333 331 331 330 331 332 332 330 329 330 333 333 331 332 334 337 340 338 340 337 338 338 340 340 342
354 347 356 358 354 350 349 350 350 350 350 349 349 348 348 347 347 347 343 341 340 338 337 337 336 334 332 332 332 332 332 329 330 332 333 332 340 337 340 341 340 340 339 338 339 340 341 340 341
349 345 354 354 354 352 350 351 350 350 350 350 347 348 348 348 348 347 345 342 339 338 339 340 340 338 337 337 336 335 329 330 331 333 332 335 346 345 342 340 340 340 339 338 338 341 339 339 342
345 344 350 351 350 351 348 350 349 349 350 349 346 349 349 347 347 346 346 344 339 339 340 341 340 341 339 338 335 330 330 330 331 332 334 344 347 347 345 341 341 344 341 339 339 344 345 345 344
340 349 351 348 347 348 348 349 349 349 349 346 350 347 346 347 348 349 349 348 342 341 342 340 337 338 335 332 330 330 330 330 331 332 342 346 346 347 344 346 346 346 346 343 345 346 340 345 344
343 345 347 343 343 342 346 348 349 350 350 350 349 348 348 348 350 349 349 348 345 344 344 340 337 333 333 331 330 329 329 330 331 334 342 348 347 347 344 346 347 342 344 345 345 344 347 345 345
344 345 343 343 341 344 348 349 348 350 350 350 350 350 348 350 351 350 349 349 348 342 341 340 336 332 331 330 330 330 331 331 333 334 341 346 347 346 345 345 345 345 346 346 344 344 343 345 344
346 343 342 342 341 341 345 349 349 348 348 346 347 346 347 350 351 350 351 351 349 343 338 337 335 332 331 332 337 333 334 342 343 347 344 340 344 346 347 347 347 346 348 346 345 346 344 344 346
343 343 342 342 342 341 342 345 348 348 348 349 349 348 345 347 349 350 349 350 348 345 343 342 337 334 332 343 342 341 344 344 345 346 346 341 346 347 348 346 345 346 346 347 346 345 345 343 346
342 341 341 342 341 341 340 341 344 348 348 349 350 349 348 346 348 349 350 349 347 343 341 346 342 341 339 343 347 346 348 346 347 348 349 344 346 344 346 346 344 347 348 346 344 345 344 343 342
341 337 341 342 340 340 339 345 349 349 348 349 350 350 349 348 349 349 348 349 345 343 346 348 343 344 346 349 345 347 349 349 348 349 348 348 347 346 343 342 345 347 348 346 346 346 345 341 341
325 334 341 340 340 338 336 346 348 348 346 347 349 349 348 347 346 345 346 344 346 348 348 348 345 346 345 350 349 347 349 349 348 348 347 347 348 349 346 347 343 343 344 345 346 345 343 342 341
321 323 326 327 335 340 340 341 347 347 347 346 345 346 346 346 347 347 350 347 349 347 346 348 350 349 348 346 347 346 346 349 347 347 347 348 349 349 347 343 345 344 344 344 345 345 345 342 331
322 325 326 331 341 341 340 341 344 347 347 347 347 346 346 345 346 346 348 348 349 347 348 348 350 351 350 348 345 348 346 346 346 346 348 348 348 347 348 343 344 344 346 344 344 345 345 335 328
322 323 324 328 336 341 340 340 343 345 347 347 347 347 347 346 345 345 346 347 349 347 346 346 349 349 349 349 348 343 344 343 345 348 349 351 349 348 349 348 345 342 344 344 341 342 338 329 333
322 323 324 339 342 342 342 341 339 338 345 346 346 346 346 346 346 346 345 346 347 347 348 348 347 349 350 349 350 350 347 340 343 347 346 348 348 348 346 342 342 345 344 345 343 342 331 327 335
322 322 324 328 341 341 343 344 341 338 338 340 345 345 344 345 345 345 345 345 346 347 348 348 348 348 349 350 351 351 350 343 344 346 346 345 346 346 347 345 342 344 344 343 343 340 337 332 334
322 324 325 328 336 341 339 344 343 341 338 337 340 343 343 344 344 344 345 346 346 346 347 347 348 348 349 349 350 352 351 344 346 347 347 348 349 348 349 346 344 343 342 345 343 341 322 328 334
323 324 325 328 338 339 341 341 340 343 343 338 339 340 342 343 343 343 344 345 345 345 346 346 347 348 348 348 349 350 351 346 346 348 350 350 350 350 350 346 342 339 341 344 342 338 330 323 332
324 322 323 325 330 339 338 343 343 344 343 341 340 340 341 342 342 343 343 344 345 345 345 346 347 348 348 349 350 349 348 348 347 350 350 348 345 348 350 345 345 341 341 343 338 337 333 324 330
322 319 321 323 324 328 335 343 342 341 343 342 342 342 341 341 342 342 343 344 345 345 346 346 347 348 348 349 349 349 347 345 347 352 350 347 345 347 349 345 344 337 342 335 335 331 326 318 321
319 320 320 321 325 326 328 342 341 338 340 343 344 344 343 340 341 342 343 343 344 345 346 347 347 348 348 348 349 349 346 342 345 348 349 347 349 348 347 348 343 336 338 331 330 325 320 319 319
321 319 319 319 324 326 328 333 334 337 337 341 344 345 343 341 340 341 341 342 343 345 345 346 347 347 347 347 349 350 347 340 345 346 346 349 350 349 350 345 340 335 332 328 324 322 320 320 320
323 318 320 315 320 322 324 330 332 336 339 339 343 344 343 341 341 340 341 341 343 343 344 345 346 347 347 347 348 350 350 341 340 345 348 351 352 352 351 349 346 343 339 329 323 321 321 324 322
322 320 318 318 319 323 323 325 326 329 336 339 342 345 343 341 342 342 341 341 343 344 346 345 346 347 348 348 349 350 351 348 341 341 348 350 350 350 351 351 349 347 344 342 339 324 322 328 323
325 323 319 322 319 320 324 326 328 327 334 338 339 342 342 341 342 344 343 345 342 343 345 346 346 347 347 348 349 350 351 351 347 341 340 344 348 349 350 352 350 348 346 343 342 339 322 329 325

GFSSGP_850_thetae_039.txt.gz
Theta_e
348 346 350 348 353 355 357 354 350 352 352 349 347 347 348 346 347 348 345 344 343 343 342 341 341 339 331 333 335 333 331 330 332 330 333 333 333 333 333 333 333 333 333 333 333 335 339 339 338
348 349 347 345 356 357 355 351 352 351 347 347 347 346 346 347 345 345 345 343 344 343 341 342 341 336 332 332 333 332 330 331 330 329 331 333 332 333 333 334 334 334 334 332 332 333 336 339 339
350 348 344 350 356 357 357 350 351 348 347 346 346 346 346 347 345 345 343 343 343 342 342 342 340 335 331 332 332 331 330 330 330 329 331 333 332 333 334 335 334 338 339 336 334 337 336 340 339
353 348 350 354 356 353 352 351 349 348 346 346 347 348 347 347 345 344 343 343 343 342 342 342 340 332 330 330 331 331 330 329 330 330 332 332 331 332 337 338 337 339 337 338 337 337 339 340 341
354 346 352 354 354 350 349 350 349 349 347 347 348 347 348 346 345 343 343 343 342 341 340 339 337 331 329 329 330 331 330 328 329 332 332 331 332 336 339 339 339 339 338 338 339 339 341 342 344
345 346 351 355 353 350 350 349 349 349 348 347 346 347 347 345 344 343 343 342 341 340 339 335 335 332 329 329 330 331 331 328 331 333 333 339 336 342 340 340 339 338 338 339 340 340 340 341 343
343 346 350 352 352 352 351 349 349 349 347 347 346 348 346 345 344 343 341 341 340 336 334 333 331 331 330 330 331 332 329 329 332 332 340 345 343 341 340 340 339 338 337 339 339 338 340 343 344
344 347 351 350 351 353 350 350 350 348 349 346 343 347 347 346 343 342 341 340 337 336 336 335 333 332 331 331 331 332 329 330 332 332 339 347 345 341 340 342 343 340 338 339 343 344 344 345 343
344 349 350 349 349 350 350 350 349 349 347 345 348 343 344 346 345 344 342 340 338 338 338 339 338 336 336 336 335 329 330 331 332 337 345 346 345 343 344 343 345 345 343 343 345 342 343 344 344
344 345 345 343 342 348 349 349 348 348 347 349 347 343 346 347 347 345 345 342 338 339 340 340 340 339 338 335 331 329 330 330 332 338 346 346 345 343 344 347 343 342 345 345 344 347 346 344 344
343 345 342 341 342 347 349 348 349 346 347 348 346 346 347 347 347 346 346 341 338 339 341 339 336 335 332 330 329 329 329 330 332 343 344 347 346 346 345 342 345 345 345 345 344 343 343 344 342
345 343 342 341 341 346 348 348 349 345 346 345 341 344 347 348 347 347 347 344 342 342 342 339 336 333 331 330 329 329 330 331 333 335 341 345 343 345 346 346 346 344 347 344 344 344 342 342 342
344 344 343 343 341 344 348 348 348 347 348 347 346 346 347 348 348 348 344 344 343 341 341 339 336 332 330 330 330 331 332 337 344 344 342 341 340 345 347 345 344 345 345 346 345 345 344 342 346
341 343 342 342 341 342 348 348 348 347 348 348 347 348 348 347 349 349 346 346 349 346 338 337 336 332 331 336 336 340 338 343 346 345 344 343 345 343 347 346 343 345 345 345 345 345 343 343 343
337 341 341 341 340 340 340 345 349 347 348 349 348 348 348 348 348 348 349 349 348 347 338 337 335 332 331 342 342 345 347 346 345 346 348 345 345 346 346 346 344 345 347 344 344 345 344 343 341
327 330 332 328 338 339 339 341 346 348 349 349 348 348 348 348 346 345 346 345 348 347 343 342 338 337 334 341 346 345 347 346 346 347 347 347 347 346 346 344 346 344 343 344 344 343 345 342 339
318 324 326 326 337 336 337 341 347 348 348 350 349 348 348 347 347 346 346 344 345 345 341 344 343 340 342 346 348 344 348 348 347 347 348 347 347 348 348 347 344 343 343 343 343 343 344 343 339
322 323 323 325 338 336 336 338 348 347 348 350 349 349 349 347 347 347 346 345 345 344 344 345 346 341 345 345 349 349 347 348 348 348 347 347 346 347 347 347 344 343 343 342 343 343 342 340 331
322 323 324 325 325 339 337 342 348 347 346 348 349 349 348 347 348 347 346 345 346 345 347 346 345 347 348 347 346 350 351 348 346 348 347 347 347 347 347 348 345 344 342 342 343 341 341 338 329
320 321 321 325 336 336 338 341 347 346 345 345 346 347 347 346 346 347 346 346 348 346 348 347 346 347 348 350 349 347 345 347 347 346 345 347 349 348 346 347 342 344 343 343 345 342 340 324 332
320 320 321 323 335 340 340 341 345 346 346 346 346 345 345 345 345 345 346 346 347 348 347 346 346 346 347 348 349 348 348 346 343 343 345 345 346 346 346 345 344 342 343 344 345 344 341 333 333
321 321 323 323 329 334 338 343 341 343 343 343 346 346 346 345 344 344 344 344 344 346 346 346 346 346 346 347 349 349 348 349 347 340 343 344 345 346 346 346 346 342 343 343 342 344 340 326 332
323 323 322 324 324 329 334 338 338 339 341 339 339 345 345 345 345 344 344 344 344 345 345 346 346 347 347 347 348 349 348 349 348 341 344 345 345 348 346 347 348 342 343 342 344 342 338 324 329
322 323 321 322 322 329 328 338 340 342 340 338 336 340 344 344 344 344 344 344 345 345 345 345 346 347 347 347 348 349 348 348 348 343 346 346 348 348 350 348 349 342 341 339 341 338 336 334 327
320 317 319 319 321 324 322 334 335 335 339 339 338 337 340 343 343 343 343 343 344 345 345 345 346 346 347 347 347 348 348 348 347 343 343 347 349 349 348 348 348 344 340 338 341 337 335 328 322
319 320 316 319 321 322 323 330 329 334 336 340 340 339 338 340 342 343 343 343 343 344 344 345 345 346 346 347 347 348 348 348 348 344 340 347 348 346 344 345 347 345 341 339 336 331 334 323 319
319 320 319 316 320 320 323 328 332 334 335 336 339 339 339 339 340 341 342 342 343 343 343 343 345 345 345 346 346 347 347 348 349 341 339 346 343 347 347 347 346 347 340 338 336 326 324 322 320
322 316 319 311 319 321 319 324 329 334 335 334 338 340 340 340 340 340 341 342 342 342 343 343 344 344 344 345 346 347 347 348 349 344 339 342 346 347 348 348 348 342 338 333 335 330 322 322 323
318 320 316 316 314 321 318 321 323 329 332 333 335 340 342 341 342 341 340 341 341 341 342 342 343 344 344 345 346 347 347 347 349 347 338 342 343 345 347 349 349 348 344 340 332 328 325 322 324
322 321 319 318 317 316 321 320 324 325 325 330 334 338 340 343 342 341 341 341 341 342 343 342 342 343 344 345 346 346 346 347 348 349 340 339 340 346 349 350 351 349 349 346 344 342 339 329 322

GFSSGP_850_thetae_045.txt.gz
Theta_e
346 348 350 349 354 354 357 355 351 351 351 349 348 347 348 346 348 354 346 346 345 344 343 344 343 341 339 337 334 332 331 330 331 332 332 333 333 333 333 333 332 333 335 340 341 340 338 337 335
346 349 348 348 357 359 358 352 354 352 349 347 347 347 347 348 345 345 345 345 345 342 342 340 335 330 329 331 332 331 330 331 332 333 333 333 333 334 333 334 333 332 333 333 338 339 339 338 339
348 349 346 351 356 358 357 352 351 349 347 346 347 347 347 347 345 345 344 344 345 343 342 333 330 330 333 332 330 330 329 332 332 332 332 333 334 335 334 339 338 336 335 335 335 338 338 338 339
351 350 351 355 353 353 352 351 348 348 347 347 347 348 347 346 346 344 344 343 343 343 342 332 334 333 332 329 330 329 328 330 332 332 332 333 336 337 337 339 343 343 338 336 338 339 340 340 339
352 348 352 353 350 351 350 349 348 349 348 347 347 347 346 347 344 344 344 343 341 341 341 332 332 332 331 330 329 329 328 330 332 331 331 335 338 338 338 340 343 340 338 339 340 341 342 342 342
346 348 353 350 351 349 349 348 348 349 348 346 346 346 347 346 344 343 342 343 341 342 343 336 331 331 331 330 329 329 330 331 332 331 333 338 339 339 338 338 338 340 340 339 340 341 342 342 344
346 347 351 350 350 352 352 349 350 348 347 347 346 347 346 345 344 343 343 343 343 343 342 341 331 330 330 330 330 328 329 332 333 336 337 340 339 339 339 338 337 338 338 338 340 341 343 344 344
346 347 348 349 352 353 350 350 349 346 347 346 346 347 347 345 344 344 343 343 344 342 339 333 330 329 330 330 330 330 329 332 338 341 341 340 339 341 340 339 338 339 341 342 344 343 343 344 344
345 351 349 349 350 350 350 351 348 347 346 345 347 346 346 344 344 344 343 344 343 343 340 335 330 329 328 329 330 331 329 332 336 344 342 343 340 342 344 343 340 339 341 343 342 342 343 343 343
350 352 346 344 345 349 350 350 349 348 345 347 347 346 345 344 344 345 343 343 344 343 339 336 331 329 328 329 330 331 329 332 333 341 345 344 343 345 344 343 343 343 343 344 343 345 344 343 345
346 348 343 342 343 346 350 350 348 347 347 346 348 347 345 345 345 345 344 344 344 340 339 337 335 332 329 329 330 332 329 331 335 343 344 344 343 344 343 342 342 344 344 344 344 343 342 341 342
345 343 343 343 343 345 349 349 349 346 343 344 347 346 345 345 345 344 344 343 342 335 334 333 333 331 330 330 332 332 329 330 332 343 344 344 345 344 344 344 343 345 344 343 343 343 343 340 342
343 345 345 344 343 342 348 349 350 347 347 347 346 346 346 345 345 344 343 341 336 335 335 334 334 333 334 335 334 330 329 330 331 343 338 342 343 344 344 345 344 342 344 345 344 345 344 342 342
343 345 344 341 341 345 349 349 349 348 347 347 346 346 346 345 345 344 343 340 336 336 336 337 337 337 336 335 332 329 329 330 331 334 339 341 341 342 345 346 343 342 344 345 345 343 342 342 343
334 336 334 338 341 343 347 351 351 348 347 347 346 346 346 346 345 345 340 337 336 336 337 337 336 335 334 332 330 329 329 330 332 341 343 342 344 344 344 344 345 344 344 344 343 343 342 344 342
332 335 338 338 341 341 345 347 349 348 347 347 346 346 346 346 345 345 345 338 337 336 337 337 336 334 332 331 329 329 330 332 339 344 345 343 344 344 345 346 345 346 346 344 343 343 342 342 338
327 333 335 336 337 339 346 343 344 349 348 348 346 346 346 346 346 346 346 340 337 337 337 337 337 335 332 330 329 330 334 336 343 343 342 345 347 347 346 347 346 345 343 343 342 343 342 341 339
330 330 330 334 333 337 344 342 341 349 349 349 347 347 346 346 345 346 346 346 340 337 337 340 339 336 334 331 330 337 338 341 344 345 345 344 347 345 345 346 345 346 344 343 342 342 342 341 341
326 328 333 332 330 336 337 337 339 347 349 349 348 348 347 345 345 347 348 347 346 339 342 345 342 334 334 333 331 339 338 345 346 345 347 346 346 345 345 344 345 347 344 343 342 343 344 342 337
324 326 331 329 326 328 331 335 339 346 349 349 349 348 347 346 346 347 347 348 345 339 344 345 343 336 335 334 331 334 338 341 343 345 346 347 347 346 344 344 343 347 345 343 343 343 344 342 332
323 324 327 330 326 334 335 336 344 346 348 348 349 348 347 347 346 346 347 345 346 344 344 344 340 337 339 337 335 333 335 345 346 344 344 346 347 347 346 344 344 345 344 344 343 344 345 343 336
324 323 323 327 329 332 338 339 344 346 350 349 349 349 348 347 347 346 346 347 345 344 344 344 342 341 340 343 337 338 342 345 346 346 345 345 347 347 346 345 342 345 345 345 342 341 343 343 334
323 323 324 325 329 329 330 334 336 345 350 350 348 349 348 348 347 347 346 343 344 344 344 345 345 343 343 342 341 339 344 347 347 346 343 343 345 348 346 344 345 344 345 346 342 342 343 343 334
325 324 324 324 327 330 331 332 335 342 348 349 347 347 348 348 348 348 347 346 342 344 345 345 345 345 345 345 344 343 344 346 347 347 346 346 346 343 341 344 344 345 346 346 344 342 342 343 336
324 325 326 327 327 329 330 329 331 333 339 343 347 346 346 347 348 348 348 347 345 343 342 344 345 345 346 345 345 345 345 345 346 346 347 347 347 342 338 343 344 346 344 346 346 340 339 341 336
325 324 323 326 326 326 327 330 331 331 330 337 338 342 345 346 346 347 347 346 345 344 343 343 342 342 343 345 346 346 346 345 346 346 346 347 347 342 339 343 345 347 347 347 348 341 339 339 337
324 326 324 323 322 324 327 328 328 330 332 332 339 340 343 345 346 346 346 346 345 344 344 342 341 339 340 342 343 345 346 346 346 346 346 347 348 343 340 343 346 345 345 347 347 341 335 336 335
323 324 322 324 324 324 325 327 329 333 332 334 337 340 340 342 344 345 346 346 345 345 344 344 342 340 338 338 341 342 344 345 345 346 346 346 347 347 340 343 347 345 345 345 347 344 335 332 330
321 324 323 324 323 323 323 324 328 333 335 334 335 336 337 338 339 341 343 344 345 345 345 344 344 342 340 339 340 341 342 343 345 345 346 346 346 347 344 339 343 346 343 344 346 346 338 332 328
323 324 324 325 326 323 324 324 326 329 332 334 333 333 335 337 338 339 339 341 344 344 344 343 343 343 343 341 340 340 340 341 342 344 345 345 346 346 347 341 340 344 344 345 347 346 340 333 331

GFSSGP_850_thetae_048.txt.gz
Theta_e
347 348 350 351 357 357 358 356 353 354 354 351 349 350 350 350 352 359 345 345 344 344 345 345 343 341 340 340 339 338 336 333 332 332 334 334 333 333 341 342 343 344 342 343 341 339 337 335 336
349 349 351 352 361 361 359 354 355 353 351 351 350 349 350 350 348 346 347 344 344 345 346 345 344 342 341 338 335 332 331 331 332 333 333 333 334 333 334 333 332 333 333 339 339 339 338 339 341
349 350 351 354 358 359 357 354 354 352 350 349 350 350 351 349 349 348 346 344 348 348 347 344 341 337 334 332 331 330 331 332 333 333 333 334 335 335 339 338 335 335 335 335 338 338 339 338 339
353 353 353 360 355 354 354 353 351 350 349 349 349 351 349 349 349 349 347 349 347 348 350 338 330 331 332 331 330 330 333 333 332 332 333 336 336 337 340 342 342 338 337 338 339 340 340 339 340
355 352 357 359 354 353 353 351 350 351 350 350 350 350 349 349 349 349 349 348 348 347 347 342 332 333 330 331 329 329 331 333 332 331 334 338 338 338 340 343 340 338 340 340 341 342 342 342 342
354 351 355 353 353 352 353 351 350 350 349 349 349 348 350 349 349 348 348 348 347 346 343 344 333 331 330 331 329 329 330 332 331 332 336 339 339 338 338 339 339 339 339 341 342 342 342 343 341
353 352 352 352 352 353 353 350 350 348 349 349 348 351 350 349 348 348 348 347 346 345 343 345 342 332 330 330 329 330 331 332 333 334 339 339 339 338 337 337 338 338 338 341 343 344 344 344 343
351 349 350 347 349 350 352 351 350 347 349 348 348 350 350 349 348 348 347 347 347 346 344 345 345 345 342 331 329 328 332 333 338 338 339 339 340 340 339 340 339 340 341 344 342 343 344 343 343
350 353 351 348 350 351 351 351 349 347 347 347 348 349 348 348 347 347 347 347 347 346 344 343 344 345 346 346 333 328 332 334 342 342 341 344 351 352 351 341 338 341 343 342 343 343 343 344 342
352 354 348 347 348 351 351 350 350 348 347 347 349 348 348 348 348 348 347 348 349 346 344 343 343 345 346 344 343 343 344 344 348 350 347 352 350 349 350 346 342 342 342 344 342 344 344 347 348
350 352 346 345 346 348 351 351 350 348 347 347 348 349 348 348 348 348 347 348 348 346 344 343 344 345 344 344 345 345 344 346 346 343 346 348 349 351 351 349 350 351 346 351 350 350 349 347 348
350 347 345 345 345 346 350 350 351 348 344 345 348 348 348 348 347 347 347 347 347 347 345 344 345 346 345 345 344 345 343 344 345 348 344 346 350 348 351 351 350 348 351 348 349 350 348 349 348
347 347 346 346 345 344 346 349 351 349 346 346 348 348 348 347 347 347 346 346 347 347 346 346 347 346 345 342 345 345 344 342 343 346 345 348 349 349 352 348 351 349 350 349 348 346 348 348 348
342 344 346 345 343 344 349 350 350 350 349 347 347 347 347 347 347 346 345 345 346 346 346 347 347 347 343 340 341 348 346 343 343 344 346 342 346 350 351 347 351 350 351 352 348 349 349 346 347
342 344 344 341 341 346 348 352 352 351 350 348 348 347 347 347 347 347 345 345 345 345 345 346 347 348 345 339 335 343 345 343 342 342 340 342 341 344 346 352 351 350 351 345 348 347 347 346 341
335 335 340 341 341 343 347 348 350 351 350 350 348 347 346 347 347 346 345 345 344 344 345 346 346 347 347 346 337 342 343 342 342 343 346 343 343 344 347 352 352 352 349 344 345 345 346 341 338
332 339 340 343 342 344 346 347 347 350 350 351 349 348 346 346 346 346 345 345 344 345 345 347 347 347 348 338 341 341 343 336 342 345 347 347 345 347 346 353 352 348 351 351 346 346 345 344 341
336 336 340 344 342 342 345 346 343 347 349 350 350 349 347 345 345 345 345 345 345 345 346 347 347 348 346 345 333 345 343 340 342 346 348 348 344 346 345 352 345 346 348 349 347 344 347 344 343
334 335 337 339 340 339 341 342 341 341 348 349 350 350 348 345 344 345 345 345 346 346 347 348 347 345 343 341 344 343 342 343 344 348 350 347 344 346 346 353 345 345 349 349 346 347 344 346 343
330 332 335 337 336 335 339 340 339 339 346 347 350 350 349 348 345 345 345 345 345 347 348 349 344 342 336 341 341 342 343 343 345 349 351 345 346 346 346 344 351 345 351 344 349 344 347 345 339
330 332 332 335 336 334 335 337 338 340 343 346 348 349 350 349 346 345 345 346 345 346 348 349 345 346 340 343 345 344 343 345 347 349 351 351 346 347 347 346 344 345 346 349 348 347 344 344 342
329 329 330 330 333 337 336 342 341 340 344 346 347 349 349 349 348 345 344 346 345 346 348 349 351 348 349 338 345 343 341 343 345 349 350 350 352 350 351 348 344 344 350 351 351 349 347 344 340
327 328 328 329 330 332 335 337 338 340 342 346 347 348 348 349 348 347 344 344 345 347 349 350 352 347 349 342 342 347 342 342 347 350 351 351 351 344 350 353 351 346 345 351 347 344 342 346 341
325 326 327 328 329 332 333 336 337 338 342 342 345 346 348 348 348 348 345 344 346 347 349 350 352 341 342 342 338 344 345 344 349 352 352 353 352 352 346 352 352 348 350 351 348 346 342 343 342
325 327 327 328 329 332 333 335 336 336 337 340 342 343 347 348 348 348 349 345 345 347 348 350 350 343 342 342 342 341 341 339 345 352 353 351 350 350 350 347 347 350 344 348 345 346 343 340 341
326 327 326 330 330 330 331 333 335 335 334 334 338 340 346 348 349 348 349 349 348 347 348 350 350 344 344 344 344 344 344 344 349 350 351 352 351 349 351 351 343 342 349 344 344 347 342 339 336
327 329 326 327 328 329 330 331 332 333 334 334 335 336 339 343 348 349 349 350 350 350 349 349 345 339 340 343 344 345 344 345 351 349 348 352 352 351 352 353 342 341 344 345 346 348 343 336 332
327 327 326 327 328 329 328 329 331 332 333 334 335 335 337 338 344 347 349 349 350 351 351 352 347 339 335 338 341 342 344 344 345 346 346 347 350 349 351 353 347 343 345 347 343 349 349 339 333
326 327 327 326 326 328 329 329 330 331 333 333 334 333 336 338 342 347 348 348 350 350 351 353 354 349 343 341 338 339 341 342 342 344 345 345 346 346 346 350 341 342 346 347 344 345 352 344 334
327 327 328 328 329 328 328 329 328 329 330 332 332 332 335 337 339 343 345 347 348 349 350 350 352 354 353 346 341 338 337 338 340 341 343 344 345 346 346 346 346 339 348 349 344 343 350 349 342

GFSSGP_850_thetae_051.txt.gz
Theta_e
347 348 350 350 363 360 362 356 352 353 353 351 350 351 354 352 355 359 345 345 339 343 343 343 344 343 342 341 332 330 334 334 333 341 339 337 343 342 342 342 345 343 343 341 340 338 334 336 337
347 352 353 354 364 366 360 353 354 353 351 352 351 350 351 351 350 349 345 343 346 345 347 346 341 342 340 336 337 337 334 333 340 338 334 334 333 333 333 332 333 333 339 341 339 338 339 340 341
351 353 354 358 361 363 360 352 352 351 351 351 351 351 352 351 350 349 344 347 345 348 347 345 342 341 338 337 336 333 332 337 335 334 334 335 334 338 337 336 337 335 335 338 338 339 338 339 339
353 354 354 360 360 354 352 351 350 351 350 350 350 352 351 350 352 351 345 348 349 350 350 343 343 339 335 333 331 332 333 333 333 333 335 336 338 341 342 342 337 337 339 339 340 340 339 340 340
355 356 361 360 358 353 350 349 349 350 350 350 351 353 350 350 351 347 348 349 349 351 348 345 341 333 332 331 331 333 333 333 332 333 337 338 339 341 343 341 339 340 340 342 342 342 342 342 342
355 354 360 359 354 352 349 348 348 348 349 350 352 352 351 350 348 347 349 349 349 347 345 344 333 332 336 330 330 332 333 332 332 335 338 338 338 337 338 339 339 339 341 342 343 343 343 337 335
354 357 355 356 349 353 349 347 349 348 349 351 349 353 351 351 349 349 349 348 348 343 344 346 344 333 341 329 329 330 332 331 332 336 339 339 338 336 337 338 338 339 341 343 344 344 344 343 338
351 353 353 348 349 353 348 349 345 346 350 349 352 354 353 351 349 349 349 347 346 342 344 346 346 346 346 330 330 331 332 334 335 339 339 339 339 339 344 341 339 340 343 340 342 343 343 342 343
351 356 354 346 350 346 346 346 347 346 348 349 349 351 351 350 349 349 348 347 346 344 343 344 345 346 346 346 331 331 332 339 339 340 341 351 351 348 347 342 340 342 343 344 343 343 344 343 340
351 355 352 346 347 347 347 343 343 346 347 348 350 351 350 350 349 349 348 348 348 345 343 343 343 345 346 344 334 343 343 345 349 351 347 351 351 348 349 343 341 342 343 344 343 342 348 348 347
348 357 352 343 345 348 344 344 343 344 347 347 350 352 350 350 349 349 348 348 348 345 343 342 344 346 345 345 344 345 345 347 350 352 350 351 351 350 348 350 349 350 348 349 349 350 349 349 346
347 348 346 345 346 346 348 345 344 344 342 345 348 350 350 350 349 350 349 349 347 346 344 343 345 347 346 346 345 345 344 346 348 350 349 349 351 350 352 350 349 352 349 350 351 349 349 347 348
345 347 346 346 346 346 346 347 347 345 342 344 347 350 350 350 350 349 348 348 348 347 345 344 345 348 347 347 345 345 344 344 345 349 349 349 349 348 351 349 351 351 351 351 350 350 350 349 346
342 344 347 346 346 345 345 347 350 348 346 346 347 349 349 350 350 348 347 347 347 346 345 345 347 348 348 348 348 347 346 344 344 345 348 341 349 350 351 350 351 349 350 350 351 348 346 348 348
343 346 347 347 346 346 345 348 348 349 348 348 346 348 348 348 348 348 347 347 346 346 346 346 348 349 349 350 350 349 347 345 344 344 347 348 345 348 351 352 350 350 350 346 348 349 347 346 343
344 346 348 347 345 344 345 351 347 351 349 349 348 346 347 347 348 348 347 346 346 346 347 348 346 348 350 350 350 348 346 344 343 343 345 344 344 348 348 353 352 350 349 349 348 348 343 343 341
337 343 342 345 343 344 346 349 348 351 350 350 349 346 345 346 347 347 347 346 346 346 347 347 347 347 349 351 350 349 346 345 344 343 345 349 345 347 350 352 351 352 352 349 349 347 346 344 340
337 337 340 343 344 344 345 347 347 349 349 350 350 349 346 346 346 346 346 346 346 346 347 348 348 348 349 350 350 348 346 346 344 343 346 350 352 354 354 351 351 350 352 349 349 346 346 343 340
337 336 339 342 343 344 345 346 347 347 348 349 351 350 348 346 345 345 345 345 345 346 347 349 349 349 350 350 349 347 345 345 344 343 347 351 353 354 350 353 352 348 347 350 350 348 342 348 341
338 337 338 340 343 344 344 344 345 344 346 346 349 350 350 348 346 344 345 344 345 346 346 348 349 349 348 349 348 346 344 344 344 345 349 353 354 354 356 352 353 351 349 350 349 345 349 342 338
339 336 337 339 340 342 340 342 343 342 340 345 346 349 350 350 347 344 345 345 344 345 347 349 349 348 346 348 348 347 345 344 345 345 349 352 354 355 354 357 349 354 349 351 352 350 346 348 341
331 332 334 335 339 343 340 342 342 342 341 344 346 348 350 350 349 346 344 345 345 345 347 348 349 347 347 343 349 347 346 344 344 346 348 351 353 354 354 356 354 347 351 351 351 349 350 342 343
329 331 333 334 335 338 340 341 340 342 343 343 345 346 348 349 350 348 345 344 344 345 346 348 350 347 347 349 344 349 347 344 345 346 348 350 352 352 353 354 355 354 348 351 349 354 341 349 345
329 329 331 333 334 335 337 341 340 341 344 343 344 344 346 348 349 349 346 343 344 344 345 347 350 349 345 352 339 346 348 345 343 346 349 352 353 353 353 353 353 352 352 353 355 353 349 345 346
328 328 329 332 334 335 335 338 339 338 339 341 343 343 345 347 348 349 348 345 343 344 344 346 349 351 348 346 349 338 342 346 344 346 351 352 350 350 350 350 351 352 352 355 352 353 353 345 348
328 328 329 332 332 333 334 336 336 336 336 337 339 341 343 346 347 348 349 347 345 344 345 346 350 351 350 346 342 338 338 350 348 347 353 353 351 350 349 351 354 353 354 351 353 354 353 352 342
329 329 328 329 331 332 332 334 334 335 336 337 337 340 341 344 346 348 349 349 347 346 347 348 350 350 347 335 336 339 340 340 349 348 348 353 354 351 351 352 355 354 352 353 353 354 353 351 345
330 330 328 329 334 333 332 334 335 335 336 337 337 337 340 344 346 347 348 349 349 348 348 349 350 353 341 336 337 340 341 342 343 348 349 354 353 353 351 351 354 354 353 352 352 354 354 352 351
329 331 329 329 329 331 333 333 333 334 336 335 336 335 337 340 345 347 346 349 351 350 349 350 352 353 351 341 338 338 340 342 343 344 345 345 349 351 348 353 354 352 351 352 353 351 353 353 350
330 330 331 333 333 329 331 332 332 333 333 334 334 335 335 338 340 342 345 348 350 351 351 352 353 355 355 351 344 341 342 341 341 341 343 344 344 345 346 346 351 350 343 350 353 352 352 354 354

GFSSGP_850_thetae_054.txt.gz
Theta_e
347 348 351 351 359 360 362 360 354 356 354 352 351 354 354 353 355 356 344 341 339 341 341 340 340 331 329 328 328 329 332 334 341 341 339 342 342 341 342 343 342 342 342 340 339 333 336 338 340
348 351 352 354 362 360 362 355 357 354 352 351 352 351 352 353 348 345 345 340 339 344 342 341 341 341 339 331 329 333 333 338 340 334 334 333 334 332 332 332 333 341 343 339 338 338 340 338 338
351 353 354 358 363 363 360 354 353 351 351 351 353 353 352 352 348 345 342 339 344 345 348 343 343 341 336 333 336 334 335 340 334 333 334 335 338 335 335 336 335 336 338 338 339 338 339 338 335
353 353 355 360 359 357 354 352 350 351 351 352 352 353 351 350 349 344 341 348 345 349 347 342 343 342 337 337 334 335 342 336 333 334 335 338 340 342 341 336 338 339 340 340 339 339 340 338 336
355 355 361 361 358 354 352 350 350 351 352 352 353 353 351 350 348 347 347 347 347 349 346 344 341 338 335 332 332 341 339 333 333 336 337 338 340 342 341 339 340 340 341 341 341 341 342 342 341
356 357 355 358 356 352 348 349 348 350 352 353 352 351 352 352 347 348 348 349 348 351 348 345 341 334 331 331 340 339 332 331 333 338 337 337 337 338 339 338 341 342 343 342 342 341 336 334 334
354 357 360 353 354 353 348 348 347 348 350 353 352 353 351 350 347 349 348 350 349 346 348 344 335 332 331 331 334 333 332 331 335 338 337 337 336 337 338 338 341 342 343 344 343 343 343 338 339
347 351 357 355 354 352 348 346 345 350 351 351 352 353 350 349 348 350 349 348 347 345 345 344 336 344 332 329 330 332 331 334 337 337 338 339 342 346 341 337 340 342 339 342 342 342 342 341 340
347 353 356 353 350 350 347 347 347 347 352 353 353 351 349 348 349 349 349 345 344 346 345 347 344 344 342 330 329 332 336 336 338 344 349 348 351 348 346 339 342 342 343 343 343 344 344 338 341
348 352 357 352 346 347 344 346 346 346 348 351 353 352 350 349 350 348 349 346 345 344 345 345 345 347 344 344 329 332 339 342 342 346 347 349 350 349 348 341 341 342 343 342 342 343 346 340 346
348 353 349 349 345 346 345 343 344 345 347 353 353 352 350 350 349 348 348 348 345 344 343 345 345 346 345 345 333 344 343 345 350 351 349 351 350 347 350 349 349 349 349 349 348 342 348 348 347
348 347 344 346 346 345 344 344 343 344 346 350 352 351 350 349 349 349 347 348 347 343 343 344 345 345 346 347 342 345 346 347 349 343 348 344 349 350 348 349 350 349 350 350 349 347 348 348 342
345 348 348 347 348 344 343 345 344 343 345 348 351 350 350 350 349 348 348 347 349 344 344 343 346 344 346 346 345 345 345 346 348 350 342 350 351 345 350 350 346 351 350 340 347 350 349 346 345
344 344 347 346 345 348 348 346 343 341 343 347 350 350 351 350 350 349 349 348 348 346 345 344 346 347 345 346 345 346 345 344 346 346 349 341 352 351 348 352 350 350 350 346 345 344 348 349 346
341 344 344 347 346 346 344 348 349 345 343 345 349 350 350 351 350 350 350 349 347 347 345 346 345 348 343 346 347 347 346 346 344 346 348 345 344 350 351 348 350 350 349 347 346 349 345 343 343
341 343 347 345 348 347 346 354 346 345 347 346 347 348 349 350 349 351 349 349 348 345 345 346 347 348 346 345 349 347 349 346 345 344 345 341 339 348 347 352 351 351 352 349 349 346 343 340 342
343 347 347 348 346 346 345 351 348 346 348 348 347 347 348 348 348 348 347 347 346 346 346 345 346 347 348 348 349 347 347 346 344 344 344 347 342 343 344 351 342 350 349 348 346 345 346 344 341
344 342 346 347 347 347 346 349 345 345 345 347 348 347 347 347 347 347 347 346 346 346 347 345 347 347 348 348 348 350 348 346 345 344 344 348 349 342 345 351 352 349 352 350 348 345 343 346 340
340 338 340 341 341 347 344 351 347 344 343 346 349 347 346 346 346 347 347 347 347 347 347 347 348 347 348 349 349 351 346 346 345 344 344 349 349 353 349 349 354 348 349 347 340 341 343 346 340
339 339 337 338 342 344 344 352 347 343 347 348 349 349 347 346 346 347 347 347 346 347 347 347 347 347 350 348 350 347 348 346 345 344 344 347 350 350 349 349 352 352 351 351 347 349 346 347 336
339 340 339 337 344 344 345 346 351 349 351 351 350 350 349 348 347 346 347 347 346 347 347 347 348 349 348 350 349 349 347 346 346 344 345 348 350 354 352 353 350 351 348 352 348 339 346 346 341
334 338 339 338 344 347 344 350 350 345 345 347 348 350 350 349 348 346 346 346 346 347 346 347 347 348 349 348 349 348 345 346 345 346 345 348 350 348 356 350 352 348 347 351 349 348 349 344 345
333 334 339 338 337 339 345 346 341 344 344 343 346 348 348 350 349 348 345 346 346 346 348 347 346 347 348 345 349 348 347 344 345 345 345 347 352 352 349 355 354 351 345 352 352 352 345 343 346
331 331 333 335 335 339 338 343 345 342 345 344 343 346 348 348 350 349 347 345 345 346 348 350 348 348 346 344 339 349 348 346 344 346 346 348 349 352 353 351 354 355 348 348 352 350 347 349 344
330 329 332 332 336 337 336 337 342 341 343 342 344 344 346 349 350 350 348 346 345 346 347 349 350 349 348 344 337 336 347 347 346 343 345 347 352 353 352 352 349 351 351 346 351 352 349 339 346
329 329 331 335 335 335 335 338 338 340 340 341 343 343 344 346 350 350 350 347 345 345 346 347 349 348 347 343 337 332 337 341 340 343 344 347 353 351 352 351 351 349 349 347 352 350 351 348 340
329 329 329 329 331 333 333 335 335 338 338 339 337 342 344 345 348 350 351 348 345 345 346 346 348 346 346 341 337 336 335 336 334 335 342 351 350 352 352 350 351 351 350 348 348 354 349 350 347
330 330 329 330 332 334 332 337 338 338 340 339 338 338 342 344 347 349 350 350 347 345 345 346 346 347 345 344 338 335 333 333 334 336 338 342 355 354 352 353 351 351 349 343 351 344 349 352 349
329 331 329 328 330 331 333 334 337 341 339 339 338 338 338 343 345 348 349 351 349 346 346 347 347 347 348 348 345 337 333 332 333 335 335 340 343 352 351 356 354 351 351 340 347 349 352 349 351
330 330 331 334 334 332 332 333 334 337 339 338 338 338 337 339 344 347 349 350 351 349 348 348 349 350 349 346 348 346 340 336 335 337 339 340 345 347 349 347 356 355 352 345 338 341 347 356 355

GFSSGP_850_thetae_057.txt.gz
Theta_e
347 349 351 352 356 358 361 359 355 357 355 353 351 352 353 351 353 353 343 341 340 340 341 339 339 337 333 331 331 331 332 338 338 341 341 342 339 342 340 342 345 340 339 337 331 335 337 337 328
348 350 352 353 363 356 357 356 357 355 352 351 351 352 351 350 347 343 342 340 340 341 342 341 333 330 330 330 329 332 336 338 335 334 332 333 332 332 332 336 340 340 338 337 338 336 334 337 329
348 352 352 356 359 360 360 354 354 352 352 353 352 351 351 348 345 342 340 340 345 340 338 338 341 329 328 328 332 332 337 334 334 333 335 337 332 333 334 334 338 338 338 338 338 338 333 331 328
351 352 352 359 360 357 355 352 352 353 353 352 351 351 349 345 344 343 339 343 345 338 339 341 340 336 330 332 332 336 335 333 334 334 338 339 340 339 336 337 339 339 339 339 339 338 335 337 332
354 353 356 357 356 354 353 351 351 353 353 352 352 351 348 347 345 339 344 346 343 341 341 341 339 334 334 332 333 338 333 333 336 336 338 341 341 337 339 339 339 340 340 340 340 341 340 340 338
355 349 355 355 354 352 351 350 352 353 353 352 350 350 350 345 340 346 348 347 343 341 340 340 340 335 332 331 337 336 332 333 337 336 336 337 338 337 338 340 342 342 342 342 339 336 334 333 340
354 355 354 353 354 354 352 349 352 354 352 351 351 352 346 341 344 347 347 345 343 342 340 339 339 332 330 333 338 332 331 334 337 337 335 337 338 338 339 342 341 342 343 343 343 341 339 338 338
354 353 353 357 357 356 348 347 353 353 353 351 351 352 347 348 345 348 346 346 349 342 339 336 331 330 332 335 332 331 331 335 337 337 336 341 344 339 336 341 341 339 342 343 341 341 340 340 340
353 355 353 355 354 351 346 349 350 352 352 352 351 350 348 348 348 348 346 349 346 342 337 332 330 330 329 329 331 331 334 337 338 342 345 348 345 343 339 341 342 342 343 342 342 342 339 343 342
352 346 355 351 350 350 347 347 350 352 353 351 350 350 348 348 346 348 349 348 345 344 334 332 335 331 328 328 331 336 337 338 347 347 346 347 347 344 345 340 341 343 342 342 339 343 341 346 344
347 350 350 346 347 347 344 344 346 351 354 350 349 349 348 349 348 348 349 346 345 343 335 335 334 333 332 328 331 339 345 347 347 338 345 346 345 347 349 346 348 348 347 339 343 345 344 345 346
347 348 347 345 346 345 344 345 345 349 353 350 348 348 349 349 349 349 347 346 346 343 339 342 339 343 343 340 334 342 344 345 346 342 347 346 348 349 347 348 349 345 346 343 341 345 346 342 345
343 347 345 344 345 346 347 344 344 354 353 351 348 348 350 349 348 349 346 345 346 342 343 343 343 345 345 346 344 344 346 346 347 345 345 347 346 345 349 348 345 345 345 345 345 347 346 343 344
339 346 346 346 343 347 348 346 345 353 352 351 350 350 349 349 348 348 348 347 344 342 344 344 344 344 349 345 344 346 345 347 348 348 345 348 347 349 349 348 350 349 347 345 343 345 346 345 341
335 340 347 346 346 346 348 349 349 345 351 351 351 350 349 349 349 347 348 345 347 343 345 344 344 344 346 345 344 346 346 343 348 347 347 348 348 349 349 346 348 350 346 346 345 345 346 342 342
336 338 343 342 345 346 348 354 346 344 346 351 351 350 350 348 347 346 345 345 347 345 345 344 344 345 342 343 344 347 345 346 345 345 346 344 340 348 347 349 349 349 347 345 347 343 340 340 341
336 341 341 342 343 346 347 349 344 341 346 349 350 351 350 350 349 348 346 345 346 346 347 344 344 344 345 340 341 346 344 346 345 344 344 344 345 344 345 347 344 347 347 348 345 348 345 343 343
338 339 339 344 343 345 347 347 342 342 347 348 347 349 351 350 350 349 349 347 344 346 347 345 346 346 345 340 339 341 346 347 346 344 343 344 347 345 343 347 349 348 347 345 343 344 344 345 338
338 340 340 340 343 345 346 347 347 347 347 348 347 345 347 350 350 350 350 350 347 346 346 344 346 345 346 347 337 336 340 346 345 344 344 344 348 348 345 344 351 353 347 348 345 345 340 345 337
335 336 338 337 338 343 348 349 347 344 344 343 345 346 346 348 348 349 349 349 350 347 345 345 344 345 347 347 345 336 339 345 342 343 344 344 349 348 348 347 349 351 350 349 348 342 346 344 335
334 335 336 338 336 342 348 350 348 344 344 345 347 347 347 347 347 348 347 347 347 346 346 345 345 345 346 347 347 344 343 345 345 344 341 344 347 346 349 349 349 351 349 350 348 344 346 344 336
333 334 336 338 339 344 340 351 348 348 348 344 346 348 347 346 346 348 347 346 347 346 346 346 346 345 346 347 347 345 338 342 344 345 343 343 345 347 348 351 350 348 350 348 349 342 341 346 343
330 331 333 335 338 339 342 343 351 347 347 346 346 349 343 347 346 347 347 347 347 347 347 346 346 346 346 347 346 343 340 339 342 347 346 344 345 348 350 348 350 349 348 345 351 348 343 345 345
331 331 331 331 334 338 334 342 341 347 346 346 348 349 348 348 346 346 347 347 347 347 347 346 346 346 345 346 346 343 340 339 342 341 346 346 345 348 351 351 349 351 352 345 351 351 350 341 344
331 329 329 330 334 338 330 336 338 339 339 346 349 349 348 348 347 346 347 347 347 347 347 346 346 346 345 344 344 343 338 341 338 339 343 345 346 347 348 351 351 347 344 347 350 352 352 344 343
330 329 327 328 329 332 328 331 333 333 337 340 348 349 350 349 348 347 346 347 346 347 347 347 346 345 345 345 342 339 341 342 342 338 342 345 347 349 349 352 351 349 347 343 344 347 349 346 335
327 328 325 324 327 328 329 330 330 331 331 334 339 347 349 349 349 348 346 346 346 346 346 347 346 345 345 344 342 338 337 340 338 335 340 343 345 348 351 352 352 351 350 349 344 345 349 347 346
327 326 326 325 326 328 329 330 332 330 331 331 332 340 344 348 350 349 347 346 346 345 344 346 346 346 345 344 343 336 331 332 333 334 334 340 341 345 353 354 353 351 350 349 348 343 349 351 346
328 326 325 323 323 325 329 330 328 331 331 331 332 336 343 345 350 350 348 347 346 345 344 345 346 346 346 345 343 342 333 328 329 334 333 333 338 347 351 350 353 353 351 350 349 340 345 347 346
329 327 325 326 324 324 324 327 331 330 332 332 333 335 341 344 350 350 350 347 347 346 345 344 345 345 345 343 344 344 343 337 332 333 335 334 333 337 354 354 354 355 355 352 351 342 340 342 343

GFSSGP_850_thetae_060.txt.gz
Theta_e
345 347 350 352 353 354 360 358 355 357 354 349 347 349 351 349 350 346 342 341 340 340 341 341 339 333 331 330 330 332 335 335 338 339 337 339 340 341 341 340 339 337 332 329 333 336 334 327 322
347 350 351 352 360 354 358 356 358 354 353 350 352 351 350 349 345 343 341 340 340 338 339 340 341 333 331 329 331 334 335 334 335 333 332 332 337 335 343 345 341 338 335 336 334 335 332 332 338
348 351 352 354 357 358 358 352 354 353 351 352 351 351 349 347 344 341 341 340 339 340 342 341 334 331 331 329 331 336 333 333 333 335 334 331 332 333 338 342 341 337 337 337 333 329 328 331 340
350 352 353 359 359 355 355 353 352 352 352 352 351 349 346 345 342 341 340 339 341 340 338 330 330 329 328 331 332 335 332 334 333 344 343 339 338 335 338 338 338 338 338 338 335 335 335 328 341
352 352 355 354 355 354 352 352 350 353 352 351 350 348 345 344 342 340 341 340 340 338 340 336 329 328 330 331 334 332 332 335 336 338 341 339 337 338 338 338 339 339 339 340 340 339 339 334 336
354 347 355 357 354 351 349 350 351 353 352 349 348 348 345 345 341 344 344 342 336 338 339 337 331 330 331 331 335 332 333 337 336 337 337 338 338 338 340 341 341 342 340 337 335 334 336 339 338
352 354 354 353 355 354 352 350 350 353 352 350 349 348 344 343 344 346 346 343 339 340 337 335 332 331 331 334 332 331 334 337 335 336 337 337 337 341 341 342 343 342 342 341 339 339 336 338 337
353 351 352 351 351 356 349 351 352 352 352 350 347 344 341 341 347 348 347 345 341 339 335 333 330 330 331 334 331 331 335 336 336 335 336 336 337 340 341 339 341 341 341 341 340 340 339 339 339
352 358 354 354 355 352 348 351 353 351 351 351 350 344 340 347 348 348 346 344 342 339 334 331 328 330 333 331 330 332 336 336 336 342 343 342 340 340 341 342 342 342 341 342 341 339 341 340 342
352 355 356 349 349 350 348 350 352 351 351 351 349 343 344 347 348 346 345 347 343 339 334 329 328 329 330 331 331 334 336 338 344 345 347 344 341 339 339 341 342 342 341 341 341 341 343 343 342
348 353 348 348 347 348 347 348 352 351 352 350 347 345 344 348 348 347 349 347 341 335 332 329 327 327 328 330 335 336 338 345 345 345 346 345 345 346 344 343 346 342 338 341 342 341 343 344 342
343 345 346 346 346 346 345 345 353 352 350 350 348 345 347 348 348 348 348 347 343 335 331 329 329 327 327 330 337 338 343 345 336 346 344 346 345 345 347 347 349 346 345 341 343 342 341 344 345
339 342 346 347 345 344 345 346 352 352 350 349 348 348 347 347 347 348 348 346 344 340 330 328 329 328 328 334 335 342 343 345 341 343 343 347 344 344 348 347 345 344 345 343 346 345 343 344 342
334 336 345 344 341 342 347 350 353 350 349 348 348 348 347 347 348 348 348 346 344 343 333 330 335 336 341 344 343 345 347 346 346 347 343 345 346 346 344 346 347 347 344 342 343 343 343 343 343
327 330 337 345 342 347 346 348 354 350 348 348 348 348 349 348 349 348 347 345 344 344 338 340 338 343 344 345 344 345 345 347 345 346 347 346 344 347 347 345 346 347 343 343 343 344 344 343 343
329 329 332 341 343 347 347 351 350 351 349 348 348 349 349 348 348 348 346 345 346 344 342 343 342 341 346 344 343 347 345 345 346 347 347 348 344 345 345 348 347 347 346 344 343 340 341 338 339
327 331 334 336 343 348 348 351 345 351 350 349 349 349 349 349 348 347 346 347 345 343 343 343 343 343 341 343 343 345 345 344 344 344 344 343 343 341 344 346 347 347 345 345 343 343 342 340 341
328 335 335 337 345 348 350 347 343 346 351 350 350 349 348 348 349 348 347 346 346 345 344 344 343 344 343 342 340 345 345 345 345 345 344 343 344 343 345 346 346 347 345 343 344 344 344 343 339
330 333 336 336 344 350 350 346 345 343 345 350 350 350 349 348 346 348 345 345 344 347 347 346 344 344 344 344 343 342 345 346 345 346 344 343 344 347 346 342 346 347 347 347 344 344 343 343 338
329 332 335 336 336 342 349 349 347 343 342 348 350 351 350 349 348 347 346 345 344 346 347 347 345 343 344 344 341 336 343 343 343 345 345 344 344 348 347 344 347 349 348 346 347 346 341 342 334
329 330 332 334 335 344 347 350 346 342 344 346 347 348 349 350 349 349 348 347 344 346 346 347 346 345 345 343 343 339 335 337 343 344 344 343 345 349 347 345 345 350 347 349 348 344 343 343 335
330 330 332 334 335 341 345 353 348 346 346 344 344 345 346 346 349 349 349 349 347 346 344 346 347 345 344 344 342 345 336 332 332 335 341 344 343 349 347 346 348 349 349 349 349 347 343 343 336
330 330 331 332 332 334 341 348 347 346 346 344 342 344 345 346 347 349 349 349 349 349 345 345 346 344 344 344 343 344 344 332 332 335 342 342 342 346 346 347 347 349 347 346 347 348 341 345 343
330 328 327 327 326 331 332 339 340 347 345 342 340 343 345 347 346 347 348 349 350 350 349 348 345 344 344 344 343 343 343 339 335 338 343 345 343 343 346 349 350 346 345 346 345 349 345 344 345
329 326 328 328 329 330 327 332 336 345 343 342 342 341 343 347 346 346 347 346 347 348 348 348 345 345 345 345 344 342 342 341 335 336 341 344 344 344 345 348 350 350 347 349 344 347 350 348 342
327 328 328 331 328 330 327 332 333 336 343 342 343 342 342 347 345 345 346 347 346 347 346 346 346 346 346 345 345 342 339 341 339 335 337 341 344 345 345 347 348 349 350 347 348 344 345 351 348
329 328 326 323 322 324 326 328 327 326 332 334 342 343 343 346 346 345 345 347 347 346 346 346 346 346 346 345 345 342 339 338 339 335 337 337 341 343 346 347 348 351 350 348 346 345 341 346 345
330 325 327 319 330 327 323 326 330 327 327 326 340 343 345 347 347 346 345 346 346 346 346 346 346 346 345 345 344 344 341 339 335 335 335 337 339 344 345 346 349 352 352 351 349 348 344 342 345
331 330 324 324 319 326 324 326 324 326 326 327 333 345 346 348 348 347 346 346 346 346 346 346 346 346 345 345 344 344 343 340 338 335 333 334 337 340 344 344 351 354 353 353 350 349 348 342 343
327 327 324 325 322 319 321 326 325 325 326 326 327 342 347 348 348 348 347 345 346 346 346 346 345 346 345 343 344 344 343 342 339 335 332 331 332 337 340 342 346 350 350 352 351 350 350 342 337

GFSSGP_850_thetae_063.txt.gz
Theta_e
344 346 349 350 352 354 358 358 354 356 355 348 346 347 348 348 348 345 343 342 342 337 334 333 329 331 329 330 331 333 332 333 335 336 338 340 339 340 341 340 335 331 327 334 336 333 325 321 324
345 349 350 351 358 353 358 354 357 354 352 347 349 350 349 348 344 343 342 341 341 338 333 333 330 330 330 331 333 335 336 337 336 334 342 341 341 343 342 342 343 333 335 334 335 331 332 333 324
349 351 352 355 356 358 357 352 353 352 351 351 350 349 348 345 343 342 341 340 340 340 337 336 332 331 329 331 336 333 333 332 332 331 330 331 338 343 343 340 337 336 335 331 335 330 336 340 340
349 351 352 358 359 353 354 354 352 353 352 351 349 347 345 345 341 341 340 339 339 339 339 339 332 331 329 332 335 332 333 334 342 335 334 334 334 337 338 338 338 337 336 333 334 329 335 339 340
351 352 354 353 355 353 352 351 353 353 352 350 348 345 344 342 341 340 340 339 338 339 340 334 331 329 330 332 334 332 334 337 342 344 345 338 345 339 338 338 338 338 339 339 339 337 330 338 339
353 347 354 357 355 351 350 351 352 352 351 346 344 344 343 343 341 340 340 339 338 334 332 330 329 328 331 334 332 333 336 336 339 343 344 342 338 339 340 341 340 338 335 334 334 339 336 336 339
354 351 355 354 354 354 352 351 351 352 350 348 345 345 344 342 341 340 340 341 338 339 330 329 328 331 331 335 332 334 336 335 337 338 338 338 341 341 342 341 341 341 340 338 338 336 338 337 340
353 349 352 352 351 354 350 350 350 352 351 348 345 343 343 341 343 342 340 339 337 337 335 330 331 331 332 332 331 335 335 334 335 336 336 340 340 339 341 342 342 341 340 340 340 338 339 337 339
352 355 352 352 355 353 349 350 352 351 350 350 347 344 342 342 344 344 342 340 341 340 335 331 330 330 332 330 331 335 335 334 335 337 336 337 340 340 340 340 342 341 341 340 340 340 340 339 340
350 353 354 349 349 350 348 352 351 351 351 348 343 343 342 346 346 345 344 343 341 339 335 331 329 330 331 330 331 335 335 335 342 341 339 339 340 341 341 342 342 342 341 343 340 341 341 342 343
350 354 350 348 348 347 348 350 352 351 352 348 340 341 344 347 347 345 344 342 339 336 333 328 329 330 330 330 333 335 336 341 345 346 342 340 340 339 340 342 342 340 339 341 341 343 343 342 343
342 346 350 349 347 348 347 350 352 352 351 350 344 343 346 347 347 346 344 341 339 336 330 327 328 329 329 332 335 336 344 344 344 345 344 344 346 345 346 347 346 344 341 341 342 343 344 343 343
334 336 341 345 345 346 346 346 352 352 351 348 341 346 346 347 347 346 344 342 339 335 330 327 327 327 328 333 336 337 344 337 344 343 345 345 345 346 346 345 344 345 343 344 343 342 343 344 344
329 331 334 339 343 343 348 352 352 350 350 343 343 346 346 347 347 346 344 345 338 333 330 328 327 326 328 332 339 342 344 342 344 344 343 344 344 344 345 345 346 345 343 340 345 342 344 342 340
324 325 326 331 342 348 348 349 353 350 348 346 345 345 346 347 347 345 344 344 340 333 330 328 328 327 335 335 340 345 345 346 344 345 345 346 345 347 345 345 348 345 343 343 343 343 343 340 341
326 324 326 328 342 346 345 350 351 348 348 347 347 347 346 347 347 347 346 344 343 337 336 329 328 328 340 343 344 344 344 346 344 344 346 347 345 344 343 346 348 345 342 344 339 339 341 342 340
320 326 329 331 343 347 348 350 351 348 348 348 348 347 346 347 347 347 347 346 343 341 341 332 332 335 337 343 343 344 346 344 345 346 346 347 343 340 341 346 348 348 344 344 339 339 340 340 341
320 329 330 331 337 346 348 348 351 348 348 348 347 347 348 347 347 347 348 347 344 343 344 337 338 337 337 343 341 344 347 344 344 344 344 344 343 344 341 344 345 345 344 344 342 343 342 342 340
325 330 331 332 335 347 348 346 348 350 349 348 347 348 348 347 347 348 348 347 345 344 345 341 342 342 341 343 343 343 345 345 344 344 344 344 344 345 346 342 346 346 344 344 342 344 344 342 337
319 322 326 330 343 345 347 347 345 350 350 349 348 348 348 348 347 347 348 347 346 345 344 342 342 343 343 343 342 341 343 345 345 345 344 344 344 344 347 346 343 347 348 347 343 345 344 341 338
320 322 325 331 342 345 347 352 346 345 346 350 350 349 348 347 347 347 347 347 346 347 345 343 342 343 343 343 343 343 342 343 344 345 344 344 343 344 347 346 344 346 347 345 346 343 342 343 334
324 325 328 330 333 341 345 348 346 345 345 342 345 350 349 348 347 347 348 348 345 346 346 346 344 345 344 343 344 344 341 339 342 344 343 344 344 343 347 346 345 345 348 346 346 348 343 344 335
327 327 328 329 331 332 343 346 346 344 347 343 343 348 350 349 349 348 346 346 346 346 345 344 345 344 345 344 343 344 341 335 334 339 340 344 344 343 343 344 346 347 347 347 346 348 341 343 337
329 328 328 327 329 333 331 343 335 346 345 344 342 345 346 349 349 349 348 347 346 345 345 345 344 345 345 345 344 344 343 339 336 332 334 340 341 342 341 343 346 347 347 347 344 346 347 341 344
328 324 328 328 328 332 325 330 333 340 342 342 342 343 344 345 347 348 349 348 348 347 346 345 343 345 344 346 344 344 343 341 339 337 333 336 342 341 341 343 346 348 349 347 347 345 348 341 343
327 327 327 329 327 330 324 328 330 333 341 342 342 342 343 344 345 346 347 349 348 349 348 347 347 343 343 346 346 344 344 343 338 340 338 335 341 343 343 344 346 347 350 350 348 347 343 349 346
325 328 325 324 321 321 325 325 326 328 331 339 342 341 341 342 344 345 346 347 348 348 349 348 349 349 346 345 345 344 344 344 340 336 337 334 337 341 343 344 345 346 349 350 349 345 344 345 348
324 323 327 320 331 329 324 325 330 327 326 338 340 341 341 340 342 345 345 346 346 347 348 348 349 348 348 347 345 344 345 344 341 335 335 335 335 338 340 343 345 346 347 350 350 349 347 344 341
323 326 323 324 322 330 327 328 320 325 326 326 334 340 341 341 341 345 345 345 346 346 347 347 348 347 347 346 345 345 345 344 343 338 334 334 333 334 340 342 343 347 348 351 352 351 349 348 345
319 319 326 327 325 318 322 329 323 322 323 323 325 330 334 340 341 344 345 344 345 346 346 346 347 347 346 345 345 345 345 345 344 342 336 334 332 333 336 340 343 344 348 353 352 352 352 349 348

GFSSGP_850_thetae_066.txt.gz
Theta_e
342 346 349 350 353 353 358 359 353 356 351 346 345 346 347 348 348 346 343 342 341 341 337 333 333 331 330 332 334 335 335 336 336 339 342 341 341 342 343 336 333 326 336 338 337 326 321 325 326
345 348 349 351 357 350 357 353 357 353 350 346 349 348 348 348 344 343 343 341 338 335 331 330 332 329 331 333 333 333 335 336 340 341 341 343 341 341 340 340 330 333 335 336 331 331 325 323 326
346 350 351 355 355 355 357 352 353 351 348 347 349 348 347 345 344 342 342 340 335 332 328 330 330 329 331 336 335 337 338 335 333 341 337 344 343 342 343 341 336 334 335 335 329 338 340 333 333
349 350 351 356 359 354 354 353 352 352 351 350 347 346 344 345 342 342 341 340 334 330 328 330 329 329 332 335 332 332 332 333 330 330 331 339 343 343 341 337 337 335 332 331 328 337 339 339 341
349 352 354 351 355 354 351 352 352 352 351 348 347 345 343 342 342 342 341 341 335 331 331 330 330 329 333 334 332 332 336 344 342 340 335 339 338 338 338 338 338 337 337 337 334 333 338 340 339
352 347 352 355 355 351 351 350 352 352 349 345 344 343 343 342 341 340 340 340 339 335 334 331 330 329 332 334 333 333 338 340 344 343 340 340 338 338 339 339 339 336 335 338 339 333 336 339 340
354 349 353 354 354 353 352 350 351 352 349 345 343 344 342 341 340 339 339 338 338 338 335 330 329 330 332 332 333 335 337 339 341 344 338 339 340 340 340 339 339 337 337 335 337 337 336 337 341
352 349 351 351 351 353 350 351 350 352 350 344 344 343 342 341 339 339 338 339 338 336 331 329 328 331 334 332 334 335 335 336 337 338 340 340 341 342 341 340 340 340 340 339 337 338 335 339 338
351 354 351 350 354 351 349 351 350 351 348 348 345 343 341 340 340 341 341 341 341 332 328 328 329 331 334 331 334 335 334 336 336 337 340 339 339 340 341 341 341 340 340 339 339 339 337 338 340
349 351 351 346 349 349 349 352 351 350 350 344 345 343 341 340 342 342 343 342 343 339 331 329 330 331 332 330 334 335 334 335 336 335 337 339 340 341 341 342 341 342 342 340 339 340 341 341 342
349 353 349 349 349 347 350 351 351 350 351 344 342 342 341 340 343 345 342 336 335 334 332 329 330 331 332 330 333 335 334 339 339 338 338 339 340 340 340 342 341 340 339 341 341 342 342 342 341
344 344 349 350 348 346 346 351 351 350 350 350 346 342 341 342 345 345 338 336 337 335 331 329 329 330 331 330 333 335 337 344 344 342 339 340 342 342 344 345 343 343 341 341 341 343 343 342 340
339 336 341 345 344 345 346 350 352 351 351 349 344 341 343 344 345 344 337 335 335 333 330 327 329 330 330 332 334 338 344 343 344 343 344 343 344 344 346 345 344 344 343 343 342 343 344 343 342
329 333 334 336 337 339 344 349 349 350 349 343 342 343 344 344 344 342 339 336 336 333 328 326 328 329 329 334 335 342 340 341 343 343 344 344 343 345 344 344 344 344 342 344 342 342 343 342 342
326 324 323 325 333 344 350 351 352 348 345 343 344 345 345 346 345 343 340 337 335 332 328 326 326 327 328 335 335 343 342 342 345 343 344 344 344 346 344 344 346 344 341 343 343 341 343 341 340
321 322 326 327 327 346 345 347 350 346 342 344 346 345 345 346 345 345 342 340 338 333 328 326 326 326 328 333 340 342 344 345 345 345 345 346 343 343 345 345 345 342 343 343 339 339 339 341 340
316 325 325 328 331 346 346 347 349 348 344 342 345 345 345 346 346 346 344 340 340 333 329 327 327 326 330 333 339 344 345 345 344 343 345 346 343 341 344 347 346 346 342 340 338 340 340 339 340
319 323 327 331 332 345 347 347 349 348 347 345 344 344 345 346 347 346 345 341 342 335 330 328 328 327 335 340 343 344 343 344 344 344 345 345 343 343 341 345 346 345 343 342 341 339 340 342 340
320 328 331 330 329 345 346 346 351 348 347 347 347 346 345 345 346 347 346 344 344 341 336 336 329 328 328 339 342 343 343 344 343 344 343 343 343 343 344 343 344 345 342 342 342 343 343 341 338
318 320 321 325 330 340 341 346 349 348 347 347 347 347 346 346 346 346 346 345 345 344 340 341 332 331 334 337 338 341 340 344 345 343 343 343 343 343 344 346 344 345 346 344 342 342 343 340 340
315 318 320 328 333 343 346 348 347 349 348 347 347 347 347 346 346 346 347 346 345 346 342 343 341 337 338 339 342 341 341 343 345 345 344 343 343 343 343 347 345 342 345 345 344 345 343 341 337
314 317 320 325 329 341 344 348 345 345 351 349 348 347 347 347 347 346 346 347 346 346 346 343 344 340 341 341 342 342 342 342 343 344 344 344 342 342 342 346 346 344 346 345 343 346 343 341 341
318 320 321 324 328 330 337 339 336 343 347 349 349 348 347 347 347 346 346 345 347 347 346 343 344 343 341 342 342 342 343 343 342 341 343 344 344 342 342 343 345 346 346 348 347 345 347 340 342
325 325 324 325 327 333 330 342 340 343 345 344 344 348 349 348 347 347 346 346 346 347 346 345 344 344 342 341 343 343 343 343 343 341 338 340 341 341 342 342 343 346 347 347 346 346 347 343 343
325 324 327 328 329 332 326 330 336 333 341 341 343 342 345 349 348 348 347 346 346 345 346 345 344 344 344 345 343 344 344 343 344 341 337 332 336 335 341 341 341 345 348 347 346 346 345 347 340
324 324 326 330 327 330 323 329 331 329 330 339 341 342 342 345 349 348 348 348 346 345 346 346 343 344 344 344 343 343 345 343 344 343 340 334 330 331 337 338 340 345 347 348 349 347 347 344 347
323 327 323 324 320 322 324 323 324 326 328 335 339 341 342 344 346 348 349 348 348 346 344 345 344 344 344 343 342 343 343 345 344 343 343 338 333 331 338 341 342 344 345 346 348 349 344 346 342
319 321 326 320 332 331 324 323 330 326 328 327 338 340 341 343 344 345 347 348 349 349 347 346 346 346 346 345 343 343 343 345 345 344 343 340 335 332 335 340 342 343 344 345 346 349 349 346 343
319 320 321 323 324 331 328 329 320 325 326 326 331 337 340 341 342 343 344 345 346 348 348 347 347 347 347 347 347 346 344 344 345 344 344 343 337 334 332 335 339 343 344 346 346 348 350 350 349
317 319 317 322 324 318 325 329 324 322 322 323 325 335 337 340 340 341 343 344 345 346 347 347 346 347 347 347 348 348 347 345 345 344 344 344 341 336 333 332 335 338 343 346 348 349 351 351 352

GFSSGP_850_thetae_069.txt.gz
Theta_e
341 345 348 348 355 353 359 358 353 355 351 346 346 346 347 348 349 351 343 344 343 344 344 340 334 331 329 331 332 334 333 334 336 340 341 341 342 339 340 335 331 335 339 338 327 322 324 327 325
344 347 348 351 357 359 360 353 357 353 348 345 348 348 349 349 344 343 343 343 343 343 344 334 332 329 330 333 334 334 339 337 339 341 341 341 342 342 336 330 330 337 338 333 330 322 322 326 334
345 348 351 354 358 359 357 353 353 349 347 347 349 348 348 346 343 343 343 342 342 340 334 333 329 330 332 335 335 341 341 342 343 342 343 341 342 342 342 333 339 340 339 333 337 335 324 327 331
348 350 350 358 359 355 355 354 353 350 348 349 349 348 344 344 343 342 341 341 339 331 333 331 329 330 342 336 341 338 334 333 335 334 344 343 343 341 338 337 333 332 332 330 338 338 338 339 339
349 351 356 354 355 354 351 352 353 352 352 349 348 346 343 343 342 342 340 339 338 334 332 329 329 331 334 340 333 333 336 331 332 332 336 340 340 341 338 341 336 336 338 333 337 339 339 340 340
352 350 355 357 354 351 351 351 352 353 350 348 347 345 343 342 342 342 341 339 331 334 333 329 329 333 334 332 332 340 344 343 341 338 344 341 338 338 338 338 338 338 339 338 333 337 339 339 339
353 352 356 354 354 353 351 351 352 353 350 349 346 347 343 342 344 343 342 338 331 337 330 329 329 333 342 333 334 339 339 344 342 339 338 341 341 341 341 338 336 336 335 338 336 335 338 340 340
353 353 354 353 353 353 351 350 351 352 351 346 345 346 344 343 345 344 343 342 339 337 329 329 329 333 343 342 335 340 343 342 344 341 341 342 344 341 340 340 340 339 338 337 338 335 338 338 338
352 356 356 352 353 352 350 352 351 350 346 347 344 344 343 343 344 344 343 344 341 338 331 330 328 333 338 342 336 335 337 338 339 340 342 342 341 340 340 340 340 339 339 338 339 336 338 339 338
351 355 354 348 349 349 350 352 352 351 348 347 345 343 343 344 345 344 344 343 343 337 331 329 333 332 332 338 336 334 336 336 337 339 339 338 339 340 341 341 341 341 340 339 340 340 341 341 341
348 354 351 350 350 348 351 353 352 352 353 348 346 344 344 345 346 345 344 344 342 331 330 328 330 332 331 334 334 334 334 335 335 337 339 339 340 340 341 341 340 340 340 341 341 341 341 341 342
349 348 350 350 349 348 350 352 352 351 351 350 346 344 344 345 345 345 343 343 341 330 328 328 331 332 331 332 334 334 337 338 337 338 338 338 339 341 344 341 344 342 341 341 342 343 342 342 339
341 342 342 346 345 343 345 350 351 352 351 347 345 344 344 344 344 345 343 342 337 332 329 329 330 331 330 331 334 335 343 344 341 339 342 344 344 344 344 344 344 344 342 341 342 343 344 343 340
330 335 338 338 335 340 341 346 351 350 347 346 345 344 344 344 344 344 344 342 334 331 329 328 329 330 330 332 335 339 343 344 343 343 344 343 343 345 345 343 344 344 343 342 342 341 343 342 340
329 330 329 330 332 336 344 350 351 348 347 345 345 344 344 344 344 344 344 342 331 331 329 327 329 330 330 334 336 343 342 343 343 344 343 345 345 346 343 344 344 343 342 344 341 343 342 341 340
322 325 334 334 334 335 347 352 353 346 346 346 345 345 344 345 345 345 344 342 333 333 329 326 328 329 329 334 336 342 338 343 344 343 345 345 344 344 346 345 343 342 343 343 340 341 341 341 340
324 322 330 335 332 340 350 351 352 346 347 346 345 345 345 345 346 346 345 342 334 333 329 326 326 327 328 335 336 342 342 343 344 345 345 346 344 344 345 347 345 342 343 337 338 339 340 339 340
322 323 329 336 336 340 349 350 352 347 347 348 346 346 345 345 345 346 346 345 336 335 331 327 326 326 327 332 339 342 344 345 345 343 344 345 344 342 344 345 345 345 342 340 340 340 340 341 339
324 326 326 333 336 338 342 349 353 350 347 347 347 346 346 345 345 346 346 345 340 337 333 329 327 326 326 330 335 341 344 343 343 344 344 344 343 344 343 344 345 345 341 342 343 341 341 340 338
322 325 329 330 330 337 339 342 348 351 350 348 346 346 346 346 346 346 347 346 345 338 337 330 328 328 326 337 337 341 342 342 343 343 344 343 342 343 344 345 344 345 345 342 341 341 342 341 338
320 322 326 328 330 334 342 343 349 351 350 350 348 347 346 346 346 347 347 347 346 340 338 331 329 328 328 333 340 341 341 342 343 343 343 343 342 343 343 345 345 344 346 345 344 342 342 341 340
320 320 322 324 327 338 343 347 351 351 353 351 350 349 348 347 346 346 347 347 346 343 340 336 332 332 328 330 330 336 339 340 340 343 344 344 343 342 342 343 347 346 345 345 342 344 343 341 343
319 319 319 321 325 329 332 348 345 349 354 353 350 349 349 348 347 347 347 347 346 345 343 340 336 340 332 331 335 339 342 341 340 341 342 344 344 344 342 342 345 344 345 345 346 343 345 344 341
319 323 321 321 322 328 331 335 343 344 348 349 350 349 349 348 348 348 347 347 347 346 343 345 341 341 342 337 338 340 341 342 342 342 342 342 342 343 343 342 342 344 345 346 346 345 345 346 341
322 323 328 326 325 327 331 333 336 338 342 342 346 349 349 349 348 348 348 347 347 347 346 344 345 343 343 342 340 341 342 342 342 342 343 342 340 339 339 339 341 341 344 346 346 347 346 344 346
325 327 325 329 326 325 330 335 336 334 334 339 342 344 347 350 349 349 349 348 347 346 345 344 345 346 343 343 342 341 341 342 343 343 343 343 341 336 332 335 337 340 343 347 348 349 347 347 345
325 329 327 327 326 328 328 332 332 331 334 334 335 340 343 345 349 350 349 349 348 346 345 344 344 345 345 343 343 342 342 341 342 343 343 343 343 340 333 331 337 337 341 345 346 348 349 348 347
324 325 329 329 328 331 329 331 333 335 334 333 336 337 339 342 344 348 349 349 348 348 345 343 343 343 344 343 343 343 342 342 342 343 344 343 343 342 339 331 335 339 342 344 344 345 346 349 349
323 324 325 328 329 330 332 330 330 332 335 335 335 336 339 342 343 345 349 349 348 348 348 345 342 342 343 341 341 342 342 342 342 342 344 345 344 343 340 335 333 337 340 343 345 345 346 347 349
317 322 324 328 332 331 330 331 330 331 331 330 331 332 336 340 342 344 348 350 350 349 348 347 345 342 342 343 344 344 344 343 343 343 343 344 344 344 343 337 331 333 337 342 346 346 347 348 349

GFSSGP_850_thetae_072.txt.gz
Theta_e
342 346 352 350 358 355 361 359 355 356 351 348 346 346 348 349 351 358 348 349 348 349 347 344 340 335 331 330 331 332 333 334 336 334 332 332 337 338 339 335 331 342 340 329 324 325 328 329 327
348 350 349 350 362 363 359 355 357 354 348 347 348 348 348 351 347 348 348 349 349 349 349 346 332 331 330 332 336 343 342 341 342 341 341 341 342 339 335 329 339 337 337 330 323 325 336 337 328
351 349 352 357 360 363 359 356 355 352 348 348 351 350 350 350 348 347 348 348 349 349 347 339 333 332 333 334 334 339 343 339 341 341 342 343 343 338 330 340 340 338 333 336 329 326 328 333 334
351 350 353 360 361 357 355 356 351 350 349 348 350 352 348 348 347 347 348 348 350 348 346 331 332 334 334 337 341 341 340 343 342 343 342 342 343 342 339 338 333 336 330 337 338 334 336 338 339
351 353 359 360 357 355 353 354 354 350 351 351 350 351 348 347 347 348 348 348 347 345 345 337 340 345 337 340 336 333 331 332 333 343 343 343 341 339 341 340 336 338 332 338 339 340 340 339 337
353 353 359 359 355 354 354 354 355 354 353 351 351 350 347 346 347 348 348 347 343 344 343 344 342 338 341 333 335 340 338 341 334 338 338 338 339 343 340 338 338 339 338 333 337 339 339 339 337
354 356 358 357 356 355 355 354 354 355 353 352 351 353 347 346 347 347 347 344 341 342 344 345 346 340 333 332 342 344 343 342 340 343 342 342 342 341 341 336 335 335 338 335 335 339 340 339 337
353 356 356 354 355 358 353 352 354 355 354 351 350 352 348 347 347 346 344 343 342 342 344 345 347 350 346 342 340 341 343 342 337 339 342 342 341 340 339 340 339 338 337 337 335 338 338 339 338
351 359 357 355 354 355 351 353 351 354 352 350 349 348 348 347 348 346 344 342 343 343 343 344 345 351 348 346 344 344 342 343 340 342 343 346 349 348 349 340 339 339 339 338 336 338 339 337 336
349 357 355 351 352 353 352 354 354 353 351 350 349 347 348 348 348 346 344 342 343 343 343 343 344 347 347 348 346 348 345 347 349 349 349 349 349 348 347 341 339 339 339 340 339 340 342 347 346
345 352 351 351 350 348 352 354 354 353 354 351 349 347 348 348 348 346 345 344 343 343 342 342 345 347 346 348 347 347 347 348 347 344 347 349 349 349 348 347 346 346 344 346 346 344 347 347 347
343 344 351 350 350 348 353 353 353 353 353 352 349 347 347 348 347 346 345 345 344 343 341 343 346 347 347 347 346 346 346 347 347 348 340 347 349 351 349 348 346 348 349 344 348 347 349 348 347
338 342 345 348 350 348 348 351 352 352 353 351 349 347 347 347 346 345 344 344 343 341 341 344 346 346 347 347 346 346 347 347 347 347 346 350 352 346 349 349 351 350 349 348 349 348 347 348 347
329 333 339 342 344 345 347 349 350 352 352 351 349 347 347 347 346 345 344 344 342 342 341 344 346 345 345 347 346 348 349 349 348 350 349 345 353 346 349 348 351 350 349 348 349 346 349 347 347
326 330 331 334 342 343 344 348 353 352 351 351 349 348 347 347 346 345 344 344 343 342 342 344 345 344 343 344 337 347 349 349 350 351 344 347 348 345 345 350 351 350 349 345 346 342 348 344 346
323 326 331 333 341 342 347 353 352 351 351 351 350 348 347 347 346 345 344 344 342 342 343 344 343 342 340 345 337 347 348 348 349 349 351 347 346 345 345 348 349 345 348 349 348 347 345 343 345
323 324 327 341 341 345 348 352 355 351 352 352 350 349 348 347 346 346 345 344 342 343 344 344 343 341 343 340 340 345 346 348 349 349 350 346 345 344 351 346 346 344 346 346 345 345 346 344 342
324 323 326 338 342 346 351 352 354 352 351 352 351 349 348 348 347 347 346 344 343 344 344 343 343 342 342 343 337 345 346 348 349 349 349 346 348 342 349 345 346 347 346 346 346 345 344 343 340
324 325 326 332 342 346 348 352 354 351 351 352 351 350 348 348 348 348 347 345 343 344 344 342 342 342 339 340 342 345 346 347 350 350 345 345 345 343 342 351 345 343 347 350 344 345 342 342 342
323 325 326 331 337 343 346 348 349 354 351 351 352 351 348 348 348 348 348 347 344 344 344 343 339 335 330 340 343 345 347 348 349 350 346 346 343 343 346 348 347 346 346 344 346 347 346 343 341
323 324 326 328 334 339 344 347 345 348 351 349 351 351 349 347 348 348 348 348 346 344 345 344 327 326 326 340 341 346 349 350 350 349 348 346 343 344 344 344 347 346 344 348 349 348 348 343 343
323 323 323 326 331 340 341 348 347 345 352 351 350 350 350 348 348 348 348 348 347 346 346 346 341 326 326 327 342 346 346 345 345 347 348 348 344 345 347 344 343 343 351 345 347 348 349 345 342
323 323 323 323 327 333 342 347 344 347 351 352 351 350 349 349 348 348 349 349 348 348 346 347 345 331 328 327 337 345 344 342 345 346 349 349 349 344 344 343 343 343 350 347 345 343 345 347 346
322 322 322 323 323 328 334 340 344 349 350 352 350 350 350 350 349 349 348 349 350 349 347 346 347 333 329 328 328 332 341 343 347 347 346 347 348 349 345 348 342 341 348 345 351 350 343 349 346
323 322 327 324 323 323 328 334 339 340 346 347 350 350 350 350 350 350 349 348 349 350 349 348 347 340 331 333 329 329 331 342 351 350 348 346 346 346 347 343 340 348 342 348 349 346 347 345 351
325 326 325 329 325 323 324 329 334 337 337 341 341 344 347 349 350 351 350 350 349 349 350 349 348 339 334 339 335 331 334 345 348 347 347 348 346 345 347 349 347 339 348 351 350 349 350 352 348
328 327 327 327 330 330 326 326 331 334 336 338 338 341 344 347 348 349 350 351 350 350 349 349 348 344 339 337 340 339 336 340 347 347 348 349 349 348 348 347 344 346 343 342 353 352 351 351 348
326 328 329 330 331 332 330 328 328 333 337 338 338 337 339 341 346 348 349 350 351 351 351 350 350 347 344 344 341 342 341 339 340 343 342 347 349 347 347 342 339 341 342 338 343 351 352 352 352
326 327 329 330 331 333 332 330 330 332 334 336 337 336 337 337 340 345 348 350 351 351 351 352 351 352 351 348 346 344 342 340 340 341 341 341 343 344 343 343 339 336 345 342 342 346 350 353 353
322 327 327 331 333 332 333 331 331 331 332 335 335 335 335 336 340 342 347 351 351 352 352 352 352 351 351 351 346 345 343 342 344 341 343 342 342 344 344 343 340 337 344 347 341 343 350 351 352

GFSSGP_850_thetae_075.txt.gz
Theta_e
342 346 352 353 359 362 364 362 356 353 352 349 348 347 351 350 355 360 350 349 349 348 346 344 343 342 341 340 338 336 334 336 339 339 336 332 333 344 336 334 339 342 330 325 324 328 329 330 332
350 351 353 353 365 366 363 358 357 352 349 349 348 349 350 353 351 350 350 349 349 348 348 347 338 333 331 337 334 334 334 336 337 335 335 341 341 337 330 340 337 337 332 323 323 337 338 329 337
351 352 354 360 363 364 362 357 355 351 349 351 352 349 352 351 350 350 349 349 349 348 349 343 333 332 335 342 345 343 340 342 341 341 341 342 338 331 335 340 338 334 341 330 326 330 334 334 333
352 353 354 363 361 356 358 356 353 351 349 351 350 353 351 351 350 350 350 349 348 348 347 338 333 338 334 335 341 342 341 342 342 342 342 342 341 336 340 332 335 329 337 337 332 334 339 338 334
351 354 360 363 360 355 355 353 352 352 350 350 352 354 351 349 350 349 350 350 348 345 346 341 338 335 340 342 339 336 338 339 343 342 342 342 340 340 337 334 337 332 338 339 340 340 338 337 337
352 354 362 363 359 355 355 354 352 352 352 351 353 352 351 349 350 348 350 350 345 345 344 346 344 338 340 334 332 331 332 333 341 342 342 341 341 341 337 337 339 336 334 337 339 339 339 336 335
355 359 361 357 357 357 356 355 353 354 353 352 352 355 351 348 349 349 349 345 344 342 345 347 346 343 334 337 341 341 342 340 342 339 339 340 340 338 335 335 336 338 333 335 339 339 338 336 335
352 356 359 354 357 360 352 355 354 352 354 353 353 355 352 349 349 349 347 343 342 343 345 348 347 347 346 345 343 343 342 342 340 339 341 341 338 338 340 339 337 337 337 334 338 338 338 337 337
346 355 361 356 356 358 352 353 354 354 354 353 352 353 351 349 349 348 344 342 341 343 345 346 347 346 346 348 344 343 343 338 340 341 343 347 347 349 350 344 338 338 336 335 337 336 335 335 337
347 350 357 352 353 355 352 351 352 353 352 353 351 351 350 348 348 346 343 342 341 343 344 344 347 347 346 348 346 349 347 348 349 346 349 348 349 349 347 340 338 339 339 338 340 343 345 345 344
344 349 355 355 351 353 353 353 353 351 352 351 351 351 349 348 347 345 343 342 341 343 343 343 347 345 349 346 350 346 350 349 351 349 350 347 346 347 349 344 345 341 345 345 342 346 347 348 347
344 343 345 351 350 349 354 353 351 354 353 352 351 351 349 348 347 345 343 342 342 343 343 343 347 346 350 345 347 347 347 348 347 349 349 348 350 349 348 348 348 348 349 348 347 347 347 346 347
338 342 342 351 351 350 351 353 352 353 351 351 351 351 349 348 348 345 344 343 342 343 343 345 346 348 350 348 348 346 347 345 349 348 349 349 350 351 350 350 349 350 347 348 348 345 348 346 344
333 337 340 346 348 349 349 351 350 353 352 352 351 351 349 349 348 346 345 344 343 343 343 345 347 348 349 350 349 348 346 349 346 348 349 350 351 352 350 350 349 348 349 348 348 348 344 344 345
330 332 334 339 343 346 348 352 352 353 352 352 351 350 350 349 348 347 346 345 343 342 342 346 347 347 349 351 348 348 350 346 349 348 347 353 351 347 351 350 350 349 350 346 344 343 344 346 342
328 329 333 334 336 341 346 353 351 353 352 353 352 350 350 349 348 347 346 345 342 341 342 346 345 346 348 349 349 349 347 348 349 350 350 352 350 348 351 351 351 349 350 348 347 347 346 345 341
325 327 330 334 335 341 346 351 356 352 352 353 352 350 350 349 348 347 346 346 343 341 343 345 345 345 348 350 348 350 349 349 349 350 351 352 351 349 352 352 351 348 349 346 346 347 345 345 342
325 326 329 333 338 342 347 351 356 353 352 353 352 350 350 349 349 347 346 346 344 342 344 345 345 344 347 349 348 349 349 349 350 349 350 345 353 351 353 352 351 347 347 345 345 346 343 341 343
327 327 327 331 339 344 346 350 357 352 352 353 353 352 350 350 349 348 347 346 344 343 345 345 345 344 346 347 347 347 347 348 348 348 352 350 353 352 349 352 349 350 348 349 345 344 341 340 339
326 326 327 328 331 343 346 347 353 353 352 352 352 353 350 350 349 349 348 347 345 344 345 345 345 344 345 345 345 346 346 347 348 348 351 352 351 353 351 353 346 346 350 351 348 349 344 341 340
326 326 327 328 331 336 343 347 353 356 354 352 352 352 350 349 350 349 349 348 346 344 346 346 344 345 342 343 344 346 347 349 348 351 350 351 352 352 355 347 352 347 350 350 350 346 350 344 339
326 326 326 327 329 338 340 347 347 358 357 352 351 352 351 347 350 350 350 349 347 345 346 346 345 344 340 340 342 345 347 346 347 348 347 351 351 352 352 352 353 351 349 352 352 349 351 350 341
326 326 325 325 327 331 336 341 341 347 352 352 351 351 351 349 348 350 350 350 349 347 345 347 346 343 342 335 341 344 346 346 346 346 349 349 350 352 351 352 353 352 350 351 353 351 348 346 348
327 326 326 326 325 326 332 338 341 344 347 350 350 349 350 351 349 349 350 350 350 349 347 347 347 344 336 335 335 343 344 345 344 345 350 349 351 351 352 351 352 352 354 350 351 349 343 351 347
327 328 328 327 327 326 326 332 342 341 345 346 350 350 350 350 350 349 350 350 350 350 349 347 348 347 334 333 331 342 343 340 346 348 347 347 346 347 349 348 352 352 344 356 353 347 351 346 349
328 327 328 330 328 326 326 328 334 338 343 344 348 349 349 350 350 350 350 350 351 351 351 349 349 348 341 330 328 329 333 344 344 350 348 346 346 345 347 348 352 352 354 352 353 352 352 349 350
328 328 328 328 330 329 327 327 328 332 336 342 343 348 349 350 351 351 351 351 351 351 352 351 350 349 347 337 329 328 329 333 345 348 346 351 348 347 348 349 353 352 351 353 352 352 351 353 352
327 329 329 329 332 332 331 330 327 330 334 337 340 344 345 349 349 350 351 351 351 351 351 352 351 352 348 345 335 331 329 329 340 348 349 350 349 349 351 350 350 351 351 352 352 351 352 353 349
327 328 330 331 330 332 333 333 332 330 333 336 337 339 341 343 346 347 348 351 352 352 352 352 353 353 353 351 345 341 337 334 331 346 348 348 352 352 350 352 352 349 350 352 352 349 350 354 352
324 327 328 332 334 332 333 333 333 332 331 334 336 337 338 339 342 344 347 349 351 352 352 352 353 353 355 354 350 345 342 340 342 337 344 348 348 350 350 347 351 350 348 350 352 354 349 352 353

GFSSGP_850_thetae_078.txt.gz
Theta_e
341 345 351 352 360 361 365 361 356 354 352 349 349 351 352 352 354 359 348 350 349 349 342 344 345 344 343 342 341 341 342 342 341 339 333 332 339 336 333 340 342 329 326 325 327 329 333 334 333
348 349 353 355 363 366 363 358 355 352 349 350 350 351 352 354 351 350 351 350 348 348 346 344 343 342 339 334 333 334 333 334 334 333 334 342 337 332 340 339 335 333 322 324 340 337 330 335 331
351 352 352 358 364 364 363 355 352 351 351 349 353 353 351 351 351 350 349 349 349 348 349 340 335 331 333 337 337 335 338 340 339 340 341 340 333 336 339 339 333 341 326 326 333 333 333 334 334
353 352 353 362 363 360 358 356 351 351 352 352 351 353 351 351 350 350 349 349 349 350 346 332 332 333 339 343 343 338 340 340 340 341 342 339 333 340 332 334 331 337 332 331 334 336 335 332 330
352 354 360 364 361 358 354 353 351 350 352 352 353 353 350 351 350 350 349 348 348 348 337 335 342 335 335 339 342 342 342 342 341 341 342 340 337 333 334 337 332 338 338 340 339 338 336 336 333
353 355 364 365 360 354 352 352 352 351 352 353 352 350 350 350 350 350 349 349 348 347 346 336 336 341 342 337 334 333 338 343 342 341 340 337 338 337 337 338 335 336 338 339 338 336 335 332 328
351 358 362 361 360 358 357 353 352 353 352 353 352 353 351 350 351 349 348 348 345 344 347 343 339 339 333 332 334 337 333 339 338 338 339 339 335 336 335 337 338 332 337 339 339 337 334 333 331
347 352 359 359 359 361 355 354 355 353 353 353 354 354 351 349 348 349 349 345 343 347 347 348 344 335 339 342 341 340 340 341 338 339 339 337 337 340 339 337 337 334 333 339 339 336 336 333 336
346 350 357 360 359 358 355 356 354 352 353 354 354 353 350 349 349 349 349 343 344 344 347 346 347 346 346 345 342 339 340 339 339 341 341 343 348 348 337 339 337 334 333 336 337 336 335 337 341
346 350 358 353 353 351 351 353 345 353 355 353 353 352 351 349 348 349 343 343 343 345 347 346 345 347 346 349 342 339 342 342 346 348 346 337 348 349 340 338 338 337 337 339 340 336 337 342 341
345 347 347 347 347 350 351 351 355 355 356 352 354 352 351 349 348 347 342 342 343 344 346 347 345 345 349 343 341 347 350 346 346 349 347 348 350 348 345 344 340 342 341 341 345 337 342 346 343
344 344 347 345 347 352 354 354 354 352 353 353 352 351 350 349 349 345 343 341 344 344 344 348 346 346 348 345 347 347 346 350 344 348 347 348 348 345 343 348 349 348 347 346 345 346 344 344 346
339 341 341 345 347 353 350 349 353 347 351 353 352 350 350 348 347 344 343 342 343 344 344 349 346 344 347 345 348 349 346 346 348 346 349 343 351 351 349 351 346 342 348 347 343 349 348 347 345
336 337 337 343 350 352 352 351 353 353 352 353 352 350 350 348 347 344 343 342 343 344 344 348 345 347 346 348 348 347 343 349 347 348 348 349 350 352 347 351 348 346 341 348 347 341 345 345 344
330 334 334 339 342 349 349 351 354 353 352 352 352 350 349 348 347 345 344 343 343 343 344 348 346 346 343 349 347 347 345 349 347 349 349 346 346 347 352 351 350 350 346 343 343 344 346 345 343
328 330 333 334 337 343 347 354 352 351 353 352 352 351 350 348 349 346 345 344 344 344 345 347 346 347 345 350 344 349 348 350 346 347 350 348 346 346 351 351 350 350 345 347 347 346 346 340 342
328 328 330 333 336 338 343 351 358 352 352 352 351 351 350 349 349 348 347 345 344 343 343 347 346 347 346 350 344 350 349 350 348 349 346 350 346 346 350 352 349 347 348 346 345 341 344 346 344
328 327 327 331 335 336 338 352 351 347 345 350 351 350 350 350 349 349 347 347 344 342 342 347 346 347 346 349 346 351 351 349 349 352 352 348 350 345 350 351 344 348 345 345 348 344 340 341 341
328 327 327 328 332 335 337 350 348 342 341 345 351 350 350 350 349 349 348 347 344 342 343 346 346 346 344 349 345 350 348 350 348 349 352 351 351 345 349 351 344 349 345 343 348 344 343 345 340
329 327 327 328 329 333 342 353 345 343 340 342 347 351 350 350 349 349 348 347 345 343 344 345 345 346 343 349 346 348 349 349 348 349 351 345 352 352 349 348 351 349 349 345 345 341 344 341 339
328 327 327 328 329 330 338 356 347 343 345 348 352 351 350 351 350 349 348 347 346 344 344 344 346 347 344 347 346 347 347 346 347 350 351 347 348 348 354 347 349 346 348 343 342 347 347 342 340
327 327 327 327 328 329 331 335 358 353 355 353 352 349 350 349 351 350 348 348 347 345 345 345 345 346 344 345 345 346 347 349 344 347 351 345 350 350 344 344 344 342 349 352 343 345 347 347 343
327 327 327 326 327 328 329 336 339 357 355 346 345 349 349 346 351 350 350 349 348 347 346 346 345 347 343 341 345 345 347 346 350 347 347 350 347 351 351 346 347 343 348 347 351 349 348 345 346
327 327 327 327 326 327 328 331 338 357 348 340 344 350 351 347 348 350 350 349 349 348 346 348 346 344 340 337 344 344 346 347 347 346 350 352 351 346 351 352 349 344 349 349 345 344 342 347 347
328 327 328 328 327 326 326 328 335 343 353 346 344 351 351 349 348 349 349 351 350 349 347 348 348 346 339 330 339 343 341 347 347 345 351 350 351 352 346 349 349 343 348 352 346 343 341 344 346
328 328 329 330 328 327 327 329 329 333 335 350 352 351 351 351 349 350 351 351 351 351 348 347 348 347 345 334 327 341 342 343 347 350 345 349 348 348 349 349 346 344 350 348 349 346 343 342 341
328 330 329 329 329 329 328 328 328 331 334 343 345 346 349 346 351 350 351 351 352 351 351 348 348 348 347 340 327 330 333 335 345 347 349 346 348 347 346 348 347 343 351 352 347 345 349 353 350
327 328 329 330 332 334 330 333 331 331 332 342 346 343 342 348 348 352 351 352 352 352 352 351 349 349 348 346 334 326 326 326 333 342 347 351 348 347 352 347 347 345 351 350 352 350 346 349 348
328 329 328 329 330 331 332 331 334 333 333 334 346 345 343 346 348 351 352 351 352 353 352 354 352 351 350 349 347 335 327 327 327 339 343 348 350 348 349 352 350 349 347 351 349 345 353 354 350
326 327 328 331 333 332 333 333 336 335 331 332 334 342 341 340 346 341 350 352 352 353 353 354 354 354 353 351 350 347 336 328 327 329 341 346 348 348 346 348 352 349 344 344 344 345 347 353 354

GFSSGP_850_thetae_081.txt.gz
Theta_e
341 347 350 351 359 358 363 358 355 352 351 347 348 352 354 353 353 353 345 336 337 342 342 343 343 343 343 341 341 342 341 341 340 334 332 339 335 335 338 337 329 326 326 327 336 333 334 333 333
343 349 351 352 361 361 357 356 358 351 349 350 352 353 351 352 349 347 345 340 341 343 343 344 344 343 342 340 336 335 335 335 334 336 340 336 332 339 339 332 330 322 332 341 332 329 330 331 335
349 349 351 356 360 362 361 355 351 350 351 352 352 351 351 349 349 350 346 349 346 342 344 343 342 339 333 334 335 336 335 336 335 342 341 332 337 338 337 337 336 324 331 337 329 335 334 334 335
351 353 352 358 363 353 358 353 352 352 352 352 351 351 350 350 350 350 348 348 345 343 341 337 331 333 338 343 337 339 339 340 341 341 336 334 337 335 336 335 335 329 331 333 332 331 328 332 342
353 353 358 361 362 357 355 352 352 352 353 351 351 352 351 349 348 348 349 346 346 343 334 330 331 337 341 340 337 339 340 341 341 341 339 337 332 336 335 336 338 338 338 337 335 334 332 329 344
353 352 359 361 361 357 354 351 350 353 353 351 351 351 350 349 349 349 348 347 345 341 331 334 335 333 337 339 338 341 341 341 341 341 338 337 336 337 338 334 337 339 338 334 333 330 328 331 341
351 354 359 356 359 358 353 351 350 353 351 350 350 351 350 349 349 345 349 348 345 330 331 335 338 339 334 331 330 335 342 341 340 339 338 335 335 335 338 336 333 338 338 336 334 332 329 332 339
350 351 356 351 359 354 352 350 353 353 353 350 350 351 350 349 348 348 349 348 345 329 335 336 336 332 331 333 335 334 337 336 338 338 336 338 340 338 337 337 332 338 339 336 334 332 331 339 342
346 348 355 356 355 348 346 353 355 352 353 352 352 350 350 349 347 348 347 345 344 340 338 340 331 336 338 339 339 339 338 339 339 336 343 344 343 339 338 337 333 336 336 335 334 333 338 338 340
346 347 352 352 352 349 352 354 352 354 354 354 351 351 349 349 348 346 344 346 345 340 340 336 336 339 340 340 337 337 339 343 344 339 339 345 345 344 338 338 334 336 335 334 335 337 338 340 340
343 346 350 349 348 347 348 349 350 353 355 355 351 350 347 349 350 347 345 345 343 343 345 342 345 344 340 338 341 342 341 346 347 345 347 347 347 347 340 339 338 339 342 342 335 339 340 340 341
342 342 345 346 344 350 350 352 354 354 354 352 350 349 347 349 350 348 343 344 342 347 346 343 345 346 344 343 347 344 342 343 344 347 346 341 342 336 343 344 344 344 344 335 340 344 342 342 342
340 339 343 346 347 347 351 353 348 347 352 352 350 349 348 349 349 345 343 342 340 347 346 344 345 344 346 347 347 346 343 345 344 342 344 344 346 344 346 345 343 344 341 340 344 345 343 345 343
337 338 338 346 347 351 352 353 349 349 351 352 351 350 349 348 348 342 343 342 341 346 347 346 346 346 346 350 350 348 347 348 348 345 344 347 346 347 345 341 343 342 339 336 343 343 344 343 344
330 329 329 338 344 353 353 352 349 348 352 351 351 350 348 348 349 342 342 342 342 348 348 347 344 345 345 348 349 348 349 350 346 347 347 345 348 348 345 347 346 344 343 341 342 344 343 342 344
328 325 327 329 334 343 353 358 354 352 350 352 350 350 348 347 347 343 342 342 342 347 347 347 345 340 346 347 347 347 346 350 349 349 347 343 345 347 349 350 345 345 346 343 343 344 340 341 344
328 322 325 327 329 335 344 358 353 351 352 353 350 350 349 348 345 343 342 343 342 345 345 347 346 340 345 346 345 348 348 349 347 345 347 344 344 350 349 348 347 350 347 346 343 342 342 342 342
328 324 323 324 328 332 337 358 354 352 352 352 350 350 349 348 347 345 343 343 343 344 344 346 346 342 345 341 346 349 349 349 347 347 349 343 347 349 350 349 346 346 346 345 345 343 343 342 343
327 327 325 324 325 330 335 358 356 352 347 350 351 350 349 348 349 346 344 344 343 344 344 344 347 345 340 338 348 348 348 347 345 349 351 348 347 348 349 345 347 344 345 344 345 341 344 343 342
326 326 326 325 326 327 348 355 350 347 343 348 349 348 350 348 348 349 347 345 344 343 343 344 347 346 345 338 348 350 348 344 349 350 350 348 341 344 347 343 347 347 345 344 348 342 344 340 340
325 324 325 325 325 325 346 351 344 343 343 340 344 343 348 349 347 349 347 345 344 342 343 344 345 347 345 339 347 347 347 348 350 351 350 347 342 344 349 346 347 348 344 338 340 341 340 340 340
323 325 326 326 323 323 324 346 348 345 347 345 346 346 347 349 349 349 348 346 344 343 342 343 345 346 345 343 337 344 348 346 348 349 350 348 344 344 344 343 345 345 347 348 341 344 345 340 340
324 326 325 325 323 322 323 322 348 346 349 348 346 336 342 349 350 348 348 348 346 345 343 343 343 345 345 343 338 345 346 347 346 347 346 345 345 347 348 348 340 341 344 348 344 342 344 347 342
326 325 324 323 322 320 321 323 344 351 347 343 349 345 348 350 350 348 348 348 347 345 343 342 343 343 345 343 338 344 345 347 348 344 348 348 349 343 349 351 342 339 346 343 350 348 345 346 343
326 325 323 323 323 323 320 321 322 351 349 345 349 351 348 349 350 350 349 348 348 346 344 343 343 343 342 342 339 336 343 346 347 349 346 349 349 346 338 345 338 335 343 347 342 343 342 344 346
323 323 323 326 325 324 322 322 323 329 350 347 346 347 341 349 351 350 350 348 349 348 346 345 344 344 344 337 338 335 335 342 345 348 346 349 349 345 347 346 344 340 334 338 346 343 341 342 346
323 323 323 323 324 326 326 324 324 324 330 345 341 342 345 350 347 351 350 350 349 349 348 347 346 345 345 341 332 337 332 342 345 348 350 352 349 348 348 349 348 346 342 339 341 341 341 341 340
323 324 325 323 327 328 327 327 327 324 324 344 347 348 350 350 348 349 350 351 349 349 349 347 347 346 346 345 335 331 331 329 345 346 346 347 348 348 348 349 349 347 345 334 344 345 345 348 349
320 323 323 324 325 326 326 326 327 334 327 338 345 347 350 344 350 349 350 351 351 350 350 349 347 347 346 346 345 331 333 329 334 346 347 347 345 346 348 350 348 347 346 333 335 342 345 347 348
317 318 324 326 326 327 329 329 331 333 337 332 343 345 346 343 350 349 349 351 350 351 352 350 349 347 347 347 346 346 329 328 326 332 345 342 348 345 352 351 350 349 348 336 334 337 338 350 354

GFSSGP_850_thetae_084.txt.gz
Theta_e
341 345 349 351 358 355 358 359 354 352 351 347 343 347 350 351 352 348 338 335 333 338 339 339 338 341 341 341 339 339 340 340 335 331 341 334 339 342 333 328 328 327 334 338 335 335 334 332 337
343 350 351 352 359 358 358 355 356 350 347 347 351 352 351 351 348 342 336 334 334 339 341 340 341 342 341 340 341 341 341 336 332 338 339 334 339 339 331 326 324 336 334 335 330 333 332 335 338
345 349 351 355 355 357 360 354 351 350 352 352 351 351 350 347 344 339 334 334 338 341 343 342 342 341 340 334 333 336 334 333 341 342 333 338 339 336 342 326 326 341 340 333 332 330 333 338 342
350 352 352 357 353 353 354 354 351 352 351 351 350 349 349 345 343 340 334 336 341 342 344 342 341 334 332 335 338 345 340 339 341 337 334 338 338 336 339 336 327 330 329 328 331 333 333 339 344
351 352 356 358 360 356 351 353 352 353 352 351 350 350 350 349 346 337 340 342 342 343 342 338 332 340 344 338 341 339 339 340 341 334 341 336 339 333 338 336 338 337 336 333 329 331 339 345 344
353 352 358 358 357 356 354 352 353 352 352 351 350 349 349 349 346 347 346 342 342 339 332 334 340 342 338 338 340 340 340 341 341 339 342 340 339 335 337 338 338 336 333 333 333 329 342 342 345
350 352 357 353 354 352 350 351 353 352 351 350 350 349 348 348 348 347 344 342 339 332 329 334 334 340 338 337 341 340 340 340 339 337 336 337 337 337 333 337 338 335 334 332 329 330 342 344 344
350 349 354 354 354 352 346 348 353 351 351 350 349 349 348 348 348 347 345 344 340 330 332 333 335 334 331 330 336 339 339 339 339 335 336 336 336 337 335 333 338 336 334 333 331 331 338 342 342
348 350 351 354 354 350 346 350 350 353 350 350 351 349 348 348 348 348 348 343 332 331 333 335 335 330 330 332 335 336 337 338 336 338 341 339 338 337 334 332 336 337 334 332 330 335 341 342 343
347 345 350 352 352 351 347 345 350 352 352 349 351 349 348 348 348 348 348 342 330 334 333 332 332 335 337 337 338 338 338 337 337 340 344 342 341 339 336 333 334 334 334 333 337 338 340 340 341
340 347 353 351 349 349 348 351 349 352 352 351 351 349 348 347 347 348 348 343 336 335 333 330 337 338 337 335 338 339 343 340 342 345 344 345 342 338 338 337 337 336 335 336 338 337 339 342 344
338 340 348 350 349 347 350 351 350 353 352 349 350 348 349 348 346 347 344 344 339 335 334 341 338 339 337 341 338 342 343 345 345 346 346 341 339 341 341 340 340 342 341 339 340 341 342 342 343
336 338 342 347 347 350 347 353 354 351 352 352 350 350 349 348 345 346 344 342 343 342 342 340 341 340 342 344 342 341 340 342 340 342 344 344 343 342 343 342 338 344 335 339 343 342 342 343 343
336 335 337 347 349 350 352 353 349 348 352 350 350 350 349 349 345 345 343 342 346 346 342 342 343 343 345 347 345 344 344 345 345 344 345 345 343 337 339 342 341 338 337 343 341 341 344 344 343
335 328 325 346 351 352 353 354 348 348 351 350 349 348 348 349 347 344 343 342 347 347 344 343 343 345 348 348 349 346 347 348 347 345 343 345 344 344 344 342 342 341 341 341 342 343 343 345 342
329 323 324 336 348 351 350 356 353 348 354 350 349 348 348 348 345 345 342 342 346 345 346 345 346 346 349 347 347 347 349 349 347 348 347 343 346 346 344 342 342 342 341 341 344 342 341 343 343
323 329 326 323 347 353 352 355 349 349 353 350 349 349 348 348 345 343 342 341 342 346 347 345 344 346 346 348 346 349 349 348 348 347 345 344 346 346 345 344 344 344 341 341 345 341 341 343 342
328 327 321 322 323 351 352 356 349 351 354 352 350 349 348 347 347 343 342 341 342 346 347 346 345 343 345 348 347 346 349 348 347 347 346 343 346 347 347 346 345 344 344 342 342 343 342 342 342
325 325 325 325 325 324 348 356 352 346 352 350 350 350 349 347 347 343 342 341 342 346 346 346 345 343 342 346 345 347 346 348 346 348 348 344 345 348 348 346 347 346 345 347 342 341 342 342 342
325 325 324 323 324 323 352 357 354 349 352 344 345 349 349 348 347 343 342 342 341 343 346 345 344 340 337 339 345 348 346 348 346 348 349 346 344 348 347 345 345 347 344 345 343 342 344 341 340
324 323 323 323 323 342 351 355 356 352 351 350 344 350 350 348 348 345 343 343 342 342 344 344 344 341 343 337 346 348 349 349 348 349 349 347 344 345 343 344 347 346 345 344 341 342 342 339 340
324 323 324 324 322 321 335 336 347 348 345 345 351 350 350 348 348 348 344 343 343 343 343 343 343 341 341 338 346 349 346 346 349 350 346 348 346 343 347 344 346 347 343 339 340 341 341 339 340
325 324 323 324 322 319 321 323 338 343 345 343 345 347 345 348 348 348 346 344 343 343 343 343 342 341 341 344 343 347 346 346 347 348 348 349 345 341 341 344 343 343 345 341 341 343 341 341 339
324 323 320 318 318 320 318 319 331 347 345 343 341 345 346 349 348 347 348 346 345 344 343 343 342 342 342 342 341 342 344 346 346 347 350 349 344 342 347 349 342 339 342 345 339 342 343 346 339
323 319 321 322 320 320 317 319 319 342 343 343 342 343 345 348 348 348 348 346 346 344 343 343 342 342 342 341 342 336 341 343 346 345 347 346 347 345 342 346 347 337 343 342 344 342 344 345 340
321 319 321 325 323 321 319 322 321 324 341 342 344 344 341 340 347 348 348 347 346 346 344 343 343 343 342 342 339 337 338 344 346 349 345 347 347 347 344 338 338 334 334 346 343 341 339 341 343
320 321 318 320 320 321 321 323 324 334 333 340 342 345 344 344 345 348 349 348 347 347 346 345 345 344 343 343 341 337 334 342 346 348 348 346 347 347 344 346 346 345 343 335 337 339 342 339 343
314 315 322 317 324 325 324 324 324 334 337 339 342 345 348 348 349 350 349 348 347 348 347 347 346 346 344 343 343 340 333 334 344 346 349 346 347 346 346 347 348 347 346 344 338 338 338 340 340
314 315 314 318 318 322 324 324 332 334 338 337 339 342 347 343 348 350 349 349 348 348 347 347 345 345 345 345 344 344 335 330 336 344 348 350 351 349 346 349 348 349 347 346 335 338 340 343 345
314 313 312 316 322 320 320 325 329 334 335 337 341 342 343 347 348 350 350 350 349 348 348 348 348 346 345 347 346 345 342 330 329 340 345 347 350 349 347 348 349 349 347 346 338 331 337 339 343

GFSSGP_850_thetae_087.txt.gz
Theta_e
339 337 345 349 357 355 356 355 350 352 348 344 340 344 348 349 350 345 337 332 331 332 335 334 337 339 338 336 338 339 340 337 332 341 334 340 336 331 330 329 333 336 335 336 335 335 335 339 341
342 348 350 352 359 359 356 353 356 351 347 343 342 349 350 350 347 340 335 332 331 332 334 335 339 340 340 338 338 339 339 333 339 338 334 339 339 330 328 327 326 329 337 332 334 333 335 339 344
347 349 350 354 353 357 357 354 353 348 344 344 351 350 348 347 343 337 334 332 332 335 337 338 341 340 342 340 339 339 334 338 341 334 336 338 332 334 323 328 341 338 330 329 334 332 335 339 343
345 350 351 357 356 349 353 353 351 350 351 351 348 348 347 346 338 337 334 332 335 340 340 341 342 340 335 333 338 335 334 342 341 333 340 338 337 339 324 332 339 330 337 334 329 332 338 342 344
349 351 355 357 357 352 351 349 352 352 352 350 350 350 345 346 341 334 333 334 339 342 342 341 339 333 334 337 344 341 343 341 334 338 334 338 337 339 337 330 331 331 328 333 332 335 343 343 341
352 351 357 358 357 349 350 353 351 352 351 349 348 348 348 348 337 333 333 338 341 342 342 338 338 343 340 342 340 339 340 340 335 337 337 338 338 339 339 338 336 334 332 330 335 343 343 343 342
350 350 356 354 354 352 348 347 350 351 350 349 348 348 348 345 336 335 337 341 343 342 337 336 342 341 339 340 339 340 340 343 342 339 339 337 334 336 338 339 334 333 333 331 334 342 343 343 340
349 348 353 353 356 353 346 349 350 351 350 348 347 348 347 343 340 344 342 342 341 335 331 344 342 343 341 344 340 339 340 338 336 335 335 336 336 332 337 337 334 332 330 329 333 341 343 341 340
347 351 350 352 355 352 349 348 349 352 350 350 351 347 347 347 346 344 343 339 334 330 332 333 335 334 331 339 340 340 338 336 335 337 338 337 336 332 336 337 334 332 331 329 335 339 341 340 342
346 347 349 350 350 352 349 347 348 351 351 350 348 347 347 347 347 344 343 342 333 331 333 334 334 330 331 335 337 337 337 335 340 339 338 338 337 333 333 336 334 333 332 331 334 339 341 342 342
340 347 347 351 349 348 347 346 350 353 352 349 347 347 347 348 347 346 341 332 329 331 333 333 331 335 336 337 337 337 336 339 342 342 342 339 338 334 333 335 333 333 333 336 338 340 341 341 343
336 338 348 350 349 347 348 349 350 351 352 349 348 348 347 348 348 347 345 338 328 333 331 330 337 337 336 337 338 338 337 344 343 343 344 340 338 337 337 336 333 335 336 338 338 337 340 342 341
334 335 342 347 349 348 351 349 348 352 351 351 348 348 347 348 348 347 347 340 331 333 331 334 336 335 336 338 343 344 344 345 344 342 339 340 341 341 339 339 341 337 337 338 339 340 343 342 341
334 335 335 347 348 349 351 351 351 351 348 350 349 348 347 346 347 348 347 341 336 332 339 338 336 339 342 339 340 340 343 341 341 344 343 345 343 342 343 341 342 335 339 343 341 343 342 343 343
333 334 333 346 349 348 352 350 350 349 349 353 351 349 348 347 346 347 345 340 337 340 339 339 344 345 345 343 343 342 345 345 344 344 345 344 343 340 342 341 340 337 339 341 341 343 342 343 342
327 323 323 342 351 351 351 355 352 350 351 351 350 349 349 348 345 346 346 341 343 343 341 342 343 345 346 348 348 345 346 346 346 346 345 344 345 344 343 342 340 340 342 341 340 342 344 341 340
322 329 326 339 350 351 351 353 350 351 351 350 350 349 349 348 346 345 344 342 345 346 344 342 344 344 346 346 346 345 348 348 346 348 346 344 345 344 343 341 342 340 341 342 342 342 341 343 341
329 327 323 323 349 351 352 352 350 350 353 350 349 348 347 348 346 345 343 342 343 344 345 346 344 344 347 346 345 346 348 348 348 347 346 344 345 345 346 343 343 341 341 344 344 341 341 342 342
325 325 325 324 323 334 353 351 351 347 352 350 349 347 347 348 347 346 347 342 342 345 346 346 345 345 347 346 345 346 348 348 347 347 346 344 346 345 346 343 343 343 344 342 342 343 341 341 342
326 326 324 323 322 320 339 353 348 349 350 350 349 348 348 347 347 344 343 342 341 344 344 345 345 344 345 346 346 346 346 347 345 348 346 346 345 347 347 343 346 344 343 343 341 342 342 342 341
325 324 324 324 325 349 350 355 353 347 347 351 348 349 348 348 346 344 342 342 342 344 344 344 344 344 343 343 346 346 348 346 347 348 349 345 345 347 347 344 344 346 344 343 341 342 342 340 340
325 322 324 323 320 321 335 347 350 351 349 349 350 346 349 348 347 346 342 342 342 343 342 343 344 344 343 337 342 344 346 346 348 347 348 346 343 346 344 344 345 344 344 343 341 342 340 338 338
325 324 322 322 319 319 319 322 335 349 351 347 347 348 346 349 348 346 345 343 341 342 342 342 343 343 342 339 334 341 346 346 348 348 349 347 346 348 347 345 345 346 342 341 340 340 339 337 339
324 322 318 315 315 319 319 318 321 349 350 347 345 345 349 349 349 345 345 343 342 341 342 342 343 343 342 340 336 339 345 347 346 348 349 348 347 344 346 345 342 344 343 345 339 339 343 339 338
319 317 320 320 319 319 316 319 320 329 341 344 343 343 346 349 348 348 344 343 342 342 342 342 343 343 343 340 338 335 341 345 343 346 347 349 348 344 345 347 348 340 340 346 341 341 343 341 339
319 318 319 323 321 320 315 321 326 332 335 337 337 342 344 347 348 347 347 344 344 343 342 343 343 343 342 341 339 336 336 343 342 346 346 348 348 345 344 344 347 343 340 343 343 342 340 343 343
317 316 317 316 316 320 320 321 324 334 336 336 337 339 341 342 345 347 348 346 346 345 344 343 343 343 343 343 342 337 336 337 338 344 345 347 347 346 346 344 339 344 339 340 346 341 339 340 343
312 313 318 315 321 324 322 323 335 339 338 339 342 342 342 342 343 345 348 348 347 347 346 345 344 344 344 343 343 342 335 333 332 342 345 348 348 346 348 347 344 344 345 343 338 339 339 338 339
311 312 311 314 316 320 322 334 334 338 335 336 337 341 341 343 341 343 347 348 348 346 346 347 345 344 343 344 345 343 342 335 330 337 344 346 347 346 347 347 346 347 347 347 346 342 342 338 339
312 311 309 313 316 316 318 332 330 332 333 333 334 333 337 343 347 348 347 348 347 345 345 347 346 345 344 345 345 344 344 343 335 328 338 345 346 346 347 348 347 348 348 349 347 346 338 343 342

GFSSGP_850_thetae_090.txt.gz
Theta_e
338 336 341 348 354 355 355 354 349 350 345 341 340 341 344 346 348 343 337 334 335 337 338 336 338 336 339 339 340 340 338 333 332 334 331 331 331 330 330 331 332 333 340 340 338 339 339 335 337
340 343 349 351 356 358 355 352 354 350 343 341 342 347 350 349 345 338 335 333 335 337 337 336 338 338 337 337 338 338 336 331 339 333 339 339 332 330 330 330 336 338 339 336 335 338 339 343 342
347 349 350 351 353 357 356 353 353 346 343 341 349 349 348 346 342 335 333 333 335 337 335 337 339 340 339 336 338 338 333 337 338 335 339 339 331 327 326 331 328 339 334 338 336 336 338 343 344
348 349 350 357 356 351 351 351 349 347 345 349 348 348 343 345 336 334 331 331 333 334 335 339 340 340 339 339 338 335 336 341 334 336 338 339 340 324 338 341 338 332 335 337 333 334 339 342 343
348 350 353 356 355 349 349 351 350 350 351 349 349 345 340 341 338 332 331 331 333 335 338 341 340 338 334 338 338 334 341 339 333 337 337 338 338 332 334 337 336 336 336 333 334 338 341 342 342
351 350 356 358 355 350 349 350 351 351 349 348 345 346 346 345 336 333 331 333 338 338 341 341 337 335 336 341 342 342 341 336 338 337 337 338 338 337 337 338 337 337 332 333 338 341 341 341 340
349 351 356 354 354 352 348 347 352 352 349 348 347 348 346 343 335 333 333 338 341 341 341 336 341 340 342 342 340 340 342 335 338 339 337 337 338 339 337 337 337 337 330 337 342 342 342 340 338
349 348 352 351 355 354 347 348 349 352 349 348 346 346 346 341 334 334 338 341 342 341 336 337 342 339 338 342 342 341 342 342 338 336 337 335 337 338 338 339 337 332 330 337 341 342 341 340 339
346 350 350 351 354 351 349 351 348 350 349 351 351 345 344 337 335 338 341 342 342 339 336 340 340 341 341 344 343 340 340 336 335 336 341 339 332 336 336 337 337 333 328 334 340 340 340 340 341
344 346 349 348 349 350 348 346 348 351 350 348 347 345 341 336 340 342 341 342 338 332 335 334 337 333 336 342 341 340 335 335 337 338 337 336 332 336 337 337 338 333 329 334 338 340 341 342 341
343 348 344 351 349 348 348 345 348 350 352 348 347 346 339 344 345 341 341 337 330 329 332 333 332 330 332 338 337 337 334 339 339 339 338 337 332 334 336 336 335 332 331 332 337 341 340 341 340
336 340 346 349 350 348 346 348 345 347 350 348 346 344 345 346 344 341 339 335 328 330 332 333 330 333 334 335 337 335 337 340 342 342 341 337 334 332 334 334 334 334 335 338 340 340 340 341 341
334 334 338 348 347 347 348 350 350 350 351 348 347 347 346 346 344 341 337 335 329 331 332 330 334 336 336 337 337 336 342 343 344 344 341 339 337 337 335 334 335 337 336 338 338 339 341 341 341
333 333 335 347 347 349 350 349 350 352 351 349 347 347 346 347 346 344 342 336 328 332 330 335 336 334 336 337 340 340 343 344 344 342 342 342 341 341 338 339 340 338 337 338 339 341 340 342 342
333 331 334 344 347 348 350 352 352 349 349 349 347 346 347 347 347 345 345 339 330 331 330 335 334 337 337 340 342 341 342 340 343 343 343 344 342 338 340 342 342 336 340 342 341 342 341 342 341
324 322 322 343 348 350 350 352 350 350 351 350 348 347 346 347 346 345 346 342 335 333 335 336 337 341 341 340 341 342 345 343 343 344 345 344 344 342 342 341 339 337 341 342 342 342 342 342 339
323 328 323 347 349 351 353 352 351 349 352 353 348 347 347 346 346 346 347 342 333 339 337 339 342 343 344 346 346 345 345 346 346 346 347 343 344 342 342 342 339 341 342 341 341 342 342 340 340
329 325 324 325 346 350 353 350 350 351 352 352 350 348 347 346 346 346 347 344 339 340 337 340 341 343 344 346 346 345 347 347 347 347 346 345 344 344 342 342 340 340 340 342 341 341 341 339 341
324 324 325 324 338 349 350 348 349 350 351 350 350 349 348 347 347 347 346 346 341 343 341 341 342 343 344 345 345 345 344 347 347 346 347 344 344 343 342 343 341 339 342 342 342 341 341 340 341
325 325 325 323 325 326 328 342 348 348 350 350 349 348 348 347 347 347 347 345 343 343 344 343 343 343 343 343 344 343 343 345 345 347 346 344 344 345 344 343 342 341 342 341 342 342 341 341 342
324 324 324 325 325 346 347 345 350 346 348 350 349 348 347 347 347 347 346 345 343 341 345 344 345 344 343 343 346 345 345 346 346 347 347 346 344 345 346 344 344 344 344 341 340 342 341 341 340
327 323 324 324 320 320 332 325 345 348 347 347 350 348 348 347 347 347 345 344 345 342 342 344 345 344 343 344 345 344 342 343 344 346 348 347 344 346 347 344 343 345 344 342 340 341 341 339 340
326 322 322 322 319 318 321 319 321 345 349 347 346 349 348 348 347 346 348 345 345 344 341 342 344 345 343 343 344 344 343 343 345 346 347 346 345 342 345 343 344 344 343 342 341 339 341 338 337
322 318 315 313 314 318 319 318 316 343 340 344 345 345 348 349 349 348 346 346 346 343 341 342 344 344 343 343 341 340 341 339 344 346 347 348 346 345 343 348 344 345 345 342 340 339 340 338 337
317 316 318 319 318 319 313 317 331 330 333 335 335 338 346 347 348 349 347 344 345 344 342 342 343 344 344 343 341 337 334 335 341 345 344 347 346 347 342 344 346 343 343 343 345 338 338 341 337
317 316 318 321 318 319 316 318 330 335 336 337 340 341 339 344 348 347 348 346 345 345 343 342 342 343 343 343 342 340 337 334 338 343 343 345 346 347 343 342 345 348 341 342 345 342 341 342 340
316 313 314 315 314 319 318 325 324 335 335 335 335 336 338 341 344 347 347 347 345 345 344 343 341 342 343 343 343 341 339 333 334 340 340 344 345 347 346 346 343 345 347 341 344 343 343 342 342
311 312 317 314 320 324 320 333 338 336 336 335 334 335 338 341 342 347 347 348 346 345 344 344 342 342 342 343 343 342 340 336 332 337 339 343 342 344 346 346 347 342 344 342 339 343 346 342 340
310 310 310 312 313 319 325 335 333 335 334 333 332 334 336 342 343 344 346 347 347 344 343 344 344 343 342 342 343 343 342 340 334 332 332 339 342 343 346 346 347 348 345 345 346 345 341 341 341
310 311 308 317 317 313 322 330 330 331 332 332 330 331 335 339 342 344 344 346 346 344 343 343 344 344 345 343 343 343 343 343 341 333 330 331 339 344 347 346 346 347 347 348 348 348 347 343 343

GFSSGP_850_thetae_093.txt.gz
Theta_e
336 334 342 348 354 354 355 355 350 348 347 342 340 341 342 342 346 348 338 334 338 339 338 339 338 339 341 339 340 338 335 335 334 330 330 330 330 330 340 338 334 340 340 339 338 338 334 336 337
338 341 348 350 355 359 356 353 355 349 344 341 343 343 349 349 344 338 336 336 338 338 337 339 337 338 339 339 338 338 333 336 336 335 338 331 330 329 331 338 337 339 339 338 338 339 341 340 338
346 349 351 354 354 359 359 353 352 344 341 342 350 349 349 348 341 338 335 336 336 337 336 338 337 337 337 338 338 337 332 339 334 338 338 332 329 331 329 330 338 338 338 335 336 338 342 343 342
348 348 350 357 358 352 352 352 346 342 345 350 349 348 343 344 338 336 335 335 337 337 335 338 339 340 337 337 338 335 337 338 333 338 339 339 325 328 341 338 336 336 337 336 333 337 342 343 343
348 350 356 357 354 351 351 352 346 343 346 350 349 345 340 343 337 334 334 335 336 336 335 340 340 339 338 339 338 334 341 334 338 338 337 338 327 336 337 337 337 337 337 333 334 340 342 342 340
352 351 357 360 355 350 350 350 351 351 350 348 345 343 344 341 334 334 334 335 336 334 337 340 339 336 338 338 335 340 339 334 339 337 337 338 336 333 336 336 331 332 332 333 338 341 340 339 340
351 354 357 355 356 353 349 349 352 352 349 348 346 346 345 343 333 333 333 334 334 336 340 340 335 335 339 342 342 342 337 337 337 338 339 338 339 338 336 336 338 332 332 337 341 341 339 338 338
351 351 354 353 356 356 347 349 350 353 349 348 347 347 344 343 332 335 336 338 339 340 340 335 341 343 341 340 340 342 335 339 338 338 335 339 339 338 338 337 338 330 337 341 341 339 339 339 337
346 352 353 352 354 353 349 350 349 350 350 351 348 345 343 342 336 342 343 343 343 341 336 341 340 337 340 341 342 342 342 339 338 339 338 336 341 339 341 337 334 330 338 340 340 339 339 340 338
347 352 351 349 349 350 349 348 350 351 350 349 348 346 342 342 341 344 344 344 344 338 334 340 340 340 343 345 342 342 340 340 337 339 338 333 336 336 340 338 335 329 335 338 339 340 342 340 339
347 351 347 350 349 349 348 349 348 351 352 349 348 345 343 342 342 344 344 343 341 335 339 336 336 333 341 342 340 340 336 338 337 337 335 332 334 336 338 339 336 330 333 338 340 341 340 341 341
341 340 346 349 349 348 346 348 348 349 351 349 347 343 341 341 343 344 344 343 336 331 335 333 332 330 336 338 338 335 338 339 340 339 337 335 332 335 334 333 333 332 333 338 340 340 341 341 341
340 338 338 347 349 347 348 350 346 349 351 348 346 343 342 342 345 345 342 338 331 330 332 332 330 331 334 335 336 335 339 342 342 342 339 337 334 334 333 333 334 336 337 339 339 340 341 341 342
335 337 337 347 349 347 349 350 350 350 350 348 345 343 343 345 346 345 340 334 328 331 333 330 333 335 335 336 335 340 342 343 342 340 340 340 339 338 336 335 338 336 337 338 338 340 340 341 341
334 335 337 340 347 350 349 350 350 351 351 348 347 346 346 346 346 344 336 332 328 331 331 332 335 336 336 336 336 339 344 343 343 343 344 343 340 341 340 339 339 338 337 338 339 340 341 342 341
329 328 332 347 346 348 351 353 350 352 352 349 349 348 347 347 346 344 339 336 329 331 329 336 335 335 337 342 341 343 342 342 342 344 344 343 343 340 341 342 342 336 339 342 341 341 341 342 339
330 337 328 349 347 351 352 353 352 352 351 350 348 348 347 347 347 345 345 341 332 331 330 335 336 337 338 340 340 343 345 344 345 345 345 344 343 343 343 341 339 338 342 342 341 342 342 340 339
336 329 329 339 350 352 352 352 352 352 352 350 349 348 347 347 346 346 346 344 338 331 335 335 339 341 341 342 343 344 345 346 346 346 346 344 343 342 342 340 340 341 341 341 341 341 340 339 340
329 330 330 328 342 352 347 347 350 352 352 352 350 349 348 347 346 346 346 346 341 334 336 335 340 342 345 346 347 345 345 346 347 347 347 344 343 343 343 342 340 340 341 342 340 340 339 340 340
330 331 330 327 332 343 332 336 348 350 352 353 352 350 349 348 346 346 346 347 344 339 337 340 342 343 344 343 345 344 343 345 347 346 346 344 344 343 343 343 341 340 342 342 340 339 340 341 341
330 332 329 328 325 343 347 348 352 350 352 352 352 351 349 349 348 346 347 346 346 342 341 340 341 343 343 343 344 344 344 344 345 346 345 344 343 345 344 343 342 341 343 341 341 341 341 341 340
334 328 328 328 327 327 341 333 349 350 351 352 352 351 350 349 349 347 346 346 346 344 341 343 342 343 343 344 344 343 344 342 344 345 348 347 342 344 345 344 343 344 344 341 340 342 341 340 340
331 327 328 327 327 325 336 329 335 351 350 344 349 351 350 348 348 348 346 346 347 345 343 341 344 344 344 344 345 344 346 344 344 345 347 348 345 343 345 344 344 346 344 343 340 340 341 339 338
325 324 322 322 325 327 325 325 340 340 340 342 341 342 349 349 347 347 347 346 347 347 346 344 341 344 344 345 344 344 344 345 344 345 346 347 344 344 344 342 343 344 345 343 342 341 340 340 338
325 325 327 327 327 327 321 333 344 341 340 339 341 341 342 344 349 348 347 346 346 347 346 346 344 341 343 344 344 344 342 344 344 342 344 346 347 346 342 345 345 343 344 344 343 339 339 339 339
325 326 327 329 327 326 322 338 343 337 337 338 339 339 340 341 343 349 348 347 346 347 347 347 344 341 342 343 344 343 342 338 340 337 343 345 344 346 346 340 342 345 342 342 345 346 339 339 342
321 324 320 324 321 326 325 332 335 335 336 337 336 337 339 344 342 346 349 347 346 347 346 346 346 343 341 342 343 343 342 340 337 335 339 344 345 346 347 344 341 342 345 342 343 344 342 340 339
319 316 324 324 328 328 334 338 340 338 338 335 334 336 338 341 344 344 348 348 346 346 347 346 346 346 344 341 342 343 343 342 339 336 339 338 340 344 345 346 346 346 343 345 340 341 344 344 342
318 320 320 323 323 328 332 340 334 336 335 333 330 331 335 337 342 343 347 348 346 346 348 346 345 345 345 342 342 343 343 343 341 338 336 340 337 341 344 344 346 346 345 342 344 345 344 341 340
314 315 316 327 327 324 331 337 333 332 331 333 329 328 330 333 336 340 343 345 345 344 344 345 346 345 344 343 342 342 343 343 342 341 335 334 338 337 341 343 346 346 347 347 346 345 348 348 346

GFSSGP_850_thetae_096.txt.gz
Theta_e
335 343 345 348 357 355 356 358 352 352 350 345 344 343 345 344 348 353 341 342 344 345 344 334 331 332 334 336 337 335 331 331 330 329 329 329 329 338 334 334 335 339 339 337 336 334 337 339 339
346 344 350 352 358 360 362 355 354 351 346 344 343 344 346 351 345 342 341 343 345 345 346 343 338 339 340 340 338 334 338 337 333 340 332 330 330 331 337 337 337 338 337 337 339 341 338 339 334
347 350 353 358 356 363 362 356 352 346 344 346 344 350 350 351 343 340 342 344 345 346 348 340 338 339 340 338 337 335 340 336 337 338 336 330 337 331 330 336 338 337 336 336 340 343 343 341 339
350 352 354 360 359 356 356 355 347 344 345 350 348 350 346 346 341 342 342 344 345 347 347 338 337 340 338 341 338 335 340 334 338 339 337 327 327 336 338 332 337 336 336 334 337 342 343 343 341
351 354 359 358 358 354 354 349 345 346 349 350 349 348 345 342 343 342 343 344 346 346 348 343 341 342 338 339 336 339 337 336 338 337 338 326 339 339 338 333 334 337 335 333 338 342 342 341 340
353 354 360 360 359 355 354 353 344 345 351 350 348 345 347 344 342 342 343 344 346 346 348 347 343 340 340 340 335 341 335 339 338 338 339 333 337 336 338 332 336 337 332 336 341 341 340 340 338
353 357 358 356 358 357 351 353 353 352 350 349 348 348 346 341 341 343 343 344 345 346 348 349 347 339 340 338 339 340 336 338 338 338 338 339 338 336 336 338 332 331 335 340 340 339 338 338 337
353 354 355 354 357 357 348 351 352 353 352 349 348 348 346 341 342 343 344 344 345 347 349 348 348 350 350 345 342 340 338 339 338 339 339 339 338 336 337 337 331 335 340 340 338 339 338 336 338
350 356 354 355 355 355 350 352 352 353 350 351 349 347 343 341 343 344 344 344 346 348 347 347 350 350 352 351 344 341 341 337 338 337 338 342 346 345 346 336 331 339 340 340 339 339 339 338 336
351 353 353 350 351 353 350 351 352 353 353 352 350 344 342 341 343 343 344 346 347 346 345 348 348 349 350 350 345 345 348 348 347 343 345 347 346 345 344 338 329 338 339 339 340 341 343 346 344
349 353 349 351 350 350 349 349 350 352 354 351 351 346 342 342 342 344 346 346 346 345 346 347 350 351 351 348 348 348 347 348 347 345 346 347 345 346 346 345 341 342 344 344 345 346 346 347 344
349 346 346 350 350 349 348 347 348 351 353 351 351 345 342 341 342 344 346 346 346 345 346 347 347 351 350 349 347 347 348 347 347 346 346 345 346 346 345 343 343 341 343 343 345 345 348 348 348
345 343 341 346 349 348 348 348 349 352 351 350 347 343 342 341 343 344 345 345 345 346 346 346 346 345 348 349 347 347 348 349 348 347 346 346 345 346 345 345 344 344 343 344 345 347 348 348 346
344 343 340 344 346 348 349 348 348 353 350 348 344 343 342 342 343 345 345 344 342 343 345 346 344 345 347 349 347 348 349 348 349 347 345 339 346 345 345 345 345 345 345 345 346 348 349 348 345
339 340 337 341 345 347 349 352 351 354 351 348 344 342 342 343 345 345 343 342 341 343 345 345 344 347 347 348 347 350 349 349 349 348 342 341 344 341 346 346 346 346 339 338 342 343 347 345 344
340 338 342 342 344 347 350 354 350 351 351 349 343 342 343 346 346 344 342 341 340 342 345 345 343 347 346 347 347 349 350 349 350 348 343 344 341 340 342 348 346 345 343 347 347 347 347 344 342
340 344 340 345 343 349 352 354 351 353 352 353 348 344 345 347 346 343 342 343 340 342 344 345 345 345 346 340 349 350 346 343 347 347 351 344 343 342 346 349 347 337 347 347 347 347 347 344 343
343 342 336 344 347 351 352 353 353 352 353 352 352 350 348 347 346 343 346 345 340 341 343 345 345 347 343 347 344 350 350 345 349 345 352 343 346 342 343 348 340 342 347 347 348 348 345 344 344
340 338 337 340 348 350 349 347 353 353 352 352 351 351 350 348 344 344 348 348 344 341 343 344 347 345 343 347 349 350 351 350 346 345 345 344 343 341 341 348 341 346 347 348 347 345 345 344 344
337 336 335 332 342 345 334 336 341 351 350 353 352 351 350 349 345 345 348 348 346 343 344 345 347 342 345 351 352 351 350 350 351 349 348 348 343 342 341 345 347 346 347 343 349 348 344 344 344
338 337 334 334 333 336 340 347 351 348 350 352 353 352 351 349 347 343 346 349 348 345 344 344 343 344 345 351 351 349 351 347 351 346 344 348 349 349 345 344 347 341 347 346 347 344 343 344 344
335 336 333 331 331 341 342 343 347 351 353 353 353 352 352 350 348 346 347 348 348 347 346 345 344 345 345 344 351 351 349 349 350 352 350 348 346 351 346 345 343 344 350 348 344 347 348 345 344
335 333 334 331 332 331 337 339 348 349 349 348 353 353 352 353 351 349 347 348 347 348 347 347 345 341 347 344 348 346 348 347 348 352 346 346 343 346 350 346 347 343 350 345 349 342 345 345 346
331 332 332 331 331 332 337 337 346 347 347 347 346 347 352 351 351 350 348 348 348 347 348 348 349 343 343 343 344 344 352 350 350 350 350 352 351 349 347 349 343 344 349 345 346 343 341 346 345
330 330 332 333 331 331 331 332 348 343 343 343 345 345 346 348 351 350 350 348 348 348 349 350 350 344 342 344 344 344 344 352 352 348 348 351 350 350 346 342 342 348 344 344 347 342 350 343 350
329 330 331 333 331 330 329 338 346 340 340 341 340 341 343 346 346 349 349 349 348 349 350 351 351 348 344 341 343 344 344 351 350 350 347 350 349 350 353 341 347 347 344 346 343 349 347 350 346
330 330 328 329 330 330 333 343 340 339 340 340 337 338 341 346 346 346 351 351 349 349 350 351 352 348 346 344 341 343 344 344 349 348 349 349 351 350 354 352 348 348 346 346 345 351 344 348 342
325 327 328 328 331 332 331 341 346 341 339 338 335 335 337 340 347 346 349 351 351 350 350 351 351 347 346 345 344 342 343 343 343 347 349 349 350 351 353 347 352 348 342 347 342 351 349 349 350
324 327 327 328 329 331 334 340 338 338 336 335 332 332 334 336 339 343 348 350 351 350 350 351 352 353 351 350 351 343 342 344 344 343 344 347 351 347 350 347 352 353 351 346 342 348 351 348 350
321 325 327 329 331 330 332 345 334 333 332 332 331 330 330 332 332 334 337 344 347 348 349 350 351 351 352 352 352 352 343 343 346 345 346 343 347 345 342 345 345 351 354 351 342 344 351 352 353

GFSSGP_850_thetae_099.txt.gz
Theta_e
334 339 347 351 359 357 361 359 353 351 349 345 344 344 348 349 351 352 344 346 346 345 342 338 331 330 334 335 335 333 332 329 329 329 329 329 333 333 333 333 335 337 337 336 337 341 336 340 340
348 347 351 354 362 363 363 356 353 351 347 345 345 345 348 351 345 343 344 346 345 345 344 346 333 336 339 338 335 337 339 334 338 332 331 330 331 334 336 334 335 336 337 340 340 339 339 336 337
350 348 354 360 362 366 364 354 351 347 345 344 346 348 352 345 343 344 345 345 345 346 346 339 339 340 339 337 334 339 338 338 340 336 331 341 332 331 335 335 334 335 335 342 343 343 341 338 337
350 352 354 363 360 359 358 351 347 346 347 346 348 350 348 344 343 345 345 346 346 347 348 338 338 338 339 338 334 340 338 338 339 337 329 328 330 340 332 337 335 334 334 339 342 343 343 340 337
352 355 362 361 359 357 353 348 345 348 349 348 349 350 344 343 343 345 345 345 346 349 348 339 338 337 340 339 337 339 334 339 339 338 327 340 339 338 333 334 335 335 333 341 342 341 340 339 336
353 356 361 362 360 357 353 346 346 351 351 350 349 347 347 345 343 344 345 345 347 347 350 347 341 339 340 339 340 337 338 337 338 339 331 339 337 337 336 338 340 333 336 341 340 339 339 337 332
354 360 359 357 360 359 357 349 347 351 351 350 349 350 347 344 344 344 345 346 346 350 348 347 347 342 340 336 341 335 339 339 338 338 338 337 336 336 338 331 332 336 340 339 338 338 337 335 331
354 355 356 356 360 360 354 355 354 353 351 350 350 348 346 344 344 344 345 345 345 346 346 348 347 348 349 344 340 337 339 338 338 339 338 337 336 337 340 330 335 339 339 338 338 336 335 332 328
352 358 357 354 356 358 352 354 354 355 351 351 352 345 343 344 344 344 344 345 345 346 346 347 348 348 348 347 340 340 337 338 336 340 341 345 348 344 346 335 338 340 339 339 338 338 339 333 331
351 356 355 351 352 355 352 353 354 354 353 352 351 345 343 344 344 344 344 344 345 346 347 349 351 347 349 349 348 349 349 348 348 348 344 346 344 345 341 333 338 339 339 340 341 345 345 346 347
351 354 351 352 351 351 352 353 351 354 355 352 347 344 343 344 344 344 343 344 345 345 348 348 349 348 350 347 348 349 349 347 347 346 347 344 345 344 342 337 342 342 346 345 346 347 345 346 342
350 349 349 350 349 351 351 350 350 353 352 351 348 344 343 344 343 343 343 344 345 345 347 349 348 348 349 346 349 347 345 347 346 345 345 347 343 346 345 343 343 345 347 346 346 344 347 344 344
348 346 345 350 350 350 348 346 350 353 352 352 351 344 343 342 342 343 343 345 345 346 346 346 349 349 350 350 347 348 348 347 346 347 347 346 345 343 344 343 344 344 345 345 346 347 346 345 345
345 344 344 347 350 349 349 348 350 354 352 352 349 343 343 342 342 342 343 345 345 346 345 346 347 350 350 350 349 347 349 348 346 348 348 346 344 346 344 346 344 344 345 346 347 349 345 344 343
345 347 342 345 348 350 350 351 353 353 351 349 346 344 342 341 342 343 343 344 344 345 345 346 346 348 349 348 349 350 349 349 347 348 350 347 347 347 345 347 345 345 346 343 343 345 346 345 342
345 345 345 344 345 349 351 356 355 352 352 347 345 343 342 342 343 343 343 342 342 344 346 346 345 347 348 350 351 349 349 350 351 349 350 350 350 349 349 346 345 347 346 346 346 347 345 342 342
345 346 344 345 345 349 351 355 352 351 352 347 345 343 343 344 344 343 342 341 342 345 346 345 346 347 348 349 349 349 348 350 350 350 350 351 350 347 349 347 348 344 347 346 347 346 344 343 342
345 344 343 346 345 351 353 352 353 350 352 349 345 344 344 346 345 343 340 341 341 344 346 347 346 349 351 350 349 349 345 351 351 351 352 349 352 350 347 350 348 346 347 345 348 348 345 344 344
340 341 341 345 346 350 352 353 354 355 353 353 349 345 345 346 346 343 343 342 341 343 345 347 348 350 351 349 347 349 351 352 352 351 352 352 351 350 347 349 347 347 347 349 345 342 345 344 342
340 340 340 345 348 351 350 348 351 352 352 352 353 350 349 348 347 344 346 344 341 342 344 347 350 351 351 348 348 349 351 352 351 352 351 353 351 344 349 349 347 347 349 350 350 349 343 342 344
341 339 338 340 347 341 339 349 350 349 350 353 352 352 351 349 347 345 347 345 344 343 345 347 351 352 351 350 352 351 352 351 353 352 351 352 351 350 353 347 351 347 348 349 348 344 348 346 343
337 337 337 338 340 345 342 352 355 350 355 354 353 352 352 350 349 346 347 346 345 344 345 348 350 353 352 351 351 350 349 349 351 349 349 351 351 350 350 351 350 343 349 350 348 344 346 348 343
335 337 337 335 337 345 345 348 351 348 352 355 353 353 352 351 350 346 346 347 345 345 344 348 350 354 354 351 353 350 351 350 353 351 349 352 352 352 351 350 351 347 352 346 351 345 348 346 347
335 335 337 336 335 339 347 345 350 353 349 353 352 353 352 352 350 349 347 348 346 345 345 346 351 353 354 354 347 353 349 352 349 352 353 351 350 351 351 350 351 349 353 348 348 351 342 352 349
335 336 337 337 335 336 341 345 352 346 346 346 347 347 351 352 353 351 349 349 348 345 345 347 351 353 353 353 354 354 353 350 355 353 352 350 350 349 347 353 348 349 351 352 353 348 353 343 350
334 334 334 335 333 332 334 347 348 344 342 341 341 342 345 349 352 352 351 350 349 347 346 347 351 354 355 353 351 353 354 352 348 351 348 348 349 350 350 342 352 352 352 352 351 351 348 349 350
333 333 331 332 333 332 340 347 343 343 344 341 339 339 342 348 351 352 351 351 350 349 348 349 352 353 357 356 352 350 352 346 348 349 348 352 349 353 352 348 354 352 352 352 353 353 348 354 348
328 331 332 331 335 333 342 347 347 344 342 339 336 336 339 345 349 349 347 349 351 350 349 351 353 355 357 357 357 356 355 353 347 351 351 347 349 350 352 353 351 352 352 353 350 350 351 350 352
328 330 331 331 332 334 339 348 343 343 338 339 334 333 335 338 341 346 347 350 351 351 351 351 353 356 357 357 357 356 356 356 356 354 352 351 350 352 355 355 353 353 352 352 352 350 354 355 352
326 328 330 331 333 332 333 346 338 338 336 335 333 331 331 332 336 339 340 348 349 350 350 352 352 355 354 355 354 356 357 356 356 356 354 353 351 352 351 355 354 355 353 352 352 351 349 352 352

GFSSGP_850_thetae_102.txt.gz
Theta_e
335 343 350 350 355 359 362 358 351 347 346 343 345 348 349 347 349 353 348 348 347 348 333 330 329 331 333 333 332 331 329 329 328 328 330 333 332 333 333 337 340 336 337 340 340 339 339 336 333
347 348 350 352 361 366 364 353 352 347 344 345 346 347 346 346 345 347 348 347 346 345 345 329 333 336 337 335 340 339 336 338 332 331 330 331 334 335 334 335 337 338 341 338 339 340 335 333 334
349 351 351 357 362 366 363 352 349 346 344 345 350 348 344 344 345 346 346 346 344 346 347 340 341 339 337 334 338 337 336 339 336 332 340 330 331 334 335 335 335 341 342 343 342 340 337 334 329
352 352 353 362 363 359 357 351 345 345 345 347 348 345 344 345 346 345 346 345 347 350 341 342 341 337 336 334 340 336 338 339 335 329 328 329 332 333 337 335 334 337 341 342 343 342 337 335 337
351 354 361 362 362 356 351 345 347 347 346 348 345 346 344 346 345 345 346 347 348 348 337 338 338 339 337 337 340 335 338 339 337 336 339 339 338 333 335 339 335 335 341 341 339 339 335 333 336
353 355 362 364 361 352 348 346 351 349 349 347 344 344 345 346 345 346 346 349 348 347 348 340 338 338 336 340 339 337 338 338 339 335 337 338 337 337 339 340 333 336 341 339 339 337 333 332 333
354 359 361 359 361 358 349 348 352 350 350 347 345 347 345 345 345 345 347 348 348 349 347 343 341 339 337 341 336 338 337 337 338 337 335 334 337 332 337 336 335 340 338 337 337 333 329 329 332
353 357 358 358 361 360 355 352 355 353 351 348 347 347 345 345 344 346 344 349 348 348 348 347 343 343 339 339 335 337 336 337 338 335 335 338 337 333 331 334 338 338 337 335 332 328 327 324 335
352 356 358 356 358 359 355 355 355 354 350 351 351 345 344 344 344 346 348 347 346 347 347 348 348 347 346 336 336 337 336 336 340 342 344 344 342 342 341 336 337 336 337 340 344 340 337 340 339
353 355 356 352 354 356 353 351 354 354 352 352 344 344 344 344 345 345 346 345 346 347 350 350 350 346 349 346 342 344 346 346 344 343 345 348 345 340 333 337 336 338 342 346 345 346 346 349 348
352 356 353 353 352 352 353 355 354 354 354 350 345 344 344 343 344 343 345 345 346 349 346 345 351 348 351 345 347 349 349 340 345 345 346 345 341 340 333 338 341 343 344 347 346 347 345 346 344
351 350 351 352 352 352 353 352 354 353 353 346 344 344 344 343 343 343 344 346 346 349 350 351 348 344 350 336 347 350 347 346 347 345 343 343 346 346 346 344 346 347 346 345 347 339 342 342 343
348 348 351 349 351 351 351 350 353 354 352 348 345 344 344 342 342 343 344 345 346 349 351 349 345 346 349 344 350 347 347 347 342 343 345 346 343 344 342 342 344 340 344 347 345 346 349 345 343
344 346 348 351 350 349 348 349 348 353 352 352 346 344 343 342 342 344 346 344 345 347 347 349 349 343 352 349 347 340 342 348 348 345 345 346 344 344 342 344 340 345 347 346 345 344 347 343 344
344 346 345 350 349 350 348 352 352 353 353 352 347 344 342 341 342 344 346 345 346 346 348 347 348 346 349 348 349 348 349 349 348 344 347 346 346 347 345 346 344 345 343 341 345 343 346 347 343
342 346 348 351 351 350 349 356 350 352 353 351 345 343 342 341 342 343 345 345 345 346 347 346 346 348 348 346 349 346 339 339 349 348 346 346 344 346 343 345 346 345 345 344 346 344 346 345 344
344 347 346 347 349 351 352 357 349 349 353 348 345 343 342 342 342 343 344 344 344 346 347 346 347 347 350 347 351 351 347 349 349 351 349 345 345 344 345 346 346 341 345 347 346 342 343 344 344
342 345 346 347 350 352 354 354 350 348 352 348 345 343 343 343 343 343 342 343 344 346 347 346 348 348 350 347 350 352 350 350 352 347 350 348 348 343 347 346 342 347 347 346 345 345 343 344 344
339 342 345 345 353 353 352 353 349 348 354 347 345 344 344 345 344 342 341 342 344 347 347 347 348 349 351 348 348 348 351 352 349 350 351 351 349 344 347 349 342 348 347 348 340 341 345 345 343
334 340 344 351 351 351 352 351 349 349 350 351 346 345 346 346 344 342 341 342 343 346 347 347 350 347 351 345 349 350 348 353 350 351 349 350 342 346 350 346 345 349 350 343 347 349 347 341 343
333 338 340 356 347 344 348 351 346 346 343 348 348 346 347 347 346 343 344 342 342 345 346 348 351 344 347 346 349 343 352 352 350 351 350 349 345 346 350 350 349 348 349 340 345 349 349 343 340
335 340 340 350 347 353 349 359 351 351 352 351 351 351 349 348 347 345 346 344 342 344 345 348 351 342 347 351 348 351 349 351 352 351 350 349 348 349 342 347 348 348 349 340 348 345 346 347 345
336 337 339 338 341 348 349 351 353 350 352 353 352 353 352 349 348 346 347 346 345 344 346 347 350 343 350 352 349 346 347 341 350 349 347 350 351 349 350 343 340 345 346 346 344 345 343 348 349
335 336 338 337 336 345 347 348 356 353 353 353 353 353 352 351 348 348 347 346 346 345 345 347 348 347 347 348 350 349 351 349 351 349 347 350 346 351 350 347 346 349 348 349 348 339 341 348 348
333 337 340 339 338 337 345 347 355 350 346 347 350 349 350 352 350 348 348 347 347 346 344 346 345 346 346 345 346 343 348 351 345 349 352 351 351 351 343 347 344 342 347 348 352 342 343 345 345
334 337 339 339 337 335 345 355 353 348 344 344 345 346 349 352 349 351 349 347 348 347 345 345 345 342 343 343 343 342 340 347 351 349 352 350 350 350 350 344 339 347 345 349 345 347 343 338 342
334 336 335 335 334 334 350 352 348 345 344 341 341 342 345 349 353 352 351 349 345 349 348 347 347 345 342 342 343 344 342 341 345 347 346 349 351 350 352 347 342 345 353 349 349 346 348 350 348
331 332 334 335 337 337 352 352 354 348 344 340 338 338 340 343 346 352 352 352 352 350 349 355 348 348 348 348 346 345 343 343 346 347 351 347 352 351 343 349 348 350 353 350 350 347 349 347 351
330 330 332 332 334 335 352 353 345 346 342 339 336 334 336 339 342 343 344 349 351 350 347 349 355 352 351 354 357 355 349 345 344 345 341 344 345 352 346 345 351 349 348 351 346 349 353 349 343
327 329 331 334 336 335 347 350 341 341 339 337 334 332 333 336 338 340 341 343 345 346 338 347 347 349 356 353 354 355 356 356 352 346 348 344 334 348 352 351 352 353 351 348 345 342 354 350 350

GFSSGP_850_thetae_105.txt.gz
Theta_e
336 348 350 349 353 355 358 359 345 349 349 346 346 347 348 347 349 352 348 347 342 342 340 338 332 330 331 330 329 329 328 328 328 329 331 333 333 334 339 338 338 339 337 340 338 333 333 337 338
336 347 349 351 357 362 358 353 347 351 351 348 345 345 347 348 348 349 349 346 341 334 330 330 334 335 335 340 334 332 330 330 329 329 329 331 332 335 339 341 340 338 338 340 335 333 335 341 342
348 348 350 355 356 359 358 352 344 349 347 345 345 344 346 348 349 348 347 344 334 330 329 336 338 335 338 337 336 337 338 332 334 332 329 331 333 341 340 343 341 342 342 340 336 332 332 342 340
352 352 352 361 358 357 355 345 344 347 344 344 344 346 347 347 347 347 345 343 341 335 339 343 338 334 337 338 335 337 337 330 333 331 329 330 335 340 343 338 339 341 341 342 336 334 333 338 339
351 352 357 361 360 354 345 344 348 347 346 345 346 347 346 345 346 344 344 344 343 338 341 339 342 335 335 338 334 337 339 332 339 336 341 340 333 338 342 334 335 340 339 338 334 332 336 343 342
351 353 359 360 358 352 352 350 349 347 345 344 346 346 345 345 345 345 347 347 339 336 336 337 342 335 339 334 336 336 337 331 339 337 337 336 336 338 337 332 337 340 338 337 331 331 332 337 341
352 356 359 358 357 357 355 353 353 345 344 345 346 345 344 346 346 348 348 348 343 339 337 336 337 336 339 337 335 336 336 335 335 334 334 331 336 339 334 333 339 337 335 331 328 328 331 337 338
352 353 357 357 358 359 355 354 351 348 347 345 345 345 344 347 347 348 347 347 347 341 336 337 337 336 338 337 336 335 337 337 333 334 334 328 329 332 331 338 336 334 330 328 326 328 339 339 340
351 355 357 357 357 358 355 356 354 353 347 346 345 345 345 347 345 348 348 348 346 345 343 344 343 341 334 337 337 336 338 335 338 341 340 340 333 330 335 335 335 338 340 334 338 337 339 339 340
349 351 351 352 354 357 355 354 354 353 351 350 345 345 344 346 348 348 346 348 348 347 349 346 346 343 336 336 337 335 342 342 343 344 343 340 333 333 335 336 341 345 345 346 346 346 346 343 339
346 351 345 345 352 353 352 355 355 353 349 344 345 344 343 346 347 346 345 348 348 349 350 349 345 348 347 345 343 343 344 343 345 345 344 342 335 335 337 339 343 344 346 345 343 344 344 343 341
355 350 350 354 352 352 354 353 354 351 349 345 344 342 343 345 346 346 346 345 345 348 346 346 347 347 346 340 346 346 341 343 341 343 345 342 339 340 343 344 343 343 341 339 342 342 343 342 341
348 348 351 352 352 352 353 353 353 349 348 344 344 343 343 344 345 345 346 345 346 347 346 346 345 344 335 345 347 345 345 345 342 343 345 344 345 342 340 343 343 343 343 341 344 345 342 342 344
343 351 351 352 352 350 353 353 350 352 351 344 344 344 343 343 344 346 345 348 348 347 348 346 348 337 335 345 345 345 346 343 343 344 343 344 345 340 343 344 344 345 346 341 340 344 344 343 341
344 347 350 350 349 349 349 350 352 353 352 347 344 344 343 342 345 345 343 347 348 351 347 346 346 346 347 347 341 340 346 347 345 345 346 343 343 342 341 343 346 345 342 343 343 344 343 345 343
331 345 354 350 348 349 349 356 350 350 352 350 347 344 343 342 345 345 343 348 347 347 346 342 343 348 349 346 346 337 345 345 346 342 345 346 343 344 345 346 344 343 342 340 343 345 344 345 344
331 338 350 354 349 349 350 353 349 348 351 349 348 344 342 343 346 345 345 343 346 345 344 346 347 343 347 347 346 343 342 345 347 347 343 343 343 344 345 344 344 344 344 344 341 343 344 345 341
333 338 352 355 352 351 353 354 348 348 350 348 347 343 342 342 346 345 345 344 345 345 343 347 346 342 346 350 348 346 348 348 347 349 345 343 342 342 344 344 344 345 345 342 343 343 344 344 344
331 338 346 349 352 352 352 352 347 348 350 350 347 343 342 342 344 344 344 344 346 345 344 348 347 344 346 349 350 348 350 349 348 345 347 346 344 344 346 343 343 344 345 343 344 342 345 343 345
328 333 353 355 353 350 353 352 349 349 350 349 349 343 343 343 343 342 343 343 345 346 345 348 348 348 342 348 350 347 349 350 348 348 349 348 344 345 346 341 347 346 345 343 341 345 344 342 344
327 328 350 354 347 351 349 351 349 347 348 348 348 348 343 344 343 342 342 343 346 345 343 346 348 347 341 348 350 348 348 350 350 348 348 349 345 351 346 343 348 350 344 341 345 347 346 340 344
325 335 348 347 348 354 347 352 348 347 347 344 344 350 347 345 343 342 342 344 344 345 344 346 347 347 345 350 347 343 349 347 350 347 348 345 344 347 348 347 348 347 347 344 346 345 346 347 343
327 345 347 344 345 349 348 351 351 347 348 347 345 347 347 345 344 344 342 342 342 343 343 341 343 341 348 350 349 349 347 350 351 348 350 348 347 347 343 347 348 346 343 345 346 348 344 347 348
331 332 342 345 347 356 351 349 354 352 349 346 343 341 345 348 346 345 344 342 341 341 343 344 336 338 346 350 351 344 343 342 350 347 347 347 349 348 346 341 341 344 347 343 339 346 341 347 348
331 331 334 340 352 349 345 347 351 348 341 340 339 341 350 349 347 347 346 346 342 342 344 345 337 339 345 345 350 346 349 348 349 347 345 346 347 349 350 346 340 340 343 345 345 340 337 346 346
332 328 335 346 338 333 338 353 354 345 345 344 344 347 349 351 350 348 348 347 344 344 344 343 340 334 343 339 346 345 347 348 344 348 348 349 348 351 348 347 348 341 346 346 342 345 340 343 344
332 331 329 334 331 332 352 353 349 345 344 343 345 346 345 347 348 348 350 348 347 345 345 344 342 335 336 340 341 342 341 347 348 346 351 348 348 349 350 349 345 344 344 345 345 341 340 338 338
329 327 328 328 334 336 352 354 354 346 344 340 340 340 342 344 347 347 348 349 349 348 347 347 346 344 341 339 340 340 341 339 341 347 350 347 349 349 339 349 346 348 351 348 347 344 350 342 347
328 326 328 327 330 331 352 350 347 343 339 338 336 336 339 342 344 344 346 341 347 349 349 350 348 349 348 347 344 342 342 342 344 343 348 351 348 348 343 346 344 346 350 348 345 346 347 348 342
326 325 327 328 329 336 347 349 341 339 336 334 333 335 338 341 341 342 345 347 348 349 348 349 348 347 348 348 347 347 344 343 342 342 344 347 349 347 349 346 349 349 348 344 342 343 349 352 349

GFSSGP_850_thetae_108.txt.gz
Theta_e
335 344 349 349 352 353 356 355 350 350 348 344 342 344 345 346 347 347 344 344 341 342 340 341 340 337 333 333 332 330 334 339 339 337 334 337 338 337 337 339 338 338 336 331 333 336 338 340 340
343 349 349 351 356 359 357 353 353 349 345 344 346 347 347 348 347 347 347 343 341 340 338 336 331 331 330 329 329 328 328 331 337 333 332 339 340 338 339 338 338 338 335 332 337 338 339 341 342
337 346 349 353 351 358 355 352 349 346 344 344 345 347 348 349 348 347 343 342 338 331 330 334 335 338 338 335 339 333 330 330 332 338 334 340 340 341 339 339 340 339 333 332 337 341 340 341 343
348 351 347 357 354 353 353 350 344 345 345 345 346 348 348 348 347 344 343 339 330 330 336 337 335 340 343 336 337 336 332 342 331 336 334 340 340 341 339 341 342 341 334 331 334 341 339 339 341
351 351 354 359 356 349 348 344 344 344 346 347 347 348 347 347 346 344 336 331 330 337 340 335 337 337 339 334 338 335 329 329 328 329 331 339 337 336 337 339 341 340 335 333 334 339 340 341 340
350 352 358 360 357 355 352 345 345 345 346 346 346 346 346 345 342 340 336 335 336 337 338 340 336 338 335 336 338 337 334 340 340 341 340 334 340 333 332 339 338 337 331 331 336 341 341 341 343
352 354 359 356 358 357 355 345 345 346 346 345 344 345 345 344 343 343 341 340 336 336 335 337 335 338 335 335 336 334 334 337 338 339 335 337 337 331 333 338 336 331 329 331 332 339 341 340 340
351 351 352 355 357 360 352 345 344 346 346 344 344 345 344 345 345 346 346 338 337 336 334 336 336 336 336 334 335 336 334 333 334 336 338 337 339 331 337 335 329 327 326 329 333 337 338 339 339
350 353 352 351 354 356 353 351 348 347 345 344 344 345 345 347 347 348 346 345 339 337 336 335 337 335 336 333 336 336 332 336 337 331 329 335 331 337 335 331 329 331 331 336 339 340 341 340 340
349 348 350 348 350 354 354 352 349 347 345 345 344 346 348 347 348 347 347 344 342 343 344 341 336 335 336 334 337 336 340 342 340 337 337 332 335 335 335 342 343 342 341 340 340 340 341 341 342
344 347 347 343 345 346 354 353 351 347 351 344 346 348 348 348 346 347 347 345 346 345 344 343 337 336 338 335 340 341 343 344 344 339 334 334 335 337 344 345 345 345 345 345 344 343 342 341 344
347 349 350 353 353 351 353 353 351 350 349 343 345 346 348 347 347 347 347 347 348 346 345 345 342 343 343 343 342 343 343 342 341 340 334 336 337 340 342 342 344 339 340 343 341 342 342 339 339
350 350 349 352 352 353 353 352 350 347 344 344 344 346 347 347 346 347 347 347 348 346 345 346 344 343 341 344 340 342 342 343 343 343 344 339 342 341 343 343 340 343 342 342 344 341 344 342 340
335 352 353 352 352 353 353 350 349 346 346 344 343 344 346 346 345 347 347 348 349 345 344 344 344 339 339 346 343 344 340 341 344 345 344 343 340 340 343 343 342 344 340 341 344 342 339 342 342
351 352 346 351 350 352 350 350 350 351 347 343 342 343 345 346 346 345 345 346 346 346 345 343 344 340 340 344 344 344 342 343 344 345 344 343 340 344 341 344 344 345 342 342 344 344 343 343 343
344 349 356 352 347 351 346 353 350 351 348 344 343 344 342 346 346 346 346 347 346 346 341 343 344 339 345 340 343 344 344 344 344 343 343 345 342 344 341 345 344 342 343 343 344 343 344 343 344
324 346 351 349 348 348 348 352 349 351 351 348 345 344 343 346 346 346 348 347 347 345 343 343 344 347 344 345 340 341 346 344 346 345 344 343 343 344 346 344 343 343 343 343 343 345 345 344 343
325 338 351 355 351 349 349 349 349 351 350 346 346 345 344 345 346 348 348 347 346 345 343 339 341 340 345 346 340 343 343 345 345 344 344 344 343 344 343 343 342 342 344 342 343 344 344 342 344
323 332 352 353 349 352 350 349 350 350 347 344 346 348 344 345 344 347 346 346 345 344 345 345 344 342 345 346 346 346 346 345 344 346 344 343 342 342 342 344 341 342 343 342 343 344 343 344 345
322 328 348 352 347 349 350 350 348 349 348 345 346 347 343 345 344 343 343 345 345 344 346 347 346 345 347 348 346 349 348 347 347 346 346 344 340 343 344 344 341 342 345 343 342 344 341 343 347
320 324 348 354 350 348 349 352 349 348 346 346 345 347 345 345 345 344 344 343 344 345 346 347 347 344 347 348 349 348 345 348 349 348 346 344 341 345 346 341 345 345 345 340 344 346 342 343 345
319 323 345 348 349 349 347 353 348 348 349 348 348 347 347 343 344 344 344 343 343 345 344 346 347 347 344 347 351 348 347 347 348 345 346 341 346 346 343 346 346 347 340 341 347 345 343 345 344
322 344 346 344 346 346 348 350 342 347 351 348 347 346 346 344 342 343 343 342 342 344 344 341 343 346 341 346 347 347 348 346 349 348 346 345 349 344 345 345 347 346 339 343 346 345 345 348 347
340 343 342 343 343 349 348 348 352 348 347 348 346 346 347 345 344 342 342 342 342 344 343 342 340 344 344 346 347 348 346 348 349 347 348 348 347 345 344 346 345 345 343 345 346 344 343 347 347
329 336 336 345 345 344 342 350 347 345 344 345 345 346 346 344 344 346 343 343 342 343 342 342 340 341 345 348 350 348 343 345 349 345 345 348 349 348 344 344 341 342 346 343 342 343 340 345 346
328 327 333 342 341 342 339 350 355 341 341 340 340 339 343 342 341 348 343 344 342 342 341 342 341 340 344 346 349 349 346 346 349 346 343 345 346 346 347 349 344 340 343 345 344 339 337 342 344
326 331 327 333 330 341 352 352 347 344 342 345 344 345 345 346 347 348 347 344 345 344 342 343 341 340 344 344 345 347 347 347 348 347 346 346 346 348 347 345 343 343 341 343 341 342 335 339 342
327 326 328 326 333 337 350 353 353 348 347 343 341 342 342 339 347 348 348 345 346 345 344 344 344 341 342 347 344 345 339 343 346 349 351 349 348 347 348 349 349 342 346 342 344 340 340 337 339
326 325 324 323 324 328 347 350 346 345 341 338 338 341 343 344 343 347 348 348 347 346 346 346 345 343 344 346 346 343 343 342 340 346 348 348 347 349 345 340 349 342 346 347 344 347 342 343 340
324 325 322 325 327 334 340 351 338 337 336 336 337 339 341 341 344 345 347 347 346 347 347 347 346 344 343 340 342 342 341 342 342 344 349 348 348 348 348 344 343 340 344 349 348 345 343 345 346

GFSSGP_850_thetae_111.txt.gz
Theta_e
337 346 347 349 349 350 356 354 350 346 344 342 338 342 345 345 346 344 343 340 340 341 341 339 337 338 340 339 334 333 334 335 336 338 337 337 337 336 338 339 339 334 333 334 334 333 335 335 333
339 349 349 350 353 357 355 351 350 347 344 341 343 345 347 348 346 345 344 342 341 340 338 338 338 335 333 331 331 338 337 337 337 335 337 337 337 338 337 337 336 331 332 338 339 339 339 340 335
347 347 347 349 352 357 357 350 346 345 343 341 347 348 348 349 347 345 342 341 341 338 337 333 331 330 329 328 328 329 330 336 333 335 340 339 340 339 339 337 334 332 335 337 339 341 342 342 343
344 344 346 354 353 353 352 347 344 345 345 346 347 348 347 346 346 343 341 341 336 331 333 334 337 336 337 341 333 330 329 331 335 336 340 340 338 338 340 340 333 331 335 339 339 340 341 344 343
350 348 352 357 355 350 348 345 344 344 345 347 346 347 346 346 343 341 341 335 329 334 336 334 339 341 336 339 336 337 343 332 337 334 341 338 340 341 340 341 334 332 333 341 339 338 338 340 341
350 350 357 358 355 353 346 344 345 347 347 346 346 346 346 344 341 341 335 329 333 337 333 339 338 341 335 339 337 329 332 329 330 333 340 338 339 338 340 339 337 332 331 340 338 341 341 340 341
352 353 354 356 355 352 348 345 346 346 346 346 345 344 347 345 337 333 329 332 338 335 333 341 343 340 338 339 334 339 340 340 340 341 335 339 333 335 338 337 333 331 335 338 340 340 340 339 340
349 349 351 352 355 355 347 346 346 345 345 345 342 345 345 344 336 336 335 340 338 338 335 336 337 336 338 339 333 339 338 336 339 334 336 336 331 337 336 331 330 331 332 339 341 340 339 338 340
350 351 352 352 355 353 348 348 347 345 344 343 344 343 343 343 343 344 341 340 338 339 337 337 335 335 335 336 337 334 332 334 333 337 337 332 335 336 330 327 326 329 332 335 339 339 338 339 341
348 346 351 348 351 351 349 349 347 344 344 344 343 343 344 344 346 343 339 338 337 336 337 337 334 334 334 336 333 335 337 335 329 329 334 334 336 332 329 330 329 336 338 338 339 339 339 340 341
346 346 347 347 350 350 350 350 346 344 346 344 344 345 345 346 347 343 341 338 337 340 336 335 335 335 334 335 336 341 339 337 334 330 333 336 335 337 337 341 341 340 341 342 343 344 344 345 343
345 344 346 351 347 346 351 348 347 346 344 345 345 345 345 347 346 345 341 344 343 344 343 334 335 334 337 340 342 342 343 336 332 332 334 335 339 344 344 344 344 345 343 343 343 343 341 340 339
344 348 350 352 349 349 352 351 350 346 344 346 347 347 346 348 346 346 344 346 345 344 339 338 341 341 340 340 342 342 340 339 333 334 334 337 343 342 343 340 340 342 341 343 343 342 339 339 340
335 350 352 352 353 352 350 349 347 347 347 347 347 347 347 347 347 346 346 347 344 344 344 343 343 343 342 338 342 341 342 342 341 340 340 341 342 342 341 342 342 341 342 343 342 342 343 342 342
348 349 351 352 352 351 349 351 347 346 345 346 347 347 347 346 347 345 345 346 346 344 344 343 344 340 342 342 342 341 342 344 342 342 342 340 340 342 340 342 343 341 342 344 343 342 341 341 342
347 346 353 351 349 349 346 353 348 346 347 346 347 347 347 346 345 346 345 345 346 345 344 343 344 340 340 343 343 341 342 343 343 343 343 341 342 341 342 344 342 341 341 343 344 342 343 343 344
321 343 349 348 349 350 347 350 347 348 346 344 343 345 346 345 346 346 345 346 346 345 341 343 342 342 343 343 343 344 343 344 342 341 344 344 342 342 341 344 343 342 342 343 344 344 344 343 343
325 340 348 350 348 350 349 348 349 349 346 344 345 342 345 346 346 345 345 347 346 343 341 342 344 344 344 342 340 342 344 344 343 343 344 341 342 344 345 343 341 344 343 342 343 344 343 342 344
322 323 340 352 349 351 350 349 350 349 346 346 346 345 346 346 346 345 345 347 346 344 340 340 344 344 345 342 339 343 344 344 345 344 343 344 342 343 344 343 340 342 343 342 343 344 342 343 345
321 323 349 350 348 350 350 351 348 348 347 347 345 346 345 346 345 345 347 347 346 344 342 341 344 340 345 345 344 344 343 345 345 345 344 342 341 343 343 342 341 342 344 341 342 344 342 343 347
320 321 333 352 350 348 350 352 350 347 346 345 343 346 344 344 346 346 347 346 345 344 344 343 345 339 345 348 346 348 347 346 346 346 345 343 340 342 341 342 342 342 344 342 341 343 342 344 345
320 319 326 351 348 351 346 352 350 348 347 345 344 346 346 344 345 346 347 346 344 344 344 343 346 342 344 348 347 345 344 345 347 346 344 344 342 342 344 341 342 345 344 339 342 345 342 345 344
320 327 325 346 343 343 348 348 340 347 349 347 343 341 346 344 343 345 343 343 343 343 343 344 345 346 344 346 349 348 348 347 346 345 345 343 344 343 343 341 345 345 342 342 344 344 345 347 347
339 341 339 338 340 345 345 347 347 350 348 345 344 344 345 344 343 344 345 344 343 343 344 344 344 346 345 345 347 348 348 346 346 347 344 343 347 344 343 344 346 346 343 341 344 343 344 347 348
339 334 339 345 343 343 342 348 346 344 344 346 346 344 345 345 343 343 344 345 344 343 343 343 342 345 344 341 345 346 345 347 347 347 347 345 345 343 343 344 343 346 345 344 344 343 342 345 346
337 329 334 341 343 340 343 348 348 342 342 345 346 345 345 346 345 345 344 345 345 343 342 343 342 342 345 342 344 347 346 345 345 347 346 346 348 347 344 342 342 341 344 346 344 341 342 339 345
326 328 325 330 329 339 346 350 346 343 343 343 344 344 345 345 345 343 345 345 343 345 343 343 343 341 343 345 346 348 346 342 345 348 345 345 346 347 346 346 342 340 339 343 344 344 341 337 342
323 323 327 323 332 336 346 350 353 345 344 342 341 343 341 341 341 340 344 343 344 345 345 345 344 343 340 343 347 348 347 348 345 347 347 345 346 346 347 348 346 342 340 340 343 342 342 339 338
325 324 320 320 323 333 344 346 343 344 340 340 340 342 341 341 341 347 345 344 345 345 345 345 344 345 342 341 347 344 346 341 345 346 347 347 346 347 347 348 348 349 346 344 341 342 341 338 339
323 324 321 324 327 336 337 347 339 340 338 338 340 342 342 341 341 341 343 344 346 346 345 344 344 343 345 343 344 345 343 341 340 343 348 346 347 345 348 343 342 346 344 343 344 343 344 342 346

GFSSGP_850_thetae_114.txt.gz
Theta_e
340 342 347 349 349 349 355 354 346 340 339 339 334 341 344 346 347 341 340 340 340 341 339 339 338 338 338 332 334 336 338 338 337 337 336 338 336 338 339 337 339 339 337 335 337 335 336 338 339
340 349 347 350 351 357 355 350 344 340 340 335 344 346 347 348 346 344 341 340 340 340 338 337 338 339 339 336 332 333 334 337 337 336 337 339 339 338 339 339 338 340 337 334 332 332 331 328 330
347 348 346 345 351 355 354 348 346 342 338 339 347 347 348 346 345 342 341 340 341 336 335 337 338 334 332 333 336 335 334 335 333 336 336 341 339 340 338 339 340 337 337 340 340 341 339 336 338
343 345 347 353 353 352 350 345 343 341 339 346 347 347 346 347 343 341 340 341 337 336 335 331 331 329 328 328 328 329 334 331 331 337 337 338 338 339 335 336 342 335 337 340 341 343 342 342 337
346 347 351 356 354 350 345 344 343 342 345 347 346 346 346 345 343 340 340 340 334 333 333 338 340 337 340 337 330 329 329 334 332 338 340 338 340 341 338 333 332 336 339 338 337 339 340 340 341
350 348 355 356 354 351 345 344 346 346 346 345 344 344 346 344 340 340 340 334 332 335 333 338 339 338 337 338 337 342 334 336 334 340 340 340 340 340 341 335 332 334 340 337 339 339 340 340 340
351 352 354 354 354 351 346 345 347 346 345 345 343 345 346 342 340 338 333 330 336 335 336 338 340 339 339 338 330 337 329 330 331 339 338 338 336 338 338 336 338 331 339 338 339 340 339 340 341
345 347 352 353 354 353 347 346 345 345 345 344 342 344 345 342 340 332 329 336 338 334 339 342 341 342 339 336 339 340 340 340 339 333 338 333 336 340 339 338 338 335 337 339 339 339 339 340 340
348 349 354 354 353 351 346 347 346 345 343 343 344 343 343 340 336 330 332 339 338 338 337 340 337 337 340 335 340 339 337 338 333 336 339 331 338 337 332 330 331 334 338 340 339 338 339 341 341
348 346 351 348 348 348 350 347 344 344 344 343 342 342 341 334 334 333 338 338 338 337 336 338 336 335 340 340 337 334 336 337 337 335 333 335 335 330 327 328 331 332 335 338 339 339 340 340 341
347 346 348 348 348 347 350 348 343 345 346 341 344 342 339 340 341 339 337 336 335 336 337 337 336 335 336 333 336 337 333 330 330 335 333 334 329 331 332 333 337 339 339 339 339 340 342 343 340
346 344 345 345 350 347 349 346 345 345 345 342 341 341 342 344 344 341 338 336 336 336 337 335 336 335 334 334 340 336 333 333 331 333 335 333 332 339 340 340 341 342 344 344 343 342 339 339 339
342 342 347 351 350 348 348 348 347 343 344 343 343 344 345 346 343 341 339 338 341 338 335 335 335 337 338 341 341 339 333 332 332 334 334 339 341 343 343 342 343 342 343 343 342 340 339 340 339
336 347 352 350 347 350 349 348 344 345 346 345 344 344 345 346 344 342 342 342 343 341 334 337 335 337 340 341 341 338 335 334 333 334 337 343 342 343 339 340 341 341 342 342 343 342 342 342 341
348 350 352 351 350 349 347 352 347 347 346 347 345 345 346 347 345 344 344 344 343 341 338 341 342 342 339 342 340 339 340 340 338 338 341 341 341 339 341 341 340 340 342 343 342 341 341 341 343
347 344 352 351 349 349 347 354 348 347 347 347 347 346 346 347 346 345 345 345 344 343 343 343 341 341 340 340 340 342 342 342 339 340 340 340 340 341 342 343 342 341 343 343 343 342 343 343 343
327 345 349 351 348 348 347 349 346 347 347 347 347 347 347 347 346 346 345 345 345 344 343 343 343 338 343 343 342 341 342 341 342 342 340 339 342 340 343 343 341 341 343 343 343 344 343 342 342
328 340 344 346 348 349 349 348 346 347 346 347 346 347 346 346 346 345 346 345 346 345 343 342 342 340 341 343 343 341 342 342 341 341 343 343 342 340 342 342 340 342 342 343 343 344 343 343 344
321 322 327 352 348 350 349 349 347 347 345 344 345 345 345 346 346 345 345 345 346 346 343 343 342 343 342 341 343 344 343 344 343 342 343 340 342 342 344 342 341 343 342 342 343 344 343 343 343
321 322 345 350 348 348 350 351 347 347 345 344 345 344 344 345 346 345 345 345 346 344 343 343 344 344 345 343 338 340 344 343 344 342 343 342 340 342 343 342 341 340 342 342 342 343 342 345 345
320 319 343 350 349 348 351 352 350 347 346 344 345 345 345 346 346 346 345 345 346 345 342 342 341 342 345 344 340 343 343 344 345 344 344 342 341 342 343 342 342 341 343 340 341 343 342 344 344
320 318 329 349 344 348 344 351 349 349 348 346 345 345 344 345 346 346 345 345 347 344 342 341 344 340 345 346 345 346 344 344 345 344 346 343 342 341 342 341 342 341 343 341 340 343 343 344 344
320 328 328 347 341 341 343 342 341 347 350 347 345 344 344 345 344 345 344 345 346 344 343 343 345 339 343 347 345 345 345 345 345 345 345 343 342 341 341 342 340 344 343 341 341 344 343 345 347
338 338 336 334 337 341 340 340 343 350 348 347 345 343 342 345 343 345 345 346 346 345 344 344 345 344 340 345 347 346 346 347 346 344 344 345 341 343 343 341 344 345 343 341 344 344 343 346 348
334 335 339 342 343 343 336 345 341 342 343 345 344 343 342 344 343 343 344 345 345 345 344 344 345 345 345 342 344 347 344 347 345 345 344 340 344 343 342 341 345 345 344 341 346 343 343 344 346
333 331 335 340 341 339 342 346 344 342 342 344 344 341 342 345 344 344 343 345 345 345 344 344 345 345 346 345 342 345 345 345 347 347 347 343 343 343 342 344 342 344 345 344 343 343 342 342 344
332 334 326 329 327 340 342 347 345 342 344 344 344 342 343 343 344 344 344 343 344 345 344 344 345 344 345 345 341 343 345 344 344 344 347 346 346 347 345 341 343 341 341 343 345 344 341 341 340
325 324 327 323 332 334 345 347 345 347 346 345 345 345 344 342 345 345 344 345 344 344 345 345 344 345 345 346 343 343 346 345 343 345 345 344 344 345 344 345 346 344 343 340 341 343 344 343 338
323 323 319 320 323 332 340 342 343 343 342 341 341 343 345 344 342 342 343 343 344 344 343 343 345 345 345 345 344 343 345 346 347 345 345 346 345 345 345 344 346 347 345 343 340 344 343 341 340
319 322 319 323 327 331 333 338 338 341 339 339 339 341 340 342 343 344 343 341 342 344 343 344 345 344 344 343 344 344 345 344 342 343 344 344 345 345 346 346 346 346 347 348 344 344 343 344 341

GFSSGP_850_thetae_117.txt.gz
Theta_e
338 338 347 349 353 353 357 353 343 335 336 334 332 338 345 348 347 344 339 340 340 339 339 339 341 336 333 335 337 337 338 336 336 336 337 334 339 339 339 339 337 339 337 337 336 337 339 338 338
347 348 347 351 356 358 358 349 340 335 336 333 344 346 347 349 346 341 341 340 341 339 339 339 340 338 331 333 335 337 337 336 336 337 337 338 339 339 340 340 339 336 337 335 332 332 332 334 334
348 347 347 350 353 358 356 346 339 339 336 343 348 348 348 346 344 343 340 340 341 337 336 338 339 339 334 332 332 333 336 334 336 337 340 340 339 338 339 337 339 338 337 339 337 333 337 337 335
345 344 347 355 358 354 351 344 341 338 341 348 347 348 346 345 344 341 340 340 339 336 337 338 332 331 330 330 333 334 333 331 337 338 339 341 338 340 340 338 337 338 341 342 342 342 339 336 335
347 346 353 356 355 349 347 343 341 339 340 348 347 347 346 345 343 341 340 340 338 342 334 337 330 330 329 328 328 329 330 331 337 339 339 341 341 336 334 336 337 338 337 338 340 339 339 338 336
351 350 357 358 353 348 346 344 341 344 347 345 345 344 346 346 342 342 341 339 337 335 340 342 340 339 340 330 331 328 331 330 336 339 340 342 341 339 336 332 335 338 336 338 339 339 339 340 338
351 353 355 354 352 349 348 346 347 347 346 345 343 345 345 347 343 341 341 333 334 334 340 340 339 335 339 331 338 337 330 334 339 339 340 339 341 341 341 341 331 338 338 339 339 339 340 338 337
347 350 354 354 353 353 347 347 346 346 345 344 342 345 345 346 342 341 338 334 335 335 339 340 339 339 341 331 339 334 330 330 340 338 339 335 340 341 337 339 332 336 338 337 338 339 340 340 340
345 353 356 354 353 351 347 346 345 345 343 343 345 343 343 343 342 340 337 340 335 337 342 342 341 341 338 340 340 340 339 339 337 340 335 336 342 342 342 333 334 336 338 338 339 340 341 341 341
349 351 353 349 349 349 347 347 345 343 344 345 345 344 344 342 341 339 343 342 343 336 341 340 340 342 339 341 340 339 337 339 338 340 332 337 333 328 330 330 332 336 339 339 339 340 340 340 341
349 349 349 348 348 347 347 345 344 344 346 344 344 345 345 343 339 340 342 339 337 337 341 339 337 340 342 338 334 334 335 335 336 336 335 333 329 329 333 334 335 337 338 340 341 342 341 340 341
346 345 347 348 349 348 347 343 343 346 346 342 343 343 343 341 339 341 343 341 335 336 337 338 335 338 337 336 336 332 328 330 336 333 335 330 333 334 337 338 339 340 343 343 342 339 339 339 340
340 341 345 348 350 348 347 345 345 344 344 343 344 344 344 344 344 342 342 338 336 336 335 335 335 335 334 340 335 333 331 331 333 336 333 334 340 341 342 343 343 343 343 342 340 339 341 339 339
338 346 351 350 350 348 348 345 344 343 345 345 345 345 346 347 346 342 341 338 338 336 333 335 335 336 339 341 339 333 331 332 334 334 338 341 343 341 340 342 342 342 342 342 342 340 341 342 338
347 352 352 350 350 349 345 348 347 345 346 346 346 347 347 347 346 342 340 340 341 339 333 334 335 340 341 342 338 334 333 334 333 336 342 342 342 339 341 341 341 341 342 341 340 341 342 343 343
350 351 358 352 350 349 348 349 344 346 347 346 347 347 347 347 347 345 343 343 342 336 337 339 337 340 340 342 338 337 339 336 335 340 341 341 339 340 341 342 340 341 343 342 342 342 343 342 343
342 353 353 356 350 349 349 353 347 346 346 347 346 347 347 348 347 346 343 345 343 340 340 342 341 342 340 341 340 341 341 339 339 340 339 340 341 342 343 342 340 342 343 343 343 343 341 342 344
348 340 345 351 352 350 351 351 349 348 346 346 347 347 347 347 347 346 345 345 345 343 344 343 342 338 343 341 340 341 342 342 342 341 339 339 341 340 343 342 341 342 342 343 343 343 343 343 342
328 327 337 351 350 352 352 351 350 348 347 346 345 345 348 347 347 348 346 345 346 345 344 344 343 341 340 343 342 340 340 341 341 341 342 342 341 341 344 342 342 342 342 342 343 342 343 344 341
325 326 352 352 350 351 352 352 350 348 348 347 347 344 346 346 347 348 346 346 345 345 343 343 343 341 340 342 342 341 342 343 343 341 343 341 341 343 341 343 341 341 342 342 342 342 342 345 344
325 326 348 350 352 350 352 355 352 348 347 346 346 345 344 346 347 348 348 345 345 345 342 342 342 343 344 343 341 342 342 343 344 344 342 342 340 341 343 343 342 340 342 341 341 342 342 344 344
327 323 335 351 349 349 349 353 353 350 350 346 345 344 343 346 347 347 348 347 344 345 343 341 343 343 345 344 340 342 342 344 344 344 343 343 341 340 342 343 341 341 342 341 341 343 344 344 344
326 325 330 340 347 346 351 349 348 349 353 350 346 345 344 344 345 347 348 348 347 346 344 341 342 344 344 345 345 345 344 343 343 345 344 342 342 341 341 341 342 341 343 343 342 344 345 346 347
337 335 340 343 345 341 342 345 349 353 353 350 347 346 345 344 342 345 347 348 348 345 345 342 342 344 344 346 345 346 344 345 344 344 345 342 343 341 341 341 342 343 343 341 343 344 345 346 348
341 338 346 348 347 342 342 347 344 346 346 349 348 346 346 344 343 345 346 347 346 346 345 344 344 345 342 345 346 346 344 346 345 343 342 342 342 342 342 342 341 344 344 340 344 344 343 345 346
336 334 333 338 343 340 346 349 346 344 343 344 347 346 345 344 344 345 345 346 346 345 345 344 344 345 344 343 345 345 346 345 345 346 346 344 341 342 342 341 342 343 344 342 343 344 343 342 344
332 334 331 337 337 342 347 346 347 344 346 345 347 346 345 345 345 343 345 345 346 345 345 344 344 345 345 345 344 343 345 344 345 347 347 346 343 342 342 342 343 342 344 344 342 342 342 340 341
331 330 329 334 342 340 349 350 348 348 348 347 346 345 344 345 345 344 344 343 343 343 344 345 344 344 345 344 345 341 343 345 343 344 344 346 344 346 346 343 341 342 340 340 342 344 344 343 340
327 330 329 331 333 336 343 348 347 347 345 348 345 344 344 345 344 345 344 344 343 343 343 344 345 344 344 345 343 343 342 345 346 345 345 345 343 344 346 344 343 344 344 343 341 340 342 342 342
323 326 329 333 335 337 340 341 341 343 343 343 344 345 345 344 345 345 345 344 343 344 344 344 344 344 344 343 343 344 343 343 345 346 344 345 344 345 346 346 345 346 346 346 346 342 342 342 342

GFSSGP_850_thetae_120.txt.gz
Theta_e
337 338 347 350 359 355 354 349 338 336 336 334 334 339 348 349 348 349 343 345 345 346 346 343 340 335 336 338 336 337 336 336 336 335 334 340 339 339 337 339 337 334 334 337 339 338 338 338 332
350 349 348 355 360 355 354 344 338 338 335 334 342 346 347 349 344 344 346 345 345 346 347 347 338 333 335 337 338 338 336 336 337 337 338 338 338 341 340 335 337 338 338 335 335 334 335 334 326
348 347 352 358 354 353 352 341 340 337 334 345 348 349 349 345 344 346 345 346 346 347 348 342 339 332 332 334 335 337 335 336 340 339 339 337 338 341 338 337 334 337 335 332 338 339 338 336 330
346 347 352 360 357 353 347 341 339 337 348 349 349 350 346 344 346 346 346 346 345 345 346 341 338 335 335 334 332 335 334 336 340 341 341 339 339 339 335 338 340 341 341 341 339 338 338 334 331
345 350 357 358 355 350 344 341 339 347 350 349 349 350 345 347 347 347 346 344 343 344 345 342 330 329 329 329 331 332 330 337 339 340 341 339 337 338 335 337 338 338 340 339 339 338 337 335 330
353 352 359 358 354 349 345 342 340 344 349 348 346 346 349 348 347 346 345 343 344 342 347 342 337 338 330 328 328 330 331 336 340 340 342 341 339 335 334 336 336 338 339 339 339 340 338 338 335
355 356 358 355 355 354 349 343 345 348 348 347 343 346 349 347 346 345 344 344 342 346 348 346 346 341 334 339 330 330 335 336 339 341 341 341 341 341 332 336 337 339 339 339 340 339 339 339 336
350 354 358 355 355 356 350 349 347 348 348 345 343 345 348 348 346 345 344 343 343 346 346 349 348 347 344 343 334 329 334 338 341 340 337 339 340 336 338 335 336 336 338 339 340 341 341 340 337
348 356 357 356 354 354 348 347 347 347 346 344 345 342 345 346 345 343 343 343 344 345 346 346 346 348 346 349 339 336 329 337 337 339 336 345 346 345 347 337 336 337 338 340 340 340 341 340 335
351 355 353 350 351 351 349 347 347 346 347 346 343 344 345 344 344 342 343 343 344 345 347 347 345 346 346 346 347 349 347 346 348 346 348 347 346 345 343 334 337 339 339 339 340 341 343 345 344
349 353 346 345 348 349 346 346 346 346 347 345 345 345 344 344 342 342 343 343 344 344 344 344 350 347 345 342 345 346 346 346 345 343 348 344 343 344 345 346 346 345 344 346 346 346 344 345 345
350 347 348 346 349 349 348 346 347 347 346 344 343 343 343 342 340 342 343 344 345 345 345 345 347 343 346 345 345 343 344 344 344 345 343 344 345 348 347 347 347 347 348 347 347 344 343 343 347
347 348 348 349 349 349 346 345 346 346 343 343 342 343 343 340 340 342 343 344 346 345 345 345 346 346 345 344 343 342 342 343 343 344 344 346 346 348 347 349 347 348 347 346 347 346 345 343 344
341 343 347 350 348 349 347 346 341 345 342 343 343 343 343 343 342 343 344 345 346 345 345 345 346 345 345 346 345 344 342 344 344 342 344 347 348 348 348 348 347 348 347 348 347 344 346 343 342
338 349 350 351 350 349 345 346 346 344 343 344 344 344 344 345 345 344 344 345 346 345 345 345 346 346 346 346 344 344 343 343 343 343 342 344 347 343 348 348 347 348 348 347 347 348 347 344 343
345 348 355 353 350 346 346 353 346 346 344 344 345 345 346 347 346 346 345 346 346 344 346 345 345 347 346 344 345 344 344 344 344 344 345 343 340 342 345 347 347 348 348 347 347 348 346 345 345
347 350 353 356 351 350 347 350 346 347 346 347 347 346 347 347 347 347 347 347 347 346 347 346 346 345 347 338 345 347 341 344 345 346 346 344 340 341 349 347 347 346 348 347 348 348 348 346 345
347 348 351 355 355 353 353 353 347 348 348 347 347 348 347 348 348 347 347 348 348 347 348 349 349 345 344 344 342 348 346 345 345 346 346 341 346 345 349 347 348 348 347 347 350 348 349 348 347
344 343 346 351 352 353 353 352 350 348 346 345 346 346 347 347 348 348 348 349 349 349 349 348 349 343 342 347 346 346 346 347 347 346 344 339 343 342 343 347 346 349 348 345 351 349 349 347 346
338 338 347 351 352 353 351 353 353 350 345 342 345 344 347 347 348 349 349 349 350 350 350 350 350 345 342 347 348 347 347 347 347 348 348 348 345 340 344 347 349 345 349 343 349 344 349 348 346
333 335 347 347 351 351 353 356 355 352 349 344 344 344 345 348 348 350 350 349 350 351 350 350 350 348 341 346 347 342 347 345 343 348 348 348 348 344 342 344 347 343 347 348 349 350 348 349 350
337 330 342 349 349 352 351 359 356 354 353 347 346 343 343 345 348 348 350 350 350 351 351 350 349 344 342 342 348 347 346 347 348 347 348 348 348 348 343 342 343 342 348 345 347 351 351 352 351
334 328 332 338 338 341 348 347 352 353 355 352 349 345 345 344 346 348 348 350 351 351 350 348 350 343 345 345 347 346 349 347 347 348 348 349 348 349 348 342 343 341 348 346 348 349 346 353 353
330 330 334 337 337 339 339 344 354 354 353 352 349 348 346 345 345 347 348 349 350 351 351 349 349 344 344 344 344 345 346 349 349 349 349 349 348 348 347 347 346 343 348 344 347 344 344 349 352
331 334 339 339 340 338 340 343 343 348 348 348 351 349 347 346 343 346 348 349 350 350 351 349 350 348 347 348 345 344 344 349 349 347 349 348 348 348 349 342 345 347 343 340 349 345 343 347 351
332 335 337 340 340 339 344 343 344 345 346 348 349 349 348 348 345 344 348 350 351 350 351 350 351 345 349 348 348 344 344 344 345 349 349 348 347 350 350 348 349 349 343 348 341 348 349 346 349
328 332 333 334 336 339 345 342 350 347 347 347 348 349 349 349 346 344 344 349 349 350 351 351 351 351 351 350 347 345 343 345 345 348 346 350 349 346 349 349 349 350 346 345 346 349 345 345 344
328 330 330 332 339 339 342 343 343 352 349 349 349 350 349 348 345 346 346 348 349 349 349 351 351 352 351 350 350 350 350 343 344 344 345 349 350 349 349 349 349 349 350 343 341 349 348 344 349
327 329 330 329 331 336 338 341 348 349 348 350 349 349 349 349 348 347 348 349 350 350 349 350 351 352 351 349 350 350 350 348 345 345 343 343 343 344 349 350 350 350 350 349 344 344 351 350 351
329 327 329 331 334 335 336 344 346 348 346 348 348 349 349 348 348 348 348 349 351 351 349 350 352 351 351 351 350 350 349 349 345 344 344 345 344 342 343 343 345 347 350 350 347 349 348 350 350

GFSSGP_850_thetae_123.txt.gz
Theta_e
337 339 347 354 361 362 350 343 340 339 338 336 339 344 347 349 348 349 345 345 346 346 344 342 336 338 338 336 337 337 337 337 342 339 338 338 336 338 336 333 333 338 338 337 339 338 334 330 334
350 350 353 357 364 355 347 340 340 339 337 340 343 346 344 346 343 344 345 345 346 346 348 346 336 337 338 338 338 336 336 338 339 339 339 339 338 337 337 339 339 338 340 337 335 337 325 324 324
352 350 355 360 361 351 346 342 341 338 343 344 348 348 344 344 344 346 345 346 346 347 348 339 333 335 336 337 337 336 338 339 338 337 337 341 339 338 337 337 334 330 337 339 338 336 337 326 323
350 349 354 360 354 346 343 343 340 340 348 348 348 346 343 344 345 345 345 347 347 347 347 339 333 332 334 333 336 335 338 340 341 338 338 338 337 337 339 341 341 340 339 336 336 333 329 330 327
345 350 360 361 349 344 343 341 344 349 348 348 347 345 346 346 345 345 343 343 343 345 345 344 336 335 335 340 333 333 338 340 340 340 336 339 340 337 338 338 340 339 338 338 337 335 333 328 327
354 354 361 355 349 345 344 342 348 349 349 349 346 346 347 345 344 343 343 343 344 343 343 339 330 329 329 329 331 331 338 340 341 341 340 336 335 336 337 337 339 338 339 339 336 336 334 332 329
355 360 357 350 351 349 346 343 346 349 348 346 344 348 345 344 343 342 343 343 346 347 346 346 346 337 331 329 330 333 337 340 341 341 341 339 332 332 336 338 339 339 339 339 339 340 336 329 328
354 357 355 352 354 353 346 348 348 347 347 345 345 346 346 345 343 343 342 342 346 346 347 346 347 345 348 345 332 334 338 340 340 339 339 337 336 332 336 337 339 339 340 341 340 337 331 327 324
349 359 360 353 353 353 350 351 350 349 347 346 345 344 345 344 343 342 342 344 344 345 346 346 346 348 345 345 333 332 338 338 338 340 345 347 349 348 348 338 338 339 340 340 341 342 344 347 340
351 360 357 355 351 352 349 350 349 349 348 346 343 345 345 345 343 342 343 343 344 345 347 346 347 345 347 346 347 345 345 349 349 348 346 348 348 345 342 337 339 340 344 343 340 345 346 346 347
351 356 350 349 351 349 348 349 347 346 348 344 347 345 345 343 343 343 342 344 343 347 348 346 344 350 348 348 348 346 345 348 346 349 347 344 344 346 344 344 346 346 347 348 346 345 344 345 345
350 346 347 346 350 348 347 346 346 347 345 344 345 343 343 343 342 343 342 344 344 344 344 348 347 344 347 344 346 345 345 344 344 346 345 346 345 346 347 344 344 347 345 346 345 344 344 346 347
349 349 348 347 349 350 347 349 348 345 344 344 343 343 342 341 341 342 343 343 344 344 344 346 348 349 346 345 344 344 343 344 345 345 347 346 346 347 347 348 345 347 345 345 345 345 344 344 347
347 349 348 351 349 348 347 344 343 346 343 343 342 342 341 340 341 342 343 345 344 345 345 346 347 348 348 344 345 342 345 343 344 344 348 347 348 348 348 349 345 346 347 345 346 348 345 344 344
345 350 351 351 351 350 346 348 344 343 342 342 342 342 341 340 342 343 343 345 345 344 345 345 347 348 345 344 344 343 342 344 343 347 350 347 348 348 347 345 347 347 346 350 347 348 347 345 344
344 349 357 353 352 350 348 353 344 341 344 342 342 342 342 343 343 344 344 344 344 345 346 345 345 347 346 345 344 342 344 343 344 345 347 348 349 349 347 348 348 346 346 345 346 347 346 346 345
347 350 355 358 351 351 349 352 346 340 344 343 343 343 343 344 345 346 345 345 344 346 347 346 346 347 346 346 347 344 345 344 344 344 345 348 348 348 347 348 343 350 345 346 348 345 349 347 345
350 349 353 357 355 352 352 350 347 347 343 344 344 344 344 344 345 345 344 347 346 346 348 347 347 348 347 346 346 346 346 343 344 345 349 345 348 348 351 347 347 350 346 347 349 349 348 347 349
342 346 353 353 354 354 353 353 350 348 348 348 346 346 346 344 345 344 345 346 347 347 348 349 348 348 348 346 346 345 345 344 344 345 348 349 349 349 348 349 346 349 347 349 352 352 345 347 347
341 346 350 357 352 353 353 354 350 349 348 347 346 346 347 346 346 345 347 347 346 348 348 350 351 349 349 346 346 346 346 345 346 346 345 349 347 350 344 348 350 348 348 352 353 349 355 347 349
338 341 347 351 352 351 353 357 354 348 347 341 343 341 345 348 344 346 347 346 347 346 349 350 350 350 349 349 349 347 349 347 349 348 346 347 348 348 351 349 352 342 350 351 353 350 351 353 349
338 337 345 348 352 356 352 363 358 353 351 345 342 344 346 346 348 347 346 348 345 347 347 349 351 349 350 348 349 349 348 347 347 346 348 348 347 348 349 350 351 348 352 345 351 350 354 353 349
336 336 337 344 348 347 350 357 353 355 356 351 345 343 346 340 347 347 345 346 348 347 346 348 351 351 352 349 348 350 348 349 349 347 351 349 349 349 349 350 351 351 349 347 351 354 350 353 355
334 334 334 337 340 343 348 346 357 360 357 354 348 344 344 339 346 347 347 346 347 347 346 346 350 353 351 348 345 349 349 350 348 349 351 348 349 349 351 350 351 351 353 349 349 351 344 350 352
332 335 339 341 343 343 339 342 354 352 350 353 350 348 344 340 344 346 346 348 349 350 346 347 350 352 351 352 346 348 349 346 348 352 350 349 348 346 349 350 351 350 351 354 354 345 352 350 353
330 334 339 343 342 341 342 344 352 348 347 348 351 349 348 342 343 343 346 345 349 350 346 347 352 352 351 351 351 347 351 351 351 350 351 346 346 348 350 351 352 353 353 352 353 352 351 351 353
329 332 334 336 338 339 341 345 349 346 348 348 348 351 350 347 345 342 347 348 350 347 350 348 352 353 351 350 352 352 350 349 351 350 354 350 349 349 350 350 351 351 352 353 353 351 350 355 348
327 330 332 334 339 340 346 349 347 348 348 348 349 351 350 350 347 344 344 346 350 348 351 350 351 354 352 349 350 350 350 352 350 347 348 352 352 349 350 351 350 351 352 352 350 348 349 351 352
327 329 331 331 333 336 341 347 346 349 347 349 348 348 351 350 350 345 344 345 349 350 351 351 352 354 353 350 349 350 349 350 350 350 350 353 352 351 351 351 352 351 351 352 353 347 354 355 352
329 327 330 331 332 332 332 343 340 345 346 347 348 349 350 351 350 346 343 346 348 351 353 352 353 353 353 352 352 350 349 350 351 353 353 352 349 349 350 352 352 351 352 352 352 351 349 351 351